[[{"header":{"parameterUnit":"m.s-1","parameterCategory":1,"la1":30.6,"la2":28.766,"lo1":-90.7593,"lo2":-88.6598,"dy":0.0162,"dx":0.0183,"nx":116,"ny":114,"refTime":"2023-03-15T12:00:00:Z","depth":0,"parameterNumber":2,"parameterNumberName":"U-component_of_WINDS"},"data":[0.0,0.0,0.0,0.0,0.0,0.0,0.0,0.0,0.0,0.0,0.0,0.0,0.0,0.0,0.0,0.0,0.0,0.0,0.0,0.0,0.0,0.0,0.0,0.0,0.0,0.0,0.0,0.0,0.0,0.0,0.0,0.0,0.0,0.0,0.0,0.0,0.0,0.0,0.0,0.0,0.0,0.0,0.0,0.0,0.0,0.0,0.0,0.0,0.0,0.0,0.0,0.0,0.0,0.0,0.0,0.0,0.0,0.0,0.0,0.0,0.0,0.0,0.0,0.0,0.0,0.0,0.0,0.0,0.0,0.0,0.0,0.0,0.0,0.0,0.0,0.0,0.0,0.0,0.0,0.0,0.0,0.0,0.0,0.0,0.0,0.0,0.0,0.0,0.0,0.0,0.0,0.0,0.0,0.0,0.0,0.0,0.0,0.0,0.0,0.0,0.0,0.0,0.0,0.0,0.0,0.0,0.0,0.0,0.0,0.0,0.0,0.0,0.0,0.0,0.0,0.0,0.0,0.0,0.0,0.0,0.0,0.0,0.0,0.0,0.0,0.0,0.0,0.0,0.0,0.0,0.0,0.0,0.0,0.0,0.0,0.0,0.0,0.0,0.0,0.0,0.0,0.0,0.0,0.0,0.0,0.0,0.0,0.0,0.0,0.0,0.0,0.0,0.0,0.0,0.0,0.0,0.0,0.0,0.0,0.0,0.0,0.0,0.0,0.0,0.0,0.0,0.0,0.0,0.0,0.0,0.0,0.0,0.0,0.0,0.0,0.0,0.0,0.0,0.0,0.0,0.0,0.0,0.0,0.0,0.0,0.0,0.0,0.0,0.0,0.0,0.0,0.0,0.0,0.0,0.0,0.0,0.0,0.0,0.0,0.0,0.0,0.0,0.0,0.0,0.0,0.0,0.0,0.0,0.0,0.0,0.0,0.0,0.0,0.0,0.0,0.0,0.0,0.0,0.0,0.0,0.0,0.0,0.0,0.0,0.0,0.0,0.0,0.0,0.0,0.0,0.0,0.0,0.0,0.0,0.0,0.0,0.0,0.0,0.0,0.0,0.0,0.0,0.0,0.0,0.0,0.0,0.0,0.0,0.0,0.0,0.0,0.0,0.0,0.0,0.0,0.0,0.0,0.0,0.0,0.0,0.0,0.0,0.0,0.0,0.0,0.0,0.0,0.0,0.0,0.0,0.0,0.0,0.0,0.0,0.0,0.0,0.0,0.0,0.0,0.0,0.0,0.0,0.0,0.0,0.0,0.0,0.0,0.0,0.0,0.0,0.0,0.0,0.0,0.0,0.0,0.0,0.0,0.0,0.0,0.0,0.0,0.0,0.0,0.0,0.0,0.0,0.0,0.0,0.0,0.0,0.0,0.0,0.0,0.0,0.0,0.0,0.0,0.0,0.0,0.0,0.0,0.0,0.0,0.0,0.0,0.0,0.0,0.0,0.0,0.0,0.0,0.0,0.0,0.0,0.0,0.0,0.0,0.0,0.0,0.0,0.0,0.0,0.0,0.0,0.0,0.0,0.0,0.0,0.0,0.0,0.0,0.0,0.0,0.0,0.0,0.0,0.0,0.0,0.0,0.0,0.0,0.0,0.0,0.0,0.0,0.0,0.0,0.0,0.0,0.0,0.0,0.0,0.0,0.0,0.0,0.0,0.0,0.0,0.0,0.0,0.0,0.0,0.0,0.0,0.0,0.0,0.0,0.0,0.0,0.0,0.0,0.0,0.0,0.0,0.0,0.0,0.0,0.0,0.0,0.0,0.0,0.0,0.0,0.0,0.0,0.0,0.0,0.0,0.0,0.0,0.0,0.0,0.0,0.0,0.0,0.0,0.0,0.0,0.0,0.0,0.0,0.0,0.0,0.0,0.0,0.0,0.0,0.0,0.0,0.0,0.0,0.0,0.0,0.0,0.0,0.0,0.0,0.0,0.0,0.0,0.0,0.0,0.0,0.0,0.0,0.0,0.0,0.0,0.0,0.0,0.0,0.0,0.0,0.0,0.0,0.0,0.0,0.0,0.0,0.0,0.0,0.0,0.0,0.0,0.0,0.0,0.0,0.0,0.0,0.0,0.0,0.0,0.0,0.0,0.0,0.0,0.0,0.0,0.0,0.0,0.0,0.0,0.0,0.0,0.0,0.0,0.0,0.0,0.0,0.0,0.0,0.0,0.0,0.0,0.0,0.0,0.0,0.0,0.0,0.0,0.0,0.0,0.0,0.0,0.0,0.0,0.0,0.0,0.0,0.0,0.0,0.0,0.0,0.0,0.0,0.0,0.0,0.0,0.0,0.0,0.0,0.0,0.0,0.0,0.0,0.0,0.0,0.0,0.0,0.0,0.0,0.0,0.0,0.0,0.0,0.0,0.0,0.0,0.0,0.0,0.0,0.0,0.0,0.0,0.0,0.0,0.0,0.0,0.0,0.0,0.0,0.0,0.0,0.0,0.0,0.0,0.0,0.0,0.0,0.0,0.0,0.0,0.0,0.0,0.0,0.0,0.0,0.0,0.0,0.0,0.0,0.0,0.0,0.0,0.0,0.0,0.0,0.0,0.0,0.0,0.0,0.0,0.0,0.0,0.0,0.0,0.0,0.0,0.0,0.0,0.0,0.0,0.0,0.0,0.0,0.0,0.0,0.0,0.0,0.0,0.0,0.0,0.0,0.0,0.0,0.0,0.0,0.0,0.0,0.0,0.0,0.0,0.0,0.0,0.0,0.0,0.0,0.0,0.0,0.0,0.0,0.0,0.0,0.0,0.0,0.0,0.0,0.0,0.0,0.0,0.0,0.0,0.0,0.0,0.0,0.0,0.0,0.0,0.0,0.0,0.0,0.0,0.0,0.0,0.0,0.0,0.0,0.0,0.0,0.0,0.0,0.0,0.0,0.0,0.0,0.0,0.0,0.0,0.0,0.0,0.0,0.0,0.0,0.0,0.0,0.0,0.0,0.0,0.0,0.0,0.0,0.0,0.0,0.0,0.0,0.0,0.0,0.0,0.0,0.0,0.0,0.0,0.0,0.0,0.0,0.0,0.0,0.0,0.0,0.0,0.0,0.0,0.0,0.0,0.0,0.0,0.0,0.0,0.0,0.0,0.0,0.0,0.0,0.0,0.0,0.0,0.0,0.0,0.0,0.0,0.0,0.0,0.0,0.0,0.0,0.0,0.0,0.0,0.0,0.0,0.0,0.0,0.0,0.0,0.0,0.0,0.0,0.0,0.0,0.0,0.0,0.0,0.0,0.0,0.0,0.0,0.0,0.0,0.0,0.0,0.0,0.0,0.0,0.0,0.0,0.0,0.0,0.0,0.0,0.0,0.0,0.0,0.0,0.0,0.0,0.0,0.0,0.0,0.0,0.0,0.0,0.0,0.0,0.0,0.0,0.0,0.0,0.0,0.0,0.0,0.0,0.0,0.0,0.0,0.0,0.0,0.0,0.0,0.0,0.0,0.0,0.0,0.0,0.0,0.0,0.0,0.0,0.0,0.0,0.0,0.0,0.0,0.0,0.0,0.0,0.0,0.0,0.0,0.0,0.0,0.0,0.0,0.0,0.0,0.0,0.0,0.0,0.0,0.0,0.0,0.0,0.0,0.0,0.0,0.0,0.0,0.0,0.0,0.0,0.0,0.0,0.0,0.0,0.0,0.0,0.0,0.0,0.0,0.0,0.0,0.0,0.0,0.0,0.0,0.0,0.0,0.0,0.0,0.0,0.0,0.0,0.0,0.0,0.0,0.0,0.0,0.0,0.0,0.0,0.0,0.0,0.0,0.0,0.0,0.0,0.0,0.0,0.0,0.0,0.0,0.0,0.0,0.0,0.0,0.0,0.0,0.0,0.0,0.0,0.0,0.0,0.0,0.0,0.0,0.0,0.0,0.0,0.0,0.0,0.0,0.0,0.0,0.0,0.0,0.0,0.0,0.0,0.0,0.0,0.0,0.0,0.0,0.0,0.0,0.0,0.0,0.0,0.0,0.0,0.0,0.0,0.0,0.0,0.0,0.0,0.0,0.0,0.0,0.0,0.0,0.0,0.0,0.0,0.0,0.0,0.0,0.0,0.0,0.0,0.0,0.0,0.0,0.0,0.0,0.0,0.0,0.0,0.0,0.0,0.0,0.0,0.0,0.0,0.0,0.0,0.0,0.0,0.0,0.0,0.0,0.0,0.0,0.0,0.0,0.0,0.0,0.0,0.0,0.0,0.0,0.0,0.0,0.0,0.0,0.0,0.0,0.0,0.0,0.0,0.0,0.0,0.0,0.0,0.0,0.0,0.0,0.0,0.0,0.0,0.0,0.0,0.0,0.0,0.0,0.0,0.0,0.0,0.0,0.0,0.0,0.0,0.0,0.0,0.0,0.0,0.0,0.0,0.0,0.0,0.0,0.0,0.0,0.0,0.0,0.0,0.0,0.0,0.0,0.0,0.0,0.0,0.0,0.0,0.0,0.0,0.0,0.0,0.0,0.0,0.0,0.0,0.0,0.0,0.0,0.0,0.0,0.0,0.0,0.0,0.0,0.0,0.0,0.0,0.0,0.0,0.0,0.0,0.0,0.0,0.0,0.0,0.0,0.0,0.0,0.0,0.0,0.0,0.0,0.0,0.0,0.0,0.0,0.0,0.0,0.0,0.0,0.0,0.0,0.0,0.0,0.0,0.0,0.0,0.0,0.0,0.0,0.0,0.0,0.0,0.0,0.0,0.0,0.0,0.0,0.0,0.0,0.0,0.0,0.0,0.0,0.0,0.0,0.0,0.0,0.0,0.0,0.0,0.0,0.0,0.0,0.0,0.0,0.0,0.0,0.0,0.0,0.0,0.0,0.0,0.0,0.0,0.0,0.0,0.0,0.0,0.0,0.0,0.0,0.0,0.0,0.0,0.0,0.0,0.0,0.0,0.0,0.0,0.0,0.0,0.0,0.0,0.0,0.0,0.0,0.0,0.0,0.0,0.0,0.0,0.0,0.0,0.0,0.0,0.0,0.0,0.0,0.0,0.0,0.0,0.0,0.0,0.0,0.0,0.0,0.0,0.0,0.0,0.0,0.0,0.0,0.0,0.0,0.0,0.0,0.0,0.0,0.0,0.0,0.0,0.0,0.0,0.0,0.0,0.0,0.0,0.0,0.0,0.0,0.0,0.0,0.0,0.0,0.0,0.0,0.0,0.0,0.0,0.0,0.0,0.0,0.0,0.0,0.0,0.0,0.0,0.0,0.0,0.0,0.0,0.0,0.0,0.0,0.0,0.0,0.0,0.0,0.0,0.0,0.0,0.0,0.0,0.0,0.0,0.0,0.0,0.0,0.0,0.0,0.0,0.0,0.0,0.0,0.0,0.0,0.0,0.0,0.0,0.0,0.0,0.0,0.0,0.0,0.0,0.0,0.0,0.0,0.0,0.0,0.0,0.0,0.0,0.0,0.0,0.0,0.0,0.0,0.0,0.0,0.0,0.0,0.0,0.0,0.0,0.0,0.0,0.0,0.0,0.0,0.0,0.0,0.0,0.0,0.0,0.0,0.0,0.0,0.0,0.0,0.0,0.0,0.0,0.0,0.0,0.0,0.0,0.0,0.0,0.0,0.0,0.0,0.0,0.0,0.0,0.0,0.0,0.0,0.0,0.0,0.0,0.0,0.0,0.0,0.0,0.0,0.0,0.0,0.0,0.0,0.0,0.0,0.0,0.0,0.0,0.0,0.0,0.0,0.0,0.0,0.0,0.0,0.0,0.0,0.0,0.0,0.0,0.0,0.0,0.0,0.0,0.0,0.0,0.0,0.0,0.0,0.0,0.0,0.0,0.0,0.0,0.0,0.0,0.0,0.0,0.0,0.0,0.0,0.0,0.0,0.0,0.0,0.0,0.0,0.0,0.0,0.0,0.0,0.0,0.0,0.0,0.0,0.0,0.0,0.0,0.0,0.0,0.0,0.0,0.0,0.0,0.0,0.0,0.0,0.0,0.0,0.0,0.0,0.0,0.0,0.0,0.0,0.0,0.0,0.0,0.0,0.0,0.0,0.0,0.0,0.0,0.0,0.0,0.0,0.0,0.0,0.0,0.0,0.0,0.0,0.0,0.0,0.0,0.0,0.0,0.0,0.0,0.0,0.0,0.0,0.0,0.0,2.4964,0.0,0.0,0.0,0.0,0.0,0.0,0.0,0.0,0.0,0.0,0.0,0.0,0.0,0.0,0.0,0.0,0.0,0.0,0.0,0.0,0.0,0.0,0.0,0.0,0.0,0.0,0.0,0.0,0.0,0.0,0.0,0.0,0.0,0.0,0.0,0.0,0.0,0.0,0.0,0.0,0.0,0.0,0.0,0.0,0.0,0.0,0.0,0.0,0.0,0.0,0.0,0.0,0.0,0.0,0.0,0.0,0.0,0.0,0.0,0.0,0.0,0.0,0.0,0.0,0.0,0.0,0.0,0.0,0.0,0.0,0.0,0.0,0.0,0.0,0.0,0.0,0.0,0.0,0.0,0.0,0.0,0.0,0.0,0.0,0.0,0.0,0.0,0.0,0.0,0.0,0.0,0.0,0.0,0.0,0.0,0.0,0.0,0.0,0.0,0.0,0.0,0.0,0.0,0.0,0.0,0.0,0.0,0.0,0.0,0.0,0.0,0.0,0.0,0.0,0.0,0.0,2.7545,0.0,0.0,0.0,0.0,0.0,0.0,0.0,0.0,0.0,0.0,0.0,0.0,0.0,0.0,0.0,0.0,0.0,0.0,0.0,0.0,0.0,0.0,0.0,0.0,0.0,0.0,0.0,0.0,0.0,0.0,0.0,0.0,0.0,0.0,0.0,0.0,0.0,0.0,0.0,0.0,0.0,0.0,0.0,0.0,0.0,0.0,0.0,0.0,0.0,0.0,0.0,0.0,0.0,0.0,0.0,0.0,0.0,0.0,0.0,0.0,0.0,0.0,0.0,0.0,0.0,0.0,0.0,0.0,0.0,0.0,0.0,0.0,0.0,0.0,0.0,0.0,0.0,0.0,0.0,0.0,0.0,0.0,0.0,0.0,0.0,0.0,0.0,0.0,0.0,0.0,0.0,0.0,0.0,0.0,0.0,0.0,0.0,0.0,0.0,0.0,0.0,0.0,0.0,0.0,0.0,0.0,0.0,0.0,0.0,0.0,2.6389,2.7212,2.9467,3.2966,3.2196,3.1602,3.0963,0.0,0.0,0.0,0.0,0.0,0.0,0.0,0.0,0.0,0.0,0.0,0.0,0.0,0.0,0.0,0.0,0.0,0.0,0.0,0.0,0.0,0.0,0.0,1.2207,1.323,1.2959,0.0,0.0,0.0,0.0,0.0,0.0,0.0,0.0,1.8332,0.0,0.0,0.0,2.7104,2.9197,2.9349,2.9109,2.8393,2.5674,0.0,0.0,0.0,0.0,0.0,0.0,0.0,0.0,0.0,0.0,0.0,0.0,0.0,0.0,0.0,0.0,0.0,0.0,0.0,0.0,0.0,0.0,0.0,0.0,0.0,0.0,0.0,0.0,0.0,0.0,0.0,0.0,0.0,0.0,0.0,0.0,0.0,0.0,0.0,0.0,0.0,0.0,0.0,2.1138,2.3641,0.0,0.0,0.0,0.0,0.0,0.0,0.0,0.0,0.0,0.0,0.0,0.0,0.0,0.0,2.8838,2.7472,2.7879,3.0033,3.135,3.1689,3.1272,3.4146,3.5778,3.6406,3.7509,0.0,3.1576,3.0509,0.0,0.0,0.0,0.0,0.0,0.0,0.0,0.0,0.0,0.0,0.0,0.0,0.0,0.0,0.0,0.0,0.0,0.0,0.0,0.0,0.0,0.0,1.4655,1.534,1.6437,0.0,0.0,0.0,0.0,0.0,0.0,0.0,0.0,2.0949,2.3306,0.0,2.9113,3.1177,3.2475,3.2507,3.2602,3.2627,3.0609,2.8232,2.5721,2.4374,0.0,0.0,0.0,0.0,0.0,0.0,0.0,0.0,0.0,0.0,0.0,0.0,0.0,0.0,0.0,0.0,0.0,0.0,0.0,0.0,0.0,0.0,0.0,0.0,0.0,0.0,0.0,0.0,0.0,0.0,0.0,0.0,0.0,0.0,0.0,0.0,0.0,0.0,0.0,2.134,2.4449,2.5936,2.5466,2.4958,0.0,0.0,0.0,0.0,0.0,0.0,0.0,0.0,0.0,3.1331,3.0535,3.1387,3.4211,3.3542,3.4004,3.5646,3.5746,3.5992,3.6515,3.8846,3.9967,3.9805,4.0445,3.9121,3.6521,3.423,3.2552,3.1377,0.0,0.0,0.0,0.0,0.0,2.8464,0.0,0.0,0.0,0.0,0.0,0.0,0.0,0.0,0.0,0.0,0.0,0.0,1.4241,1.6256,1.7667,1.811,1.9797,2.0251,0.0,0.0,0.0,0.0,0.0,2.0416,2.1777,2.4234,2.7327,3.1104,3.3043,3.437,3.5125,3.5185,3.5281,3.5439,3.4442,3.1954,2.8336,2.7103,2.4717,0.0,0.0,0.0,0.0,0.0,0.0,0.0,0.0,0.0,0.0,0.0,0.0,0.0,0.0,0.0,0.0,0.0,0.0,0.0,0.0,0.0,0.0,0.0,0.0,0.0,0.0,0.0,0.0,0.0,0.0,0.0,0.0,0.0,0.0,0.0,0.0,0.0,0.0,2.5171,2.7512,2.8332,2.8344,2.7974,0.0,0.0,0.0,0.0,0.0,0.0,3.1788,3.2842,3.4163,3.5662,3.552,3.6238,3.8033,3.8919,3.9498,3.9862,3.926,3.9445,4.0288,4.211,4.2896,4.2676,4.2637,4.2148,4.1055,3.7665,3.5884,3.5151,3.3538,3.2707,3.2786,3.3942,3.3445,3.2712,0.0,0.0,0.0,0.0,0.0,0.0,0.0,0.0,0.0,0.0,0.0,1.5697,1.7301,1.9398,2.1133,2.2189,2.212,2.2162,0.0,2.0946,2.0299,2.11,2.1295,2.2294,2.4182,2.8623,3.2109,3.4607,3.5548,3.6329,3.7094,3.6988,3.6781,3.6529,3.6201,3.4851,3.2583,2.9834,2.7543,2.5449,0.0,0.0,0.0,0.0,0.0,0.0,0.0,0.0,0.0,0.0,0.0,0.0,0.0,0.0,0.0,0.0,0.0,0.0,0.0,0.0,0.0,0.0,0.0,0.0,0.0,0.0,0.0,0.0,0.0,0.0,0.0,0.0,0.0,0.0,0.0,0.0,0.0,0.0,0.0,3.1394,3.1681,0.0,0.0,0.0,0.0,3.1914,3.3899,3.5354,3.5849,3.6888,3.8188,3.9814,3.8568,3.8783,4.0397,4.2406,4.2791,4.1565,4.2698,4.2826,4.1828,4.3498,4.4277,4.4453,4.4336,4.4004,4.3301,4.0234,3.8622,3.8164,3.7233,3.6764,3.6738,3.7452,3.7431,3.7065,0.0,0.0,0.0,0.0,0.0,0.0,0.0,0.0,0.0,1.304,1.5218,1.7433,1.9569,2.2235,2.4156,2.497,2.5994,2.6244,2.5416,2.4307,2.4065,2.4869,2.471,2.6265,2.985,3.2139,3.438,3.6277,3.7185,3.784,3.835,3.8359,3.832,3.814,3.7718,3.6922,3.568,3.2196,2.9458,2.7161,2.4211,2.1299,0.0,0.0,0.0,0.0,0.0,0.0,0.0,0.0,0.0,0.0,0.0,0.0,0.0,0.0,0.0,0.0,0.0,0.0,0.0,0.0,0.0,0.0,0.0,0.0,0.0,0.0,0.0,0.0,0.0,0.0,0.0,0.0,0.0,0.0,0.0,0.0,0.0,3.4666,3.544,0.0,0.0,3.5424,3.6305,3.6625,3.8362,3.9707,4.0388,4.0946,4.1725,4.2627,4.1657,4.1685,4.2997,4.2689,4.2666,4.3102,4.3098,4.3195,4.3425,4.4265,4.4701,4.4798,4.5126,4.501,4.4778,4.3716,4.2612,4.1308,4.0445,4.0057,4.0005,4.0292,4.008,3.9759,0.0,0.0,0.0,0.0,0.0,0.0,0.0,0.0,0.0,1.4992,1.7419,1.9872,2.2471,2.5052,2.6837,2.731,2.8538,2.8911,2.8074,2.6975,2.68,2.7767,2.8152,3.0092,3.3819,3.5239,3.6563,3.7913,3.8988,3.956,3.9685,3.9897,3.9844,3.9829,3.9102,3.8398,3.7551,3.4651,3.1811,2.9105,2.6523,2.3653,2.0727,0.0,0.0,0.0,0.0,0.0,0.0,0.0,0.0,0.0,0.0,0.0,0.0,0.0,0.0,0.0,0.0,0.0,0.0,0.0,0.0,0.0,0.0,0.0,0.0,0.0,0.0,0.0,0.0,0.0,0.0,0.0,0.0,0.0,0.0,0.0,3.6456,3.7492,3.8866,3.9193,3.81,3.9626,4.0618,4.0594,4.2169,4.3178,4.3441,4.3801,4.4196,4.4572,4.3914,4.3819,4.4537,4.3573,4.3545,4.444,4.4033,4.4304,4.5125,4.5491,4.5694,4.5716,4.6274,4.6274,4.6075,4.6121,4.5239,4.4199,4.339,4.2915,4.2724,4.2724,4.2465,4.2128,0.0,0.0,0.0,0.0,0.0,0.0,0.0,0.0,1.4291,1.7571,2.0436,2.3208,2.5873,2.7884,2.9038,2.9295,2.9577,3.0023,3.0624,2.8823,2.8292,2.9707,3.1504,3.359,3.5739,3.774,3.8946,3.9483,4.1038,4.1685,4.133,4.1393,4.1359,4.1263,4.0111,3.9129,3.8187,3.7031,3.4671,3.149,2.8139,2.5505,2.3103,0.0,0.0,0.0,0.0,0.0,0.0,0.0,0.0,0.0,0.0,0.0,0.0,0.0,0.0,0.0,0.0,0.0,0.0,0.0,0.0,0.0,0.0,0.0,0.0,0.0,0.0,0.0,0.0,0.0,0.0,0.0,0.0,0.0,3.3937,3.6748,3.9079,3.9882,4.1742,4.243,4.127,4.2945,4.3986,4.3647,4.5253,4.5846,4.4962,4.5254,4.5502,4.5483,4.5142,4.4976,4.5019,4.5319,4.5472,4.5604,4.5503,4.6074,4.6972,4.7376,4.7431,4.7439,4.7812,4.7812,4.7382,4.6985,4.6814,4.6663,4.6055,4.5385,4.4956,4.4936,4.4713,4.4301,0.0,0.0,0.0,0.0,0.0,0.0,0.0,1.3609,1.5873,1.8253,2.1512,2.4641,2.7238,2.9438,3.0976,3.1872,3.1766,3.2027,3.2739,3.0505,2.9855,3.1601,3.4234,3.6375,3.7878,3.8938,3.9847,4.0525,4.1422,4.1843,4.1715,4.196,4.1936,4.1769,4.0971,4.0473,4.0013,3.8521,3.6767,3.4709,3.0893,2.7856,2.5385,0.0,0.0,0.0,0.0,0.0,0.0,0.0,0.0,0.0,0.0,0.0,0.0,0.0,0.0,0.0,0.0,0.0,0.0,0.0,0.0,0.0,0.0,0.0,0.0,0.0,0.0,0.0,0.0,0.0,0.0,0.0,0.0,3.6876,3.7068,3.9148,4.1393,4.3409,4.435,4.5053,4.5005,4.5958,4.6275,4.5231,4.6059,4.6452,4.6258,4.5691,4.6048,4.6995,4.5875,4.5741,4.6657,4.6223,4.6504,4.7383,4.7308,4.7679,4.8723,4.867,4.8512,4.8169,4.8343,4.7982,4.7702,4.7589,4.7742,4.7932,4.6083,4.5458,4.5316,4.5009,4.5019,4.5267,0.0,0.0,0.0,0.0,0.0,0.0,0.0,1.4913,1.739,2.0461,2.3321,2.6217,2.9349,3.0811,3.1982,3.2643,3.2921,3.2939,3.276,3.1763,3.2123,3.4181,3.6141,3.7839,3.9067,3.9746,4.0486,4.1084,4.1949,4.2525,4.2724,4.2859,4.2839,4.2638,4.1893,4.141,4.0831,3.9592,3.8238,3.667,3.3674,3.0718,2.7715,2.5134,2.2637,2.0383,1.9395,1.8075,1.6816,1.6674,0.0,0.0,0.0,0.0,0.0,0.0,0.0,0.0,0.0,0.0,0.0,0.0,0.0,0.0,0.0,0.0,0.0,0.0,0.0,0.0,0.0,0.0,0.0,0.0,3.775,4.0528,4.1069,4.232,4.3867,4.5419,4.6418,4.7021,4.7194,4.8025,4.7983,4.6935,4.7133,4.7372,4.7209,4.6551,4.6572,4.754,4.6573,4.6496,4.7719,4.7235,4.7544,4.8633,4.827,4.8651,4.9428,4.9311,4.9102,0.0,4.9046,4.8916,4.8478,4.8312,4.8341,0.0,0.0,0.0,0.0,0.0,4.6056,4.6245,0.0,0.0,0.0,0.0,0.0,0.0,0.0,1.6046,1.869,2.3071,2.5249,2.7755,3.1406,3.2,3.2273,3.2638,3.3357,3.3278,3.2011,3.3136,3.4632,3.6682,3.7622,3.848,3.9493,4.032,4.1022,4.151,4.2527,4.336,4.3586,4.3695,4.3716,4.3608,4.2656,4.1885,4.124,4.0329,3.9183,3.7679,3.6308,3.3504,2.9971,2.7681,2.5618,2.3978,2.3317,2.1408,1.9172,1.9311,0.0,0.0,0.0,0.0,0.0,0.0,0.0,0.0,0.0,0.0,0.0,0.0,0.0,0.0,0.0,0.0,0.0,0.0,0.0,0.0,0.0,0.0,0.0,0.0,4.1088,4.3507,4.5036,4.5605,4.5973,4.6576,4.7888,4.8661,4.8302,4.8968,4.902,4.8214,4.8389,4.8319,4.797,0.0,0.0,0.0,0.0,4.744,4.8414,4.8393,4.8895,4.9512,4.909,4.9365,4.9859,4.9878,4.9863,4.9773,5.0197,4.9957,4.9478,4.9129,4.8726,4.8429,4.7964,4.7968,4.805,4.7826,4.7422,0.0,0.0,0.0,0.0,0.0,0.0,0.0,0.0,1.6778,1.9693,2.2959,2.5469,2.8157,3.1433,3.215,3.2904,3.4393,3.414,3.4016,3.4134,3.5868,3.6682,3.6379,3.841,3.9401,3.9311,4.0647,4.132,4.1561,4.2731,4.3359,4.3108,4.371,4.3856,4.3439,4.2543,4.2167,4.2264,4.0672,3.9606,3.87,3.6965,3.4707,3.2231,3.0381,2.8465,2.662,2.5795,2.4839,2.3893,2.3449,2.2637,2.1585,2.0495,0.0,0.0,0.0,0.0,0.0,0.0,0.0,0.0,0.0,0.0,0.0,0.0,0.0,0.0,0.0,0.0,0.0,0.0,0.0,0.0,4.0293,4.2892,4.4949,4.5895,4.6831,4.7522,4.7901,4.8546,4.8974,4.8942,4.8569,4.8208,4.8212,4.7924,4.7913,4.8211,4.7706,0.0,4.879,4.8278,4.8454,4.9326,5.0023,5.0336,5.0435,0.0,0.0,5.1327,5.1238,5.1034,5.0606,5.0215,4.9826,4.9496,4.9423,4.9349,4.925,4.82,4.7648,4.755,4.7953,4.8307,4.8473,0.0,0.0,0.0,0.0,0.0,0.0,0.0,1.7679,2.0286,2.3385,2.5836,2.8256,3.0856,3.1525,3.2119,3.2915,3.3038,3.3847,3.5574,3.6461,3.7155,3.7723,3.906,3.9742,3.9806,4.0822,4.1583,4.1834,4.2882,4.3176,4.3022,4.3467,4.3392,4.2817,4.2176,4.2028,4.2039,4.0453,3.9626,3.9208,3.7509,3.5932,3.4311,3.2046,3.0146,2.8599,2.7963,2.7053,2.6185,2.6109,2.5448,2.4579,2.3708,2.243,2.1057,0.0,0.0,0.0,0.0,0.0,0.0,0.0,0.0,0.0,0.0,0.0,0.0,0.0,0.0,3.4793,0.0,0.0,4.1496,4.352,4.5298,4.6698,4.7273,4.8123,4.8426,4.8078,4.8815,4.917,4.9029,4.8852,4.8575,4.8254,4.7975,4.8054,4.8338,4.7914,4.8159,4.9324,4.8892,4.9197,5.0515,5.0609,5.0781,5.1229,5.1662,5.1763,5.1555,5.1547,5.1621,5.1418,5.0798,5.0596,5.0376,4.9973,4.9976,4.9915,4.9489,4.9049,4.8633,4.8795,4.8926,4.9187,0.0,0.0,0.0,0.0,0.0,0.0,0.0,0.0,2.0472,2.3746,2.5914,2.7961,3.0017,3.0616,3.0926,3.1046,3.2225,3.3857,3.6203,3.6566,3.7383,3.9024,3.9544,3.9862,3.9838,4.0908,4.1494,4.1773,4.2387,4.2645,4.2582,4.2837,4.2573,4.2152,4.174,4.1747,4.1573,4.0218,3.9484,3.934,3.7758,3.6691,3.5865,3.3259,3.1525,3.0328,2.9706,2.8614,2.7505,2.7742,2.7341,2.6678,2.6279,2.5614,2.4728,2.3458,2.3315,0.0,0.0,0.0,0.0,0.0,0.0,0.0,0.0,0.0,3.309,3.4926,3.7049,3.9158,4.0708,4.2658,4.444,4.6311,4.731,4.8033,4.8584,4.9068,4.9029,4.8275,4.8962,4.9273,4.8967,4.9198,4.9004,4.84,4.8275,4.8207,4.8545,4.8144,4.8533,4.9683,4.9404,5.0019,5.1231,5.1112,5.1191,5.1685,5.1688,5.1682,5.144,5.1788,5.1935,5.1917,5.1495,5.1257,5.1128,5.034,5.0216,5.0471,5.0564,5.0351,5.0243,4.9869,4.9668,4.9601,0.0,0.0,0.0,0.0,0.0,0.0,0.0,0.0,0.0,2.3423,2.5087,2.6811,2.8954,2.9579,3.0347,3.1604,3.3897,3.5397,3.5647,3.7276,3.8315,3.8291,3.9425,3.9717,3.8739,4.0327,4.0899,4.0216,4.1219,4.1637,4.1352,4.2122,4.2106,4.1584,4.1563,4.1508,4.1601,4.0291,3.9542,3.9101,3.7754,3.6578,3.5537,3.4329,3.313,3.2052,3.0788,2.9721,2.8787,2.8567,2.8418,2.83,2.8494,2.8374,2.8047,2.7214,0.0,2.5871,2.729,2.9804,3.205,3.2705,3.3517,3.5006,0.0,0.0,3.8869,4.021,4.1954,4.3214,4.2691,4.4341,4.5804,4.6397,4.7186,4.82,4.9252,4.9047,4.9082,4.9384,4.9511,4.965,4.9665,4.8582,4.815,4.8852,4.8229,4.8258,4.9371,4.9452,4.9564,5.0139,5.0738,5.1037,5.0666,5.1781,5.1999,5.1499,5.2307,5.2511,5.1862,5.2342,5.2361,5.1917,5.1495,5.111,5.0725,5.0327,5.0565,5.1037,5.0834,5.0861,5.1114,5.084,5.0365,5.0032,0.0,0.0,0.0,0.0,0.0,0.0,0.0,0.0,0.0,0.0,2.4429,2.6062,2.7255,2.8303,2.9252,3.0137,3.2574,3.4393,3.5354,3.701,3.8089,3.8487,3.9149,3.9357,3.887,4.0144,4.0693,4.0622,4.1053,4.1432,4.1416,4.1409,4.117,4.0726,4.0713,4.0522,4.0274,3.9271,3.8834,3.8658,3.739,3.6504,3.5743,3.4477,3.3272,3.2104,3.0855,2.9892,0.0,0.0,2.9284,2.9546,3.0073,3.008,2.9782,2.9702,3.0088,0.0,3.3806,3.5548,0.0,0.0,3.8872,4.0145,4.1712,4.2108,4.2569,4.3968,4.4828,4.5583,4.5896,4.6671,4.7344,0.0,4.8297,4.8763,4.9509,4.9242,4.9167,4.9689,4.9417,4.9315,4.9637,4.9007,4.8531,4.8932,4.8642,4.8573,4.9084,4.9505,4.9835,5.0025,5.0781,5.1037,5.0981,5.1515,5.17,5.1537,5.1757,5.1825,5.1587,5.2038,5.2231,5.1991,5.1596,5.1283,5.1067,5.0698,5.0936,5.1056,5.1064,5.1114,5.1016,5.0586,5.0404,5.02,0.0,0.0,0.0,0.0,0.0,0.0,0.0,0.0,0.0,0.0,0.0,2.5299,2.6113,2.7271,2.8272,2.8839,3.1133,3.3208,3.4823,3.6434,3.7688,3.8624,3.8806,3.8966,3.8937,3.9751,4.0283,4.0646,4.0729,4.0859,4.1152,4.0726,4.0298,3.9784,3.971,3.9338,3.8991,3.8133,3.7875,3.7865,3.6809,3.5961,3.5332,3.4068,3.2544,3.1075,3.0348,2.9676,0.0,0.0,2.9253,3.002,3.0683,3.1086,3.1466,3.2272,3.3709,3.573,3.8123,0.0,0.0,4.1753,4.3359,4.4707,4.472,4.5221,4.5821,4.6607,4.7158,4.7482,4.8168,4.8239,0.0,4.9229,4.8951,4.8973,4.9632,4.9325,4.9213,4.9701,4.9238,4.9237,4.9718,4.9094,4.8943,4.913,4.9132,4.9049,4.918,4.9708,5.0071,5.034,5.09,5.1269,5.1295,5.1227,5.1497,5.1705,5.1375,5.1367,5.1495,5.1788,5.1927,5.1942,5.1522,5.1492,5.1481,5.1182,5.1176,5.1257,5.1339,5.1133,5.0918,5.0508,5.0273,5.0078,0.0,0.0,0.0,0.0,0.0,0.0,0.0,0.0,0.0,0.0,0.0,0.0,0.0,0.0,2.7629,2.8211,3.0514,3.2442,3.3726,3.6076,3.7421,3.7808,3.8389,3.8386,3.8042,3.8862,3.9363,3.9194,3.9591,4.0018,4.0309,3.9791,3.9447,3.9284,3.8728,3.8148,3.776,3.7031,3.6814,3.6873,3.5849,3.5007,3.422,3.2861,3.1142,2.9263,2.9429,0.0,0.0,0.0,2.7918,2.9494,2.9965,3.1539,0.0,3.5284,3.7092,0.0,0.0,0.0,4.3544,4.3847,4.6206,4.823,4.7396,4.8245,4.9012,4.8075,4.8845,4.9328,4.8164,4.8872,4.9359,4.8898,4.9004,4.9145,4.9613,4.9364,4.9196,4.9658,4.938,4.9224,0.0,4.885,4.8707,4.9613,4.9143,4.9199,5.0098,5.0527,5.0957,5.1387,5.1816,5.2068,5.1916,5.1733,5.1744,5.2152,5.1522,5.1513,5.1917,5.1935,5.1715,5.1312,5.1942,5.191,5.1462,5.1675,5.1935,5.1839,5.1581,5.1426,5.1367,5.0937,5.0527,5.0117,0.0,0.0,0.0,0.0,0.0,0.0,0.0,0.0,0.0,0.0,0.0,0.0,0.0,0.0,0.0,0.0,2.9126,3.0843,3.2524,3.4253,3.5631,3.633,3.7209,3.767,3.7178,3.7677,3.8163,3.8327,3.8554,3.8635,3.9045,3.8987,3.8591,3.7857,3.7496,3.7207,3.6682,3.5981,3.5763,3.5906,3.5187,3.4316,3.3511,3.2393,3.0419,2.8028,0.0,0.0,0.0,0.0,0.0,0.0,2.9354,0.0,0.0,3.6113,0.0,0.0,0.0,0.0,4.6875,4.7561,4.9135,5.0481,5.0422,5.0461,5.0437,5.0723,5.0131,4.9607,4.945,4.9597,4.9446,4.8963,4.9303,4.9383,4.9196,4.9153,4.9064,4.9209,4.923,0.0,0.0,0.0,0.0,4.9653,4.9807,4.9925,5.0137,5.0948,5.1189,5.1037,5.1659,5.1889,5.1314,5.1935,5.2022,5.1742,5.1117,5.0982,5.1128,5.1128,5.1246,5.1325,5.1325,5.146,5.21,5.1656,5.1314,5.1439,5.1366,5.1056,5.0397,5.0262,5.0127,5.0126,0.0,0.0,0.0,0.0,0.0,0.0,0.0,0.0,0.0,0.0,0.0,0.0,0.0,0.0,0.0,0.0,0.0,2.9284,3.0897,3.2593,3.3817,3.4725,3.5393,3.5595,3.5465,3.5559,3.5966,3.6692,3.6622,3.699,3.7777,3.7391,3.6885,3.6404,3.5897,3.5516,3.5209,3.4412,3.4235,3.4469,3.3595,3.2659,3.1559,3.0298,2.8406,0.0,0.0,0.0,0.0,0.0,0.0,0.0,0.0,0.0,0.0,0.0,0.0,0.0,0.0,4.7658,4.8812,5.0174,5.1174,5.1849,5.197,5.1652,5.1391,5.1401,5.0478,4.9712,5.0021,4.9446,4.9092,4.9252,4.9298,4.9301,4.9132,4.9017,4.9135,4.9307,4.9135,0.0,0.0,0.0,0.0,5.0256,5.037,5.0427,5.0515,5.1086,5.1404,5.125,5.1737,5.1967,5.1926,5.2416,5.2132,5.1518,5.0914,5.0725,5.0914,5.0914,5.1122,5.1518,5.133,5.1555,5.21,5.1656,5.1314,5.1019,5.1366,5.0862,5.0242,5.0436,5.034,5.0319,0.0,0.0,0.0,0.0,0.0,0.0,0.0,0.0,0.0,0.0,0.0,0.0,0.0,0.0,0.0,0.0,0.0,0.0,2.9045,3.083,3.2211,3.2872,3.2667,3.2689,3.3028,3.2598,3.302,3.4151,3.4276,3.4986,3.6291,3.5157,3.4688,3.5093,3.3724,3.3202,3.3451,3.25,3.2223,3.2235,3.1157,2.9921,2.8725,2.6946,0.0,0.0,0.0,0.0,0.0,0.0,0.0,0.0,0.0,0.0,0.0,0.0,0.0,4.5474,4.7786,4.881,4.9694,5.139,5.222,5.2587,5.212,5.2104,5.183,5.0494,5.018,4.9998,0.0,0.0,4.8634,4.9549,4.9469,4.9142,4.9142,4.9147,4.9261,0.0,0.0,0.0,0.0,0.0,0.0,5.1127,0.0,5.0932,5.0932,5.1169,5.1621,5.207,5.2109,5.2519,5.3359,5.2773,5.217,5.1518,5.1122,5.1122,5.1518,5.1518,5.1518,5.1518,5.2157,5.195,5.1631,5.1656,5.1496,5.1,5.1366,5.1037,5.0842,5.1212,5.1152,5.0492,0.0,0.0,0.0,0.0,0.0,0.0,0.0,0.0,0.0,0.0,0.0,0.0,0.0,0.0,0.0,0.0,0.0,0.0,2.6924,2.832,2.9556,3.0367,3.1301,3.1796,3.1487,3.2038,3.2494,3.2544,3.3089,3.3447,3.3426,3.3381,3.2855,3.1731,3.128,3.0899,3.0451,2.9792,2.971,2.9806,0.0,2.8196,2.7521,0.0,0.0,0.0,0.0,0.0,0.0,0.0,0.0,0.0,0.0,0.0,3.9309,0.0,0.0,4.7293,4.9812,5.128,5.226,5.241,5.3116,5.3543,5.251,5.207,5.1589,5.0423,4.9513,4.8583,0.0,0.0,0.0,4.9145,4.9954,0.0,5.0073,5.0001,0.0,0.0,0.0,5.0909,5.1895,5.1982,0.0,0.0,5.2222,5.1768,5.1388,5.1711,5.2011,5.207,5.2383,5.2812,5.3359,5.3062,5.2865,5.2775,5.2176,5.1969,5.2176,5.2176,5.2176,5.2176,5.195,5.1763,5.1648,5.0936,5.0742,5.0602,5.0858,5.0842,5.0608,5.0494,5.0301,5.0089,0.0,0.0,0.0,0.0,0.0,0.0,0.0,0.0,0.0,0.0,0.0,0.0,0.0,0.0,0.0,0.0,0.0,0.0,0.0,2.6147,2.7041,2.7828,2.8635,2.8898,2.8408,2.9053,2.9355,2.9545,3.0019,3.039,3.092,3.0497,3.0193,2.952,2.9049,2.8668,2.8327,2.7689,2.744,0.0,0.0,0.0,0.0,0.0,0.0,0.0,0.0,0.0,0.0,0.0,0.0,3.385,3.617,3.9006,4.2007,4.5017,0.0,4.9669,5.1673,5.2764,5.3518,5.3399,5.3427,5.3228,5.2204,5.1545,5.0667,4.9429,4.8543,0.0,0.0,0.0,0.0,0.0,0.0,0.0,5.0694,5.0723,5.1012,0.0,5.1528,0.0,5.2723,5.2971,5.3199,0.0,5.2755,5.2138,5.1948,5.1963,5.2011,5.207,5.25,5.3008,5.3652,5.3081,5.2993,5.3185,5.2208,5.2132,5.2508,5.2317,5.2336,5.2508,0.0,5.1742,5.1293,5.1101,5.0686,5.0233,5.0413,5.0377,5.0319,4.9896,4.9818,4.9777,0.0,0.0,0.0,0.0,0.0,0.0,0.0,0.0,0.0,0.0,0.0,0.0,0.0,0.0,0.0,0.0,0.0,0.0,0.0,0.0,2.4967,2.548,2.5569,2.5452,2.5044,2.5248,2.574,2.6334,2.6471,2.7213,2.8599,2.7539,2.7258,2.7748,2.6713,2.6493,2.6687,2.592,2.5545,2.5342,0.0,0.0,0.0,0.0,0.0,0.0,0.0,0.0,0.0,0.0,3.5142,3.6493,3.8546,4.2137,4.5857,4.7548,4.9636,5.1771,5.3008,5.3529,5.3726,5.4111,5.3378,5.2425,5.1706,5.0787,4.9607,4.8149,0.0,4.7076,4.6529,4.7245,4.789,4.8422,0.0,5.0892,5.1473,5.1486,5.1717,5.2619,5.2292,5.2477,5.3323,5.3716,5.3944,5.3944,5.2979,5.2409,5.2409,5.2003,5.1836,5.2267,5.25,5.3086,5.3848,5.3052,5.2647,5.3217,5.1859,5.1706,5.2455,5.2089,5.2128,5.2455,0.0,0.0,5.0939,5.139,5.0953,4.9648,4.9931,4.9992,5.0069,4.9644,4.9466,4.9512,0.0,0.0,0.0,0.0,0.0,0.0,0.0,0.0,0.0,0.0,2.4131,2.3012,0.0,0.0,0.0,0.0,0.0,0.0,0.0,0.0,0.0,2.3971,2.4473,2.4511,2.4087,0.0,0.0,0.0,0.0,2.6429,2.6575,2.6761,2.6121,2.5016,2.4861,2.4568,2.3999,2.3568,2.3628,0.0,0.0,0.0,0.0,0.0,0.0,0.0,0.0,0.0,0.0,0.0,3.7263,3.9816,4.2591,4.5122,4.7272,4.9141,5.0465,5.1768,5.3022,5.352,5.3686,5.3918,5.3828,5.3158,5.1751,5.0277,0.0,0.0,0.0,4.6231,4.5855,4.7684,4.9437,5.0327,0.0,0.0,0.0,0.0,5.3028,0.0,0.0,0.0,0.0,0.0,0.0,0.0,0.0,0.0,5.3447,5.2952,5.2807,5.2679,5.2698,5.2773,5.293,5.2652,5.2652,5.2729,5.2574,5.2554,5.2613,5.2554,5.2554,5.2613,0.0,0.0,5.0516,5.064,5.0166,4.9271,4.9876,5.0011,5.0044,4.9597,4.9402,4.9473,0.0,0.0,0.0,0.0,0.0,0.0,0.0,0.0,2.3422,2.5209,2.5379,2.4777,2.339,2.2606,0.0,0.0,0.0,0.0,0.0,0.0,0.0,0.0,0.0,0.0,0.0,0.0,0.0,0.0,0.0,0.0,0.0,0.0,0.0,0.0,0.0,0.0,0.0,0.0,0.0,0.0,0.0,0.0,0.0,0.0,0.0,0.0,0.0,0.0,0.0,0.0,3.8432,4.1676,4.3831,4.6116,4.8183,4.978,5.1082,5.233,5.3495,5.4477,5.4817,5.4409,5.4198,5.3566,5.1447,0.0,0.0,0.0,0.0,4.5943,4.5503,0.0,0.0,0.0,0.0,0.0,0.0,0.0,0.0,0.0,0.0,0.0,0.0,0.0,0.0,0.0,0.0,0.0,5.376,5.3377,5.3,5.3246,5.2877,5.2896,5.3113,5.2698,5.25,5.2695,5.2266,5.2168,5.2383,5.2148,5.2168,5.2383,5.2185,0.0,5.0488,5.0853,5.0198,4.9219,4.9359,4.9641,4.9785,4.8982,4.8994,4.916,0.0,0.0,0.0,0.0,0.0,0.0,0.0,2.3979,2.4896,2.5772,2.6381,2.6091,2.4506,2.3183,2.2122,0.0,0.0,0.0,0.0,0.0,0.0,0.0,0.0,0.0,0.0,0.0,0.0,0.0,0.0,0.0,0.0,0.0,0.0,0.0,0.0,0.0,0.0,0.0,0.0,0.0,0.0,0.0,0.0,0.0,0.0,0.0,0.0,0.0,0.0,0.0,3.8398,4.1595,4.3237,4.588,4.8657,4.9902,5.1264,5.2625,5.3978,5.5066,5.5548,5.4915,5.4536,5.3743,5.1293,4.9777,0.0,0.0,4.6294,4.6048,4.5621,0.0,4.8031,0.0,4.9359,0.0,0.0,0.0,0.0,0.0,0.0,0.0,0.0,0.0,0.0,0.0,0.0,0.0,5.3951,5.3377,5.3346,5.369,5.3126,5.3111,5.3449,5.2719,5.2463,5.268,5.1816,5.162,5.1855,5.1308,5.1406,5.1816,5.1816,0.0,0.0,5.1095,5.0455,4.9242,4.9069,4.9098,4.9336,4.8633,4.8497,4.8682,0.0,0.0,0.0,0.0,0.0,0.0,0.0,2.3745,2.4863,2.7488,2.6408,2.5296,2.5118,2.4177,2.3017,0.0,0.0,0.0,0.0,0.0,0.0,0.0,0.0,0.0,0.0,0.0,0.0,0.0,0.0,0.0,0.0,0.0,0.0,0.0,0.0,0.0,0.0,0.0,0.0,0.0,0.0,0.0,0.0,0.0,0.0,0.0,0.0,0.0,0.0,0.0,0.0,3.808,4.0846,4.4598,4.8324,4.9157,0.0,0.0,5.401,5.4557,5.4845,5.5595,5.4994,5.3773,5.199,0.0,0.0,4.7298,4.7098,4.7241,4.6654,0.0,0.0,0.0,0.0,5.1572,0.0,0.0,0.0,0.0,0.0,0.0,0.0,0.0,0.0,0.0,0.0,0.0,0.0,5.3951,5.378,5.3821,5.3245,5.3073,5.3113,5.288,5.268,5.2319,5.1857,5.1428,5.1071,5.0483,5.0527,5.0918,0.0,0.0,0.0,5.0842,5.0222,4.9415,4.9331,4.9277,4.8906,4.8867,4.8497,4.8127,0.0,0.0,0.0,0.0,0.0,0.0,2.3961,2.5107,2.6344,2.784,2.7718,2.6852,2.5345,2.468,2.3504,0.0,0.0,0.0,0.0,0.0,0.0,0.0,0.0,0.0,0.0,0.0,0.0,0.0,0.0,0.0,0.0,0.0,0.0,0.0,0.0,0.0,0.0,0.0,0.0,0.0,0.0,0.0,0.0,0.0,0.0,0.0,0.0,0.0,0.0,0.0,0.0,0.0,3.8291,4.1825,0.0,0.0,5.0057,5.2047,5.4322,5.6001,5.7208,5.6941,5.6313,5.5409,5.2949,0.0,4.9582,4.8185,4.7652,4.7413,4.7607,4.7584,4.7975,4.896,4.931,4.987,5.1487,0.0,0.0,0.0,0.0,0.0,0.0,0.0,0.0,0.0,0.0,0.0,0.0,5.4189,5.4142,5.4142,5.376,5.3447,5.2971,5.2781,5.2369,5.1926,5.134,5.1071,5.0893,5.0365,5.0273,5.043,0.0,0.0,0.0,5.0025,4.9544,4.8973,4.911,4.9023,4.8848,4.8497,4.8312,4.7941,0.0,0.0,0.0,0.0,0.0,2.2597,2.4273,2.5657,2.6869,2.775,2.8012,2.7336,2.529,2.4461,2.3274,2.1303,0.0,0.0,0.0,0.0,0.0,0.0,0.0,0.0,0.0,0.0,0.0,0.0,0.0,0.0,0.0,0.0,0.0,0.0,0.0,0.0,0.0,0.0,0.0,0.0,0.0,0.0,0.0,0.0,0.0,0.0,0.0,0.0,0.0,0.0,0.0,0.0,0.0,0.0,0.0,0.0,4.9602,5.2097,5.493,5.7124,5.8517,5.8125,5.7358,5.6327,0.0,0.0,5.0432,4.9067,4.8379,4.7996,4.8257,4.7885,4.7701,4.8315,4.8543,4.9135,5.0327,5.0925,0.0,0.0,0.0,0.0,0.0,0.0,0.0,0.0,0.0,0.0,0.0,5.4237,5.4381,5.4337,5.3813,5.3398,5.3071,5.2694,5.2282,5.1837,5.1443,5.1009,5.0703,5.0161,5.0051,4.998,0.0,0.0,0.0,4.9519,4.9324,4.8911,4.8838,4.8867,4.8867,4.8312,4.7941,4.7755,0.0,0.0,0.0,0.0,0.0,0.0,0.0,2.4879,2.5832,2.732,2.6742,2.5823,2.4882,2.3295,2.2224,2.1918,0.0,0.0,0.0,0.0,0.0,0.0,0.0,0.0,0.0,0.0,0.0,0.0,0.0,0.0,0.0,0.0,0.0,0.0,0.0,0.0,0.0,0.0,0.0,0.0,0.0,0.0,0.0,0.0,0.0,0.0,0.0,0.0,0.0,0.0,0.0,0.0,0.0,0.0,4.1988,0.0,4.9121,5.2241,5.5785,5.7052,5.7791,5.9134,5.7904,5.5969,0.0,0.0,5.1718,4.9816,4.9445,4.9352,4.8463,4.8291,4.8249,4.8269,4.876,4.9516,5.072,0.0,0.0,0.0,0.0,0.0,0.0,0.0,0.0,0.0,0.0,0.0,0.0,5.4379,5.4293,5.384,5.3427,5.3199,5.3199,5.3199,5.295,5.2495,5.1924,5.1127,5.0357,4.9807,4.9492,0.0,0.0,0.0,0.0,4.9707,4.9531,4.9473,4.9043,4.8867,4.8867,4.8312,4.7774,4.7382,0.0,0.0,0.0,0.0,0.0,0.0,0.0,2.3597,2.4614,2.5014,2.494,2.4667,2.4316,2.3069,2.2194,2.1918,0.0,0.0,0.0,0.0,0.0,0.0,0.0,0.0,0.0,0.0,2.4736,2.5523,2.6857,0.0,0.0,0.0,0.0,0.0,0.0,0.0,0.0,0.0,0.0,0.0,0.0,0.0,0.0,0.0,0.0,0.0,0.0,0.0,0.0,0.0,0.0,0.0,0.0,0.0,0.0,4.4277,0.0,0.0,5.4317,5.642,5.8071,5.7988,5.7266,5.6131,5.4426,0.0,5.158,4.9931,4.9586,4.9506,4.9421,4.867,4.8707,5.0764,5.0677,5.0962,0.0,0.0,0.0,0.0,0.0,0.0,0.0,0.0,0.0,0.0,0.0,0.0,0.0,5.4081,5.4013,5.3922,5.3797,5.3382,5.2723,5.2702,5.2474,5.2019,5.1452,5.1188,5.0884,4.9971,0.0,0.0,0.0,0.0,0.0,4.9121,4.9062,4.9023,4.8574,4.8418,4.8235,4.75,4.6966,4.6819,0.0,0.0,0.0,0.0,0.0,0.0,0.0,2.2443,2.3111,2.3522,2.3437,2.3367,2.3366,2.2474,2.189,2.1888,0.0,0.0,0.0,0.0,0.0,0.0,0.0,0.0,0.0,2.3558,2.4941,2.6347,2.7423,2.7865,2.7765,2.76,0.0,0.0,0.0,0.0,0.0,0.0,0.0,0.0,0.0,0.0,2.4425,0.0,0.0,0.0,0.0,0.0,0.0,0.0,0.0,0.0,0.0,0.0,0.0,0.0,0.0,0.0,0.0,5.5746,5.7473,5.7678,5.6964,0.0,0.0,0.0,5.1715,5.068,5.0279,5.0153,4.9949,4.9356,4.945,5.0953,0.0,0.0,0.0,0.0,0.0,0.0,0.0,0.0,0.0,0.0,0.0,0.0,0.0,0.0,0.0,0.0,5.4165,5.3899,5.3738,5.3247,5.259,5.259,5.2444,5.1972,5.1791,5.1429,5.1066,5.0519,0.0,0.0,0.0,0.0,0.0,4.8875,4.8797,4.8574,4.8144,4.7969,4.7807,4.7068,4.6758,4.6611,0.0,0.0,0.0,0.0,0.0,0.0,0.0,0.0,2.1408,2.2505,2.2197,2.197,2.2195,2.1587,2.1334,2.1751,0.0,0.0,0.0,0.0,0.0,0.0,0.0,0.0,0.0,2.3789,2.5139,2.7197,2.7614,2.789,2.8057,2.8261,2.7055,0.0,0.0,0.0,0.0,0.0,0.0,0.0,0.0,0.0,0.0,0.0,0.0,0.0,0.0,0.0,0.0,0.0,0.0,0.0,0.0,0.0,0.0,0.0,0.0,0.0,0.0,0.0,0.0,0.0,0.0,0.0,0.0,0.0,0.0,5.1783,5.146,5.0921,5.0237,5.0156,5.0132,0.0,0.0,0.0,0.0,0.0,0.0,0.0,0.0,0.0,0.0,0.0,0.0,0.0,0.0,0.0,0.0,0.0,5.441,5.3835,5.348,5.2966,5.245,5.2787,5.2766,5.2408,5.2408,5.1868,5.0964,5.0964,0.0,0.0,0.0,0.0,0.0,4.8906,4.8547,4.8125,4.7695,4.7539,4.7398,4.6934,4.672,4.6536,0.0,0.0,0.0,0.0,0.0,0.0,0.0,0.0,0.0,0.0,2.0947,2.1079,2.1503,2.1214,2.0987,0.0,0.0,0.0,0.0,0.0,0.0,0.0,0.0,0.0,0.0,2.3716,2.5295,2.7126,2.8119,2.8961,2.9572,2.9056,2.7814,2.6069,2.472,0.0,0.0,0.0,0.0,0.0,0.0,0.0,0.0,0.0,0.0,0.0,2.3577,2.4731,0.0,0.0,0.0,0.0,0.0,0.0,0.0,0.0,4.4044,0.0,0.0,0.0,0.0,0.0,0.0,0.0,0.0,0.0,0.0,0.0,0.0,5.1405,5.1398,5.0499,5.0439,0.0,0.0,0.0,0.0,0.0,0.0,0.0,0.0,0.0,0.0,0.0,0.0,0.0,0.0,0.0,0.0,0.0,5.3757,5.2887,5.3039,5.3016,5.25,5.1984,5.1463,5.1463,5.1089,5.0736,5.0558,5.0203,0.0,0.0,0.0,0.0,4.8887,4.8272,4.7915,4.7695,4.7246,4.709,4.6951,4.6838,4.6629,4.614,0.0,0.0,0.0,0.0,0.0,0.0,0.0,0.0,0.0,0.0,0.0,0.0,0.0,0.0,0.0,0.0,0.0,0.0,0.0,0.0,0.0,0.0,0.0,0.0,2.2179,2.3303,2.4848,2.6893,2.7594,2.8466,2.9542,2.8973,2.7679,2.578,2.4165,0.0,0.0,0.0,0.0,0.0,0.0,0.0,0.0,0.0,0.0,0.0,2.3414,2.4581,0.0,2.8213,3.0173,3.2266,0.0,0.0,0.0,0.0,4.2558,4.4679,4.7344,5.0285,5.2673,5.3269,0.0,0.0,0.0,0.0,0.0,0.0,0.0,5.1632,5.1351,0.0,0.0,0.0,0.0,0.0,0.0,0.0,0.0,0.0,0.0,0.0,0.0,0.0,0.0,0.0,0.0,0.0,0.0,0.0,5.3321,5.2888,5.2821,5.2779,5.2559,5.2128,5.1826,5.1477,5.1127,5.0777,5.0425,5.0052,0.0,0.0,0.0,0.0,4.8992,4.8196,4.782,4.7603,4.6816,4.6641,4.6719,4.6787,4.6476,4.617,0.0,0.0,0.0,0.0,0.0,0.0,0.0,0.0,0.0,0.0,0.0,0.0,0.0,0.0,0.0,0.0,0.0,0.0,0.0,0.0,0.0,0.0,0.0,2.1775,2.244,2.2867,2.4252,2.6643,2.6899,2.7623,2.8928,2.8693,2.7283,2.4844,2.3179,2.196,0.0,0.0,0.0,0.0,0.0,0.0,0.0,0.0,0.0,0.0,0.0,0.0,0.0,2.8685,3.0783,3.2608,3.442,0.0,0.0,0.0,0.0,0.0,4.641,4.9587,5.2192,5.3217,5.3894,0.0,0.0,0.0,0.0,0.0,0.0,0.0,0.0,0.0,0.0,0.0,0.0,0.0,0.0,0.0,0.0,0.0,0.0,0.0,0.0,0.0,0.0,0.0,0.0,0.0,0.0,0.0,0.0,5.2992,5.2599,5.2385,5.2218,5.2627,5.2477,5.1592,5.1418,5.1092,5.0218,5.0218,0.0,0.0,0.0,0.0,4.8888,4.8446,4.7914,4.7502,4.6621,4.6308,4.6387,4.6632,4.6419,4.5989,0.0,0.0,0.0,0.0,0.0,0.0,0.0,0.0,0.0,0.0,0.0,0.0,0.0,0.0,0.0,0.0,0.0,0.0,0.0,0.0,0.0,0.0,2.1302,2.1666,2.3117,2.3,2.4043,2.6256,2.7342,2.8307,2.9098,2.9361,2.7687,2.441,2.2789,2.1189,1.9727,0.0,0.0,0.0,0.0,0.0,0.0,0.0,0.0,0.0,0.0,0.0,0.0,2.8061,3.0172,3.2434,3.4011,0.0,0.0,0.0,0.0,0.0,4.7541,4.9986,5.1427,5.1692,5.2988,5.3997,0.0,0.0,0.0,0.0,0.0,0.0,0.0,0.0,0.0,0.0,0.0,0.0,0.0,0.0,0.0,0.0,0.0,0.0,0.0,0.0,0.0,0.0,0.0,0.0,0.0,0.0,0.0,5.2031,5.1944,5.1747,5.1231,5.1455,5.1144,5.0613,5.0294,4.9781,4.9266,4.9266,4.9494,0.0,0.0,4.878,4.8952,4.7809,4.7106,4.7086,4.6503,4.6308,4.6367,4.6659,4.653,4.5951,0.0,0.0,0.0,0.0,0.0,0.0,0.0,0.0,0.0,0.0,0.0,0.0,0.0,0.0,0.0,0.0,0.0,0.0,0.0,0.0,0.0,2.3222,2.2902,2.2878,2.324,2.3564,2.4848,2.701,2.7806,2.8647,2.94,2.8032,2.626,2.4047,2.2308,2.0739,1.9403,0.0,0.0,0.0,0.0,0.0,0.0,0.0,0.0,0.0,0.0,0.0,0.0,0.0,3.0427,3.2591,3.3943,0.0,0.0,0.0,0.0,0.0,4.5874,4.8381,5.0182,5.1088,5.3214,5.4979,5.4164,0.0,0.0,0.0,0.0,0.0,0.0,0.0,0.0,0.0,0.0,0.0,0.0,0.0,0.0,0.0,0.0,0.0,0.0,0.0,0.0,0.0,0.0,0.0,0.0,0.0,0.0,0.0,5.1791,5.1572,5.107,5.1122,5.0876,5.0353,5.0207,4.9829,4.9401,4.9401,4.9355,4.9369,0.0,4.8839,4.8658,4.7782,4.7181,4.7007,4.6483,4.6308,4.6348,4.6423,4.6293,4.5894,0.0,0.0,0.0,0.0,0.0,0.0,0.0,0.0,0.0,0.0,0.0,0.0,0.0,0.0,0.0,0.0,0.0,0.0,0.0,0.0,2.2928,2.4113,2.429,2.4307,2.4192,2.4786,2.6075,2.811,2.854,2.9057,2.9551,2.6862,2.4895,2.3555,2.1745,2.0247,1.9039,1.896,1.8927,0.0,0.0,0.0,0.0,0.0,0.0,0.0,0.0,0.0,0.0,0.0,0.0,0.0,0.0,0.0,0.0,3.9277,4.0387,4.1874,4.4857,4.7378,4.9481,5.1174,0.0,5.5652,5.4971,0.0,0.0,0.0,0.0,0.0,0.0,0.0,0.0,0.0,0.0,0.0,0.0,0.0,0.0,0.0,0.0,0.0,0.0,0.0,0.0,0.0,0.0,0.0,0.0,0.0,0.0,0.0,5.1507,5.1223,5.0742,5.0742,5.0622,5.0213,5.0048,4.9908,4.9406,4.9237,4.913,4.8914,4.8914,4.8784,4.8372,4.7874,4.7354,4.7007,4.6483,4.6308,4.6348,4.6246,4.5999,4.5792,0.0,0.0,0.0,0.0,0.0,0.0,0.0,0.0,0.0,0.0,0.0,0.0,0.0,0.0,0.0,0.0,0.0,0.0,0.0,0.0,2.3022,2.3163,2.4253,2.5611,2.7173,2.7029,2.7626,2.9177,2.9792,2.9888,2.9493,2.7031,2.481,2.283,2.1238,1.961,1.8007,1.794,1.8255,0.0,0.0,0.0,0.0,0.0,0.0,0.0,0.0,0.0,0.0,0.0,0.0,0.0,0.0,0.0,3.8839,4.065,4.1625,4.2906,4.6832,4.8619,4.997,5.2218,5.3867,0.0,5.5156,5.5472,0.0,0.0,0.0,0.0,0.0,0.0,0.0,0.0,0.0,0.0,0.0,0.0,0.0,0.0,0.0,0.0,0.0,0.0,0.0,0.0,0.0,0.0,0.0,0.0,0.0,0.0,0.0,5.0196,4.9737,4.9737,4.9794,4.976,4.9246,4.8916,4.8441,4.7942,4.8024,4.8417,4.8417,4.8495,4.8372,4.7874,4.7354,4.7007,4.6483,4.6308,4.6348,4.6246,4.5636,4.5034,0.0,0.0,0.0,0.0,0.0,0.0,0.0,0.0,0.0,0.0,0.0,0.0,0.0,0.0,0.0,0.0,0.0,0.0,0.0,0.0,2.3933,2.4759,2.559,2.6525,2.7624,2.8039,2.9247,3.1314,3.0856,3.0367,3.0013,2.6723,2.4572,2.3317,2.131,1.9923,1.9045,1.8325,1.8697,1.9711,1.8908,0.0,0.0,0.0,0.0,0.0,0.0,0.0,0.0,0.0,2.9708,3.2085,3.3607,3.6043,3.8552,3.9787,4.0653,4.1792,4.4409,4.6517,4.8592,5.0722,5.2769,0.0,0.0,5.5831,5.6482,0.0,0.0,0.0,0.0,0.0,0.0,0.0,0.0,0.0,0.0,0.0,0.0,0.0,0.0,0.0,0.0,0.0,0.0,0.0,0.0,0.0,0.0,0.0,0.0,0.0,0.0,5.0087,4.9628,4.9628,4.9402,4.8812,4.8952,4.8904,4.8688,4.8357,4.7963,4.7626,4.7935,4.763,4.7127,4.7235,4.7007,4.6483,4.6308,4.6308,4.6328,4.5956,4.5388,4.4921,0.0,0.0,0.0,0.0,0.0,0.0,0.0,0.0,0.0,0.0,0.0,0.0,0.0,0.0,0.0,0.0,0.0,0.0,2.3875,2.4024,2.4471,2.5257,2.5841,2.6553,2.7367,2.8421,2.9895,3.1713,3.0972,3.01,2.9111,2.6444,2.4758,2.3773,2.1805,2.0669,2.0182,1.8869,1.903,2.0135,1.937,1.9615,0.0,0.0,0.0,0.0,0.0,0.0,0.0,0.0,2.9568,3.196,3.3536,3.5817,3.8159,3.9145,4.046,4.1714,4.2956,4.5375,4.7958,0.0,0.0,0.0,5.5431,5.6319,5.7167,0.0,0.0,0.0,0.0,0.0,0.0,0.0,0.0,0.0,0.0,0.0,0.0,0.0,0.0,0.0,0.0,0.0,0.0,0.0,0.0,0.0,0.0,0.0,0.0,0.0,0.0,4.965,4.917,4.917,4.8771,4.782,4.7985,4.8157,4.8429,4.7937,4.7341,4.6821,4.7147,4.6695,4.5983,4.6279,4.6052,4.5744,4.6017,4.6036,4.5939,4.5725,4.5255,4.4548,0.0,0.0,0.0,0.0,0.0,0.0,0.0,0.0,0.0,0.0,0.0,0.0,0.0,0.0,0.0,0.0,0.0,0.0,2.5278,2.4855,2.4491,2.4282,2.4731,2.5486,2.6414,2.815,2.9351,2.9865,3.0121,2.892,2.6495,2.6249,2.5412,2.3948,2.2606,2.1741,2.1159,1.9307,1.9001,1.9808,1.9803,2.0085,0.0,0.0,0.0,0.0,0.0,0.0,0.0,0.0,2.9968,3.0984,3.4598,3.6445,3.7619,3.9229,4.1327,4.3092,4.3353,4.5683,0.0,0.0,0.0,0.0,5.5532,5.6975,5.7996,0.0,0.0,0.0,0.0,0.0,0.0,0.0,0.0,0.0,0.0,0.0,0.0,0.0,0.0,0.0,0.0,0.0,0.0,0.0,0.0,0.0,0.0,0.0,0.0,0.0,0.0,0.0,4.8165,4.8165,4.7791,4.6871,4.6386,4.6405,4.7014,4.6509,4.6249,4.6331,4.6351,4.5931,4.498,4.498,4.464,4.4395,4.5261,4.5337,4.503,4.5453,4.5078,4.4193,0.0,0.0,0.0,0.0,0.0,0.0,0.0,0.0,0.0,0.0,0.0,0.0,0.0,0.0,0.0,0.0,0.0,0.0,2.4277,2.4091,2.3799,2.3243,2.4088,2.4536,2.4373,2.5371,2.7062,2.9397,2.8924,2.7931,2.6552,2.5299,2.4476,2.4046,2.3293,2.2464,2.1485,2.0229,2.0043,2.0528,2.0103,2.0301,2.1011,0.0,0.0,0.0,0.0,0.0,0.0,0.0,0.0,0.0,3.3431,3.6175,3.8471,3.8387,4.004,4.1937,4.1708,4.3704,0.0,0.0,0.0,0.0,0.0,5.682,0.0,0.0,0.0,0.0,0.0,0.0,0.0,0.0,0.0,0.0,0.0,0.0,0.0,0.0,0.0,0.0,0.0,0.0,0.0,0.0,0.0,0.0,0.0,0.0,0.0,0.0,0.0,0.0,4.7684,4.8012,4.7614,4.6386,4.623,4.6236,4.651,4.5711,4.5474,4.5411,4.5403,4.4936,4.4064,4.4032,4.3976,4.3823,4.409,4.428,4.4451,4.4215,4.4108,4.4193,0.0,0.0,0.0,0.0,0.0,0.0,0.0,0.0,0.0,0.0,2.2849,0.0,0.0,0.0,0.0,0.0,0.0,0.0,0.0,2.3709,2.3275,2.2733,2.342,2.391,2.4029,2.4735,2.5724,2.6909,2.6878,2.6374,2.5381,2.5136,2.4998,2.494,2.445,2.3824,2.3098,2.1676,2.1264,2.1448,2.1361,2.1388,2.1681,0.0,0.0,0.0,0.0,0.0,0.0,0.0,0.0,0.0,3.2901,3.5223,3.7303,3.8018,3.9789,4.163,4.212,0.0,0.0,0.0,0.0,0.0,0.0,0.0,0.0,0.0,0.0,0.0,0.0,0.0,0.0,0.0,0.0,0.0,0.0,0.0,0.0,0.0,0.0,0.0,0.0,0.0,0.0,0.0,0.0,0.0,0.0,0.0,0.0,0.0,0.0,0.0,4.7204,4.7312,4.6742,4.5656,4.5502,4.5448,4.5461,4.518,4.4947,4.4902,4.4336,4.362,4.3136,4.3065,4.2951,4.3008,4.3348,4.3518,4.3458,4.3603,4.3727,4.3616,0.0,0.0,0.0,0.0,0.0,0.0,0.0,0.0,0.0,0.0,2.2237,2.2568,0.0,0.0,0.0,0.0,0.0,0.0,0.0,0.0,2.2936,2.2446,2.2854,2.3593,2.4719,2.5296,2.4838,2.3297,2.4442,2.4505,2.354,2.5349,2.6212,2.618,2.5756,2.5383,2.5026,2.3272,2.2419,2.2315,2.3027,2.2949,2.2583,2.3823,0.0,0.0,0.0,0.0,0.0,0.0,0.0,0.0,3.2738,3.3934,3.5135,3.7868,4.0041,4.1931,4.3704,0.0,0.0,0.0,0.0,0.0,0.0,0.0,0.0,0.0,0.0,0.0,0.0,0.0,0.0,0.0,0.0,0.0,0.0,0.0,0.0,0.0,0.0,0.0,0.0,0.0,0.0,0.0,0.0,0.0,0.0,0.0,0.0,0.0,0.0,0.0,4.6679,4.6204,4.5685,0.0,4.431,4.4259,4.4339,4.4693,4.4845,4.4658,4.3048,4.2402,4.2273,4.1804,4.173,4.177,4.2553,4.2646,4.2252,4.2994,4.3116,4.27,0.0,0.0,0.0,0.0,0.0,0.0,0.0,0.0,0.0,0.0,0.0,0.0,0.0,0.0,0.0,0.0,0.0,0.0,0.0,0.0,2.2539,2.164,2.2988,2.3803,2.409,2.3638,2.3128,2.2647,2.3755,2.415,2.3774,2.4925,2.5528,2.5733,2.561,2.4779,2.3462,2.2705,2.2279,2.2261,2.3076,2.3372,2.3438,2.4654,2.4517,0.0,0.0,0.0,0.0,0.0,0.0,0.0,3.2658,3.4427,3.5884,3.6985,3.9219,4.148,0.0,4.4117,0.0,0.0,0.0,0.0,0.0,0.0,0.0,0.0,0.0,0.0,0.0,0.0,0.0,0.0,0.0,0.0,0.0,0.0,0.0,0.0,0.0,0.0,0.0,0.0,0.0,0.0,0.0,0.0,0.0,0.0,0.0,4.633,4.6701,4.6658,4.6155,4.5878,4.5363,0.0,4.3994,4.3945,4.4319,4.3725,4.33,4.2915,4.2914,4.255,4.1882,4.1807,4.1452,4.1247,4.1413,4.1464,4.1341,4.1505,4.1431,4.123,0.0,0.0,0.0,0.0,0.0,0.0,0.0,0.0,0.0,0.0,0.0,0.0,0.0,0.0,0.0,0.0,0.0,0.0,0.0,0.0,2.2456,2.2433,2.3083,2.3416,2.3393,2.288,2.2364,2.1813,2.2886,2.3529,2.3754,2.4713,2.5491,2.611,2.6019,2.5397,2.441,2.3879,2.356,2.349,2.4315,2.4342,2.4165,2.5475,2.5276,0.0,0.0,0.0,0.0,0.0,0.0,0.0,0.0,0.0,3.4911,3.69,3.8855,0.0,0.0,0.0,0.0,4.9438,0.0,0.0,0.0,0.0,0.0,0.0,0.0,0.0,0.0,0.0,0.0,0.0,0.0,0.0,0.0,0.0,0.0,0.0,0.0,0.0,0.0,0.0,0.0,0.0,0.0,0.0,0.0,4.6523,4.6264,4.6002,4.6024,4.5788,4.5357,4.5082,4.4635,4.4165,4.3694,4.3491,4.3351,4.3331,4.3101,4.276,4.2499,4.2212,4.2049,4.1546,4.121,4.1079,4.128,4.1312,4.1378,4.176,4.1666,4.1372,0.0,0.0,0.0,0.0,0.0,0.0,0.0,0.0,0.0,0.0,0.0,0.0,0.0,0.0,0.0,0.0,0.0,0.0,0.0,0.0,0.0,2.3479,2.3223,2.3013,2.296,2.2519,2.2018,2.1541,2.2258,0.0,0.0,0.0,2.5737,2.6642,2.631,2.6052,2.5828,2.5182,2.4867,2.4852,2.5492,2.5283,2.4853,2.6091,0.0,0.0,0.0,0.0,0.0,0.0,0.0,0.0,0.0,0.0,3.3696,3.6996,3.8468,0.0,0.0,0.0,4.6508,4.9866,5.1601,0.0,0.0,0.0,0.0,0.0,0.0,0.0,0.0,0.0,0.0,0.0,0.0,0.0,0.0,0.0,0.0,0.0,0.0,0.0,0.0,0.0,0.0,0.0,0.0,0.0,4.6227,4.591,4.5762,4.5762,4.5391,4.5026,4.4564,4.408,4.3637,4.3404,4.3414,4.3034,4.2289,4.3094,4.3121,4.2806,4.2067,4.2004,4.2235,4.1565,4.1229,4.1097,4.1445,4.1403,4.1494,4.196,4.1846,4.1372,0.0,0.0,0.0,0.0,0.0,0.0,0.0,0.0,0.0,0.0,2.1337,0.0,0.0,0.0,0.0,0.0,0.0,0.0,0.0,0.0,0.0,2.3213,2.3095,2.3224,2.3675,2.2073,2.1855,2.2937,2.2657,0.0,0.0,0.0,0.0,2.6404,0.0,2.5391,2.4968,2.4386,2.4328,2.4667,2.488,2.5169,2.5501,0.0,0.0,0.0,0.0,0.0,0.0,0.0,0.0,0.0,0.0,0.0,0.0,0.0,0.0,0.0,0.0,0.0,4.5677,0.0,5.008,5.0955,0.0,0.0,0.0,0.0,0.0,0.0,0.0,0.0,0.0,0.0,0.0,0.0,0.0,0.0,0.0,0.0,0.0,0.0,0.0,0.0,0.0,0.0,0.0,0.0,4.4924,4.4779,4.4779,4.4779,4.4713,4.4547,4.409,4.3248,4.2979,4.2942,4.2658,4.2281,4.1847,4.2022,4.2073,4.1914,4.226,4.2169,4.1695,4.1714,4.1378,4.106,4.0796,4.0305,3.9965,3.9559,3.9251,3.8787,0.0,0.0,0.0,0.0,0.0,0.0,0.0,0.0,0.0,0.0,0.0,2.0597,0.0,0.0,0.0,0.0,0.0,0.0,0.0,0.0,0.0,2.3047,2.2766,2.2591,2.2743,2.1893,2.1795,2.2523,0.0,0.0,0.0,2.671,2.7265,0.0,0.0,0.0,0.0,2.5055,2.4779,2.4897,2.5007,2.5934,0.0,0.0,0.0,0.0,0.0,0.0,0.0,0.0,0.0,0.0,0.0,0.0,0.0,0.0,0.0,0.0,4.0408,4.2802,4.5102,0.0,4.9014,4.9614,0.0,0.0,0.0,0.0,0.0,0.0,0.0,0.0,0.0,0.0,0.0,0.0,0.0,0.0,0.0,0.0,0.0,0.0,0.0,0.0,0.0,0.0,0.0,4.5158,4.487,4.4727,4.4582,4.4582,4.432,4.3903,4.3328,4.2826,4.2665,4.2564,4.2126,4.1898,4.1766,4.1594,4.1661,4.1791,4.1733,4.1663,4.1729,4.1453,4.121,4.1079,4.0808,4.0539,4.0404,4.0101,3.9826,3.9322,0.0,0.0,0.0,0.0,0.0,0.0,0.0,0.0,0.0,0.0,0.0,0.0,0.0,0.0,0.0,0.0,0.0,0.0,0.0,0.0,0.0,2.2663,2.2207,2.193,2.1862,2.1578,2.1777,0.0,0.0,0.0,2.7142,2.8241,2.9286,0.0,2.8519,0.0,0.0,0.0,0.0,2.596,0.0,0.0,0.0,0.0,0.0,0.0,0.0,0.0,0.0,0.0,0.0,0.0,0.0,0.0,0.0,0.0,0.0,0.0,0.0,0.0,4.3505,4.6589,4.7855,4.8569,0.0,0.0,0.0,0.0,0.0,0.0,0.0,0.0,0.0,0.0,0.0,0.0,0.0,0.0,0.0,0.0,0.0,0.0,0.0,0.0,0.0,0.0,0.0,4.4604,4.4463,4.4179,4.4036,4.4036,4.3796,4.324,4.255,4.2407,4.2144,4.1771,4.1481,4.1314,4.1434,4.0955,4.1074,4.1503,4.1246,4.1235,4.1466,4.123,4.106,4.0928,4.071,4.0647,4.0511,4.0122,3.9861,3.9512,0.0,0.0,0.0,0.0,0.0,0.0,0.0,0.0,0.0,0.0,0.0,0.0,0.0,0.0,0.0,1.9686,1.986,2.0293,2.12,2.1452,2.1656,2.1949,2.1473,0.0,2.1698,2.0937,2.1366,0.0,0.0,0.0,2.8769,3.0123,3.1793,3.3386,3.0971,2.9894,2.9911,0.0,0.0,0.0,0.0,0.0,0.0,0.0,0.0,0.0,0.0,0.0,0.0,0.0,0.0,0.0,0.0,0.0,0.0,0.0,0.0,0.0,0.0,3.8323,0.0,4.3718,4.6424,0.0,0.0,0.0,0.0,0.0,0.0,0.0,0.0,0.0,0.0,0.0,0.0,0.0,0.0,0.0,0.0,0.0,0.0,0.0,0.0,0.0,0.0,0.0,0.0,4.2941,4.2529,4.2529,4.2529,4.2529,4.2666,4.2462,4.2039,4.1331,4.0781,4.0391,4.0383,4.0532,4.0504,4.0179,4.0144,4.0586,4.0972,4.1072,4.1136,4.1063,4.0892,4.0403,3.9894,3.9572,3.906,3.8031,3.7686,3.7686,0.0,0.0,0.0,0.0,0.0,0.0,0.0,0.0,0.0,0.0,0.0,0.0,0.0,2.0267,2.0016,1.984,2.0161,2.057,2.1026,2.1302,2.1643,2.2185,2.1588,2.1439,2.1675,2.1308,0.0,0.0,0.0,2.5602,2.8211,2.9815,3.1657,3.3406,3.1135,3.0574,3.1125,2.8274,0.0,0.0,0.0,0.0,0.0,0.0,0.0,0.0,0.0,0.0,0.0,0.0,0.0,0.0,0.0,0.0,0.0,0.0,0.0,0.0,0.0,0.0,0.0,4.1911,4.408,4.5809,0.0,0.0,0.0,0.0,0.0,0.0,0.0,0.0,0.0,0.0,0.0,0.0,0.0,0.0,0.0,0.0,0.0,0.0,0.0,0.0,0.0,0.0,0.0,0.0,4.1961,4.1939,4.1825,4.1711,4.1726,4.155,4.1291,4.0751,4.0451,4.074,4.0772,4.0753,4.0784,4.0432,4.0219,4.0078,4.0189,4.0366,4.0372,3.996,3.9938,4.0006,3.9165,3.8985,3.8854,3.798,3.7619,3.7464,0.0,0.0,0.0,0.0,0.0,0.0,0.0,0.0,0.0,0.0,0.0,0.0,0.0,0.0,2.0806,2.0547,2.0904,2.1113,2.1174,2.1391,2.1711,2.2168,2.1748,2.156,2.1597,2.1541,0.0,0.0,0.0,0.0,0.0,2.9603,3.1382,3.3034,3.109,3.1244,0.0,0.0,0.0,3.0354,0.0,0.0,3.3743,0.0,0.0,0.0,0.0,0.0,0.0,0.0,0.0,0.0,0.0,0.0,0.0,0.0,0.0,0.0,3.2818,0.0,0.0,0.0,0.0,4.2849,0.0,0.0,0.0,0.0,0.0,0.0,0.0,0.0,0.0,0.0,0.0,0.0,0.0,0.0,0.0,0.0,0.0,0.0,0.0,0.0,0.0,0.0,0.0,0.0,4.1352,4.1505,4.1277,4.1044,4.118,4.0921,4.041,4.0417,4.0365,4.037,4.0549,4.0484,4.0334,3.999,3.9793,3.9764,3.9571,3.9456,3.9443,3.934,3.9389,3.9289,3.8926,3.8628,3.8512,3.7636,3.7291,3.7135,0.0,0.0,0.0,0.0,0.0,0.0,0.0,0.0,0.0,0.0,0.0,0.0,0.0,0.0,0.0,2.1797,2.2038,2.2012,2.1666,2.181,2.1847,2.1769,2.1828,2.1752,2.1353,2.1495,0.0,0.0,0.0,0.0,0.0,0.0,3.1238,3.2738,3.1152,3.2351,3.5211,0.0,3.2706,3.3329,0.0,3.4824,3.4657,0.0,0.0,0.0,4.0119,3.9796,0.0,0.0,0.0,0.0,0.0,0.0,0.0,0.0,0.0,0.0,0.0,0.0,0.0,0.0,0.0,0.0,0.0,0.0,0.0,0.0,0.0,0.0,0.0,0.0,0.0,0.0,0.0,0.0,0.0,0.0,0.0,0.0,0.0,0.0,0.0,0.0,0.0,0.0,0.0,4.0777,4.0777,4.0848,4.0774,4.0571,4.0843,4.0571,3.9516,4.0229,4.0179,3.907,3.9513,3.9445,3.924,3.8823,3.8817,3.9254,3.8798,3.854,3.8617,3.9411,3.9253,3.8467,3.885,3.8477,3.7619,3.7119,3.6789,3.635,0.0,0.0,0.0,0.0,0.0,0.0,0.0,0.0,0.0,0.0,0.0,0.0,0.0,0.0,2.313,2.3392,2.3612,2.3547,2.3021,2.2886,2.2968,2.3164,2.2321,2.1862,2.2006,2.1479,2.1611,0.0,0.0,0.0,0.0,0.0,0.0,0.0,3.1842,3.2875,3.4217,3.1422,0.0,0.0,3.5504,3.6247,0.0,0.0,0.0,0.0,0.0,4.2131,0.0,0.0,3.9106,3.7121,0.0,0.0,0.0,0.0,0.0,0.0,2.9658,0.0,0.0,0.0,0.0,0.0,0.0,0.0,0.0,0.0,0.0,0.0,0.0,0.0,0.0,0.0,0.0,0.0,0.0,0.0,0.0,0.0,0.0,0.0,0.0,0.0,0.0,0.0,3.9611,3.9358,3.9358,3.9432,3.9368,3.9103,3.929,3.9227,3.904,3.9357,3.945,3.9495,3.94,3.9288,3.9245,3.8823,3.8775,3.8844,3.8353,3.8058,3.7686,3.7917,3.8018,3.8049,3.7819,3.7674,3.7619,3.7119,3.6937,3.6658,0.0,0.0,0.0,0.0,0.0,0.0,0.0,0.0,0.0,0.0,0.0,0.0,0.0,0.0,0.0,2.5022,2.4819,2.4438,2.3688,2.329,2.3073,2.3098,2.2674,2.2374,2.2271,2.2004,2.2101,0.0,0.0,0.0,0.0,0.0,0.0,0.0,0.0,0.0,0.0,0.0,0.0,0.0,3.7383,0.0,0.0,4.1876,4.3081,0.0,0.0,0.0,4.3282,4.2305,3.9957,0.0,0.0,0.0,0.0,0.0,0.0,0.0,0.0,0.0,0.0,0.0,0.0,0.0,3.8606,3.9237,3.994,0.0,0.0,0.0,0.0,0.0,0.0,0.0,0.0,0.0,0.0,0.0,0.0,0.0,0.0,0.0,0.0,0.0,0.0,3.8553,3.8486,3.8525,3.8816,3.8846,3.8743,3.821,3.8486,3.8324,3.8007,3.8644,3.8922,3.8809,3.8971,3.8876,3.8624,3.8556,3.8353,3.8227,3.7982,3.7685,3.7045,3.7045,3.734,3.7577,3.772,3.759,3.7291,3.7119,3.6655,3.6291,0.0,0.0,0.0,0.0,0.0,0.0,0.0,0.0,0.0,0.0,0.0,0.0,0.0,0.0,0.0,0.0,2.59,2.5064,2.4284,2.349,2.2846,2.2546,2.2966,2.3047,2.2505,2.2713,2.3021,2.3257,2.3327,0.0,0.0,0.0,0.0,0.0,0.0,0.0,0.0,0.0,0.0,3.7242,3.9651,4.0693,0.0,0.0,4.4667,0.0,4.5235,4.4965,4.3806,4.2964,4.0148,0.0,0.0,0.0,0.0,0.0,3.022,0.0,0.0,0.0,0.0,0.0,0.0,0.0,3.7861,3.7612,3.7448,0.0,0.0,0.0,0.0,0.0,0.0,0.0,0.0,0.0,0.0,0.0,0.0,0.0,0.0,0.0,0.0,3.7762,3.7668,3.706,3.7339,3.7879,3.8429,3.8516,3.8309,3.772,3.8038,3.7784,3.6942,3.7934,3.8336,3.7867,3.8269,3.829,3.797,3.7933,3.7748,3.7373,3.777,3.749,3.6742,3.6776,3.6869,3.721,3.7929,3.7535,3.6896,3.6929,3.6337,3.5498,0.0,0.0,0.0,0.0,0.0,0.0,0.0,0.0,0.0,0.0,0.0,0.0,0.0,0.0,0.0,0.0,2.7859,2.6667,2.633,2.4676,2.3772,2.3884,2.3698,2.3642,2.3801,2.3487,2.3448,2.372,2.3969,2.4769,2.5873,0.0,0.0,0.0,0.0,0.0,0.0,0.0,0.0,3.8852,3.9213,0.0,4.3295,4.465,4.5527,4.5942,4.567,4.5428,4.4935,0.0,4.0107,3.7998,0.0,0.0,0.0,0.0,0.0,0.0,0.0,0.0,0.0,0.0,0.0,0.0,3.3122,3.3882,3.4985,0.0,0.0,0.0,0.0,0.0,0.0,0.0,0.0,0.0,0.0,0.0,0.0,0.0,0.0,0.0,0.0,3.6689,3.6224,3.5852,3.5725,3.5789,3.6346,3.6753,3.6869,3.6876,3.698,3.7011,3.6942,3.6938,3.7191,3.7727,3.7402,3.7283,3.7535,3.7221,3.7173,3.7422,3.7198,3.7082,3.7223,3.6731,3.6611,3.6782,3.6744,3.6761,3.655,3.6518,3.6163,3.5825,0.0,0.0,0.0,0.0,0.0,0.0,0.0,0.0,0.0,0.0,0.0,0.0,0.0,0.0,0.0,0.0,0.0,0.0,0.0,2.5655,2.4767,2.4404,2.4368,2.4493,2.4861,2.427,2.4226,2.4826,2.4683,2.5205,2.6227,0.0,0.0,0.0,0.0,0.0,0.0,0.0,3.6197,3.9258,4.0352,0.0,4.5025,4.5667,4.6211,4.6556,4.6323,4.5682,4.4597,4.2065,4.0591,0.0,0.0,3.56,3.4987,0.0,3.2818,3.3091,0.0,0.0,0.0,3.1889,0.0,0.0,0.0,3.2265,3.2698,3.4391,0.0,0.0,0.0,0.0,0.0,0.0,0.0,0.0,0.0,0.0,0.0,0.0,0.0,0.0,0.0,3.5179,3.5081,3.5215,3.5125,3.5125,3.5359,3.5827,3.5945,3.5665,3.5998,3.6049,3.6073,3.6137,3.6386,3.6973,3.678,3.6764,3.6826,3.6867,3.6892,3.714,3.709,3.7011,3.7063,3.6772,3.662,3.6679,3.6761,3.6592,3.6313,3.616,3.5807,3.5573,0.0,0.0,0.0,0.0,0.0,0.0,0.0,0.0,0.0,0.0,0.0,0.0,0.0,0.0,0.0,0.0,0.0,0.0,0.0,0.0,2.5672,2.4849,2.4998,2.5392,2.587,2.527,2.5189,2.5906,2.5458,2.5776,2.6703,2.7714,0.0,0.0,0.0,0.0,0.0,0.0,0.0,3.9539,0.0,4.3916,4.5759,4.6329,4.6446,4.6404,4.6505,4.5468,4.3879,4.2151,0.0,4.0443,3.8299,3.7546,0.0,0.0,0.0,0.0,0.0,0.0,0.0,0.0,0.0,3.1575,0.0,0.0,0.0,3.2413,0.0,0.0,0.0,0.0,0.0,0.0,0.0,0.0,0.0,0.0,0.0,0.0,0.0,0.0,0.0,3.3263,3.3552,3.4167,3.3989,3.4149,3.4625,3.5036,3.5014,3.4613,3.4944,3.5098,3.508,3.5475,3.5723,3.5965,3.6371,3.6356,3.6234,3.646,3.6746,3.6986,3.7156,3.7098,3.6885,3.6581,3.6575,3.6594,3.6694,3.6691,3.6329,3.5939,3.5545,3.503,2.1325,2.2844,0.0,0.0,0.0,0.0,0.0,0.0,0.0,0.0,0.0,0.0,0.0,0.0,0.0,0.0,0.0,0.0,2.9431,0.0,0.0,2.6232,2.5539,2.5841,2.7379,2.6676,2.6209,2.6166,2.6742,2.6927,2.6873,2.7641,0.0,0.0,3.0364,0.0,0.0,0.0,3.7498,0.0,4.1753,4.3075,0.0,4.511,4.5542,4.5788,4.5118,4.4455,4.3594,0.0,4.1283,4.0347,0.0,3.825,0.0,0.0,0.0,0.0,0.0,0.0,0.0,0.0,3.2346,0.0,0.0,0.0,2.9447,2.9051,0.0,0.0,0.0,0.0,0.0,0.0,0.0,0.0,0.0,0.0,0.0,0.0,0.0,0.0,0.0,0.0,3.0663,3.2032,3.054,3.0608,3.2789,3.3207,3.3719,3.437,3.4202,3.4338,3.4687,3.4483,3.4874,3.5686,3.536,3.5507,3.6216,3.587,3.6366,3.7276,3.6576,3.6692,3.7205,3.6563,3.6114,3.6072,3.5975,3.6121,3.6297,3.532,3.4987,3.5,2.1744,2.3213,0.0,0.0,0.0,0.0,0.0,0.0,0.0,0.0,0.0,0.0,0.0,0.0,0.0,0.0,0.0,0.0,0.0,0.0,0.0,0.0,2.7056,2.7208,2.8342,2.7268,2.6805,2.6982,2.673,2.6972,2.7526,2.8284,2.977,0.0,3.262,0.0,3.66,0.0,0.0,0.0,0.0,0.0,0.0,4.5004,4.5625,4.5323,4.4475,4.4036,4.3399,0.0,4.1482,0.0,0.0,0.0,0.0,0.0,0.0,0.0,0.0,0.0,0.0,0.0,0.0,0.0,0.0,0.0,2.7451,0.0,0.0,0.0,0.0,0.0,0.0,0.0,0.0,0.0,0.0,0.0,0.0,0.0,0.0,0.0,0.0,0.0,0.0,0.0,0.0,2.9514,3.1645,3.2357,3.2889,3.3235,3.3327,3.3476,3.4076,3.3934,3.4184,3.4571,3.5145,3.5383,3.5447,3.576,3.6216,3.6642,3.6569,3.667,3.6729,3.6477,3.6337,3.6271,3.5908,3.5771,3.5524,3.5109,3.4937,3.4683,0.0,0.0,0.0,0.0,0.0,0.0,0.0,0.0,0.0,0.0,0.0,0.0,3.6556,3.6289,0.0,0.0,0.0,3.4823,0.0,0.0,3.0837,0.0,0.0,0.0,0.0,2.8202,2.7544,2.7749,2.7262,2.7505,2.8593,2.9225,3.0893,3.339,0.0,3.6118,3.8416,0.0,0.0,4.0386,4.0474,4.1254,4.2479,4.4654,4.5277,4.4847,4.4246,4.3889,4.349,4.2412,4.1728,0.0,4.0278,0.0,0.0,0.0,0.0,0.0,3.5914,0.0,0.0,0.0,0.0,0.0,0.0,0.0,0.0,0.0,0.0,0.0,0.0,0.0,0.0,0.0,0.0,0.0,0.0,0.0,0.0,0.0,0.0,0.0,0.0,0.0,0.0,2.9595,2.7918,2.791,3.0349,3.1345,3.1836,3.2117,3.2441,3.2768,3.3135,3.3274,3.35,3.3657,3.4548,3.5,3.5045,3.5632,3.594,3.6254,3.6498,3.6426,3.6184,3.6424,3.6405,3.624,3.5941,3.5336,3.4822,3.4925,3.4728,3.4531,2.1923,2.2947,0.0,0.0,0.0,0.0,0.0,0.0,0.0,0.0,0.0,0.0,0.0,0.0,0.0,0.0,0.0,3.6988,3.5456,0.0,3.2501,0.0,0.0,0.0,0.0,0.0,2.8676,2.8237,2.8796,2.9342,3.0162,3.0551,3.1785,3.3791,0.0,3.6284,3.812,3.9004,4.0772,4.2853,4.245,4.3074,4.428,0.0,4.4169,4.4265,4.4144,0.0,0.0,4.2422,4.1893,0.0,0.0,0.0,0.0,0.0,0.0,0.0,0.0,0.0,0.0,0.0,0.0,0.0,0.0,0.0,2.7213,0.0,0.0,0.0,0.0,0.0,0.0,0.0,0.0,0.0,0.0,0.0,0.0,0.0,0.0,0.0,0.0,0.0,0.0,2.5509,2.3954,2.4669,2.8628,2.9828,3.0626,3.0879,3.1886,3.2131,3.1929,3.2339,3.2821,3.323,3.3266,3.389,3.5027,3.5064,3.5412,3.6254,3.619,3.627,3.6184,3.6104,3.5774,3.5534,3.5742,3.4999,3.3956,3.4472,3.4891,3.5046,0.0,0.0,0.0,0.0,0.0,0.0,0.0,3.2745,0.0,0.0,0.0,0.0,0.0,0.0,4.089,0.0,0.0,3.9968,3.7754,3.6603,0.0,0.0,0.0,3.2612,0.0,0.0,0.0,0.0,0.0,3.0525,3.104,3.1634,3.2763,3.4393,0.0,3.801,0.0,0.0,0.0,0.0,0.0,4.2744,4.3909,0.0,0.0,4.3771,4.4099,4.4054,0.0,4.2481,4.1804,4.1369,4.1015,4.0274,3.9497,3.973,3.9336,0.0,0.0,0.0,3.7469,3.2926,0.0,0.0,0.0,0.0,0.0,0.0,0.0,0.0,0.0,0.0,0.0,0.0,0.0,0.0,0.0,0.0,0.0,0.0,0.0,0.0,0.0,0.0,0.0,2.3711,2.2982,2.3985,0.0,2.8661,2.9507,3.0255,3.0622,3.1058,3.1481,3.1635,3.2132,3.2808,3.3358,3.3963,3.4623,3.4885,3.5046,3.5014,3.5234,3.5417,3.5347,3.5549,3.5511,3.5361,3.5658,3.5314,3.4642,3.4809,3.4533,3.4226,2.4531,0.0,0.0,0.0,0.0,0.0,0.0,0.0,0.0,0.0,3.9623,0.0,4.2805,0.0,4.2627,0.0,4.315,4.2251,3.9813,3.9375,0.0,3.8481,3.6577,0.0,0.0,0.0,0.0,0.0,0.0,3.2233,3.2763,3.2931,3.3776,3.5108,0.0,3.8507,3.9544,0.0,4.1935,0.0,0.0,4.2896,0.0,0.0,4.4379,4.3746,0.0,4.3954,4.3377,4.2604,4.196,4.153,4.0996,4.0231,3.9494,3.9693,3.9194,3.8494,3.7879,3.8087,0.0,3.3802,3.2841,0.0,2.781,0.0,0.0,0.0,0.0,0.0,0.0,0.0,0.0,0.0,0.0,0.0,0.0,0.0,0.0,0.0,0.0,0.0,0.0,0.0,1.8637,2.1608,2.0997,2.2254,0.0,0.0,2.8595,2.9351,2.983,3.04,3.0946,3.1101,3.1653,3.2606,3.3138,3.3743,3.428,3.4667,3.4609,3.4493,3.4819,3.5071,3.5158,3.5361,3.5392,3.5196,3.5658,3.5314,3.4627,3.4794,3.4426,3.3882,0.0,0.0,0.0,0.0,2.8356,0.0,0.0,0.0,3.7271,0.0,4.0204,4.1543,4.3987,4.3408,4.3689,4.5602,4.4898,0.0,4.1959,4.1814,0.0,0.0,3.9164,3.8875,3.9542,0.0,0.0,0.0,0.0,0.0,3.4943,3.4393,3.4635,3.557,3.7169,0.0,3.8809,4.1348,4.293,4.3711,4.3711,4.3711,4.3711,4.4205,0.0,4.3678,4.4173,4.4029,4.3511,4.258,4.2249,4.2084,4.0578,4.0108,3.9951,3.928,3.8786,3.8183,3.758,3.7591,3.7014,3.3972,0.0,0.0,0.0,0.0,3.0547,0.0,0.0,0.0,0.0,0.0,0.0,0.0,0.0,0.0,0.0,0.0,0.0,0.0,0.0,0.0,0.0,1.3792,1.4079,1.9126,1.8209,0.0,0.0,0.0,2.7586,2.8106,2.9394,2.9989,3.0185,3.0571,3.1377,3.2588,3.2588,3.2957,3.3837,3.4252,3.4358,3.4475,3.4784,3.5208,3.5626,3.5502,3.524,3.4866,3.5576,3.5032,3.3832,3.4326,3.4397,3.4187,2.7591,2.848,2.9164,0.0,2.9736,3.1194,0.0,0.0,0.0,0.0,4.2166,4.3505,4.5451,4.5535,4.5555,4.6168,4.6535,0.0,0.0,0.0,0.0,4.4319,4.2939,4.2186,4.2364,4.0003,0.0,3.8174,0.0,0.0,3.555,3.5252,3.5017,3.4843,0.0,0.0,3.8765,4.099,4.2279,4.2735,4.338,4.3546,0.0,0.0,4.3997,4.338,4.4051,4.4194,4.3925,4.2683,4.2249,4.2209,4.1352,4.0633,4.014,4.021,3.9773,3.9174,3.833,3.8605,3.8506,3.569,3.4894,3.405,0.0,0.0,0.0,0.0,0.0,0.0,0.0,0.0,0.0,0.0,0.0,0.0,0.0,0.0,0.0,0.0,0.0,0.0,0.0,1.1633,1.323,1.4892,1.6206,0.0,0.0,0.0,0.0,2.7158,2.802,2.8919,2.9795,2.9904,3.0701,3.2186,3.1917,3.2266,3.3019,3.3427,3.3797,3.4085,3.4099,3.4675,3.5609,3.5226,3.5021,3.4866,3.5576,3.5338,3.4529,3.4411,3.4557,3.4464,2.9505,0.0,0.0,3.3005,0.0,0.0,3.6568,0.0,0.0,4.2209,4.33,0.0,4.6044,4.6454,4.6826,4.748,4.7794,0.0,0.0,0.0,0.0,4.5726,4.5535,4.5174,4.4803,4.3021,0.0,4.0671,0.0,0.0,3.6389,3.5432,3.4832,3.4457,0.0,3.7709,0.0,4.1158,4.2365,4.2468,4.3303,0.0,0.0,4.3876,4.3909,4.3738,4.3679,4.3786,4.3556,4.257,4.2266,4.2251,4.1459,4.0688,4.0159,4.0035,3.9805,3.928,3.8571,3.8788,3.8786,3.6507,3.5848,3.5228,3.3173,3.2129,3.1203,0.0,0.0,0.0,0.0,0.0,0.0,0.0,0.0,0.0,0.0,0.0,0.0,0.0,0.0,0.0,0.6856,0.8955,1.0927,1.2056,0.0,0.0,0.0,0.0,0.0,2.6434,2.7249,2.8241,2.9422,2.944,3.0227,3.1783,3.1531,3.1802,3.2439,3.323,3.3727,3.3907,3.396,3.4724,3.5747,3.5279,3.5095,3.5012,3.5409,3.528,3.4937,3.4769,3.4743,3.4529,0.0,0.0,0.0,0.0,0.0,0.0,0.0,3.9521,0.0,4.3314,0.0,4.5126,4.645,4.6795,4.7658,0.0,0.0,4.7914,4.6776,4.7902,4.7807,4.6223,4.7292,4.7737,4.7145,4.5966,0.0,0.0,0.0,0.0,3.7023,3.5248,3.4379,3.418,0.0,0.0,0.0,4.1304,4.2576,0.0,4.3225,4.338,4.3068,4.3546,4.3797,4.4092,4.3339,4.3058,4.2952,4.2383,4.2194,4.1957,4.109,4.0492,4.0054,3.9458,3.9277,3.9082,3.8465,3.8407,3.8343,3.6677,3.6534,3.6295,3.3987,3.2818,3.1856,3.0803,2.8762,2.7086,0.0,0.0,0.0,0.0,0.0,0.0,0.0,0.0,0.0,0.0,0.0,0.0,0.0,0.0,0.0,0.0,0.0,0.0,0.0,0.0,0.0,2.5761,2.6742,0.0,2.9172,0.0,2.9824,3.1325,3.1378,3.163,3.207,3.3338,3.3872,3.4035,3.4241,3.5029,3.6058,3.5279,3.5129,3.5422,3.5259,3.5093,3.5018,3.5379,3.5009,3.4305,0.0,0.0,0.0,0.0,0.0,3.838,4.1273,4.1312,4.1918,4.4269,4.5437,0.0,4.7822,4.772,4.778,4.8295,4.8992,0.0,0.0,0.0,0.0,4.8521,4.9112,4.8874,4.8103,4.6615,4.5676,0.0,0.0,0.0,3.5834,3.4704,3.4154,3.407,0.0,0.0,4.0368,4.1143,0.0,4.1936,4.2863,4.2902,4.2569,4.338,4.3262,4.2798,4.2641,4.2962,4.3452,4.2281,4.1575,4.1259,4.0732,4.0146,3.9675,3.9142,3.9354,3.9508,3.8188,3.8521,3.8618,3.6509,3.6302,3.6108,3.4602,3.3399,3.2252,3.1365,2.9949,2.8244,2.5866,0.0,0.0,0.0,0.0,0.0,0.0,0.0,0.0,0.0,0.0,0.0,0.0,0.0,0.0,0.0,0.0,0.0,0.0,0.0,0.0,0.0,2.5904,0.0,0.0,0.0,2.9445,3.0653,3.0545,3.0943,3.1704,3.2928,3.3709,3.4324,3.439,3.5029,3.6058,3.5279,3.5282,3.5954,3.5875,3.5613,3.5521,3.5542,3.5186,3.4502,0.0,0.0,0.0,0.0,0.0,0.0,0.0,4.4096,0.0,4.5108,4.5688,4.6398,4.74,4.774,4.8189,4.895,4.935,4.9613,4.9449,4.9943,4.9826,4.91,4.9362,0.0,4.9097,0.0,4.6497,4.4649,0.0,0.0,0.0,3.4612,3.3973,3.4167,0.0,3.8364,0.0,0.0,0.0,4.1416,4.264,4.2902,4.2569,4.338,4.332,4.2734,4.25,4.2604,4.2605,4.1907,4.1474,4.1022,4.1096,4.0573,3.9861,3.9466,3.9783,3.9933,3.8295,3.8334,3.8233,3.6177,3.5605,3.5229,3.4054,3.3194,3.2317,3.157,3.0543,2.8718,2.5157,2.1517,0.0,0.0,0.0,0.0,0.0,0.0,0.0,0.0,0.0,0.0,0.0,0.0,0.0,0.0,0.0,0.0,0.0,0.0,0.0,0.0,0.0,0.0,0.0,0.0,0.0,3.0148,3.0338,3.0854,3.16,3.2967,3.3947,3.4469,3.4836,3.5362,3.5775,3.54,3.5485,3.6038,3.6225,3.6088,3.5767,3.5967,3.562,3.4932,0.0,3.8785,0.0,0.0,4.2682,0.0,4.6233,4.6844,4.6845,4.6172,4.6236,4.6531,4.7324,4.8036,4.866,4.9564,4.9604,4.9953,5.0193,5.005,4.9916,4.9494,4.9204,4.9279,4.9652,4.9315,4.74,0.0,0.0,0.0,0.0,0.0,0.0,0.0,0.0,0.0,0.0,0.0,4.141,4.1248,4.2416,4.2569,4.2569,4.3214,4.3379,4.2891,4.2558,4.2109,4.1601,4.1638,4.1271,4.0913,4.1211,4.0752,4.0126,3.9528,3.995,4.0117,3.8336,3.8018,3.7777,3.596,3.5049,3.4337,3.3403,3.2889,3.2437,3.17,3.0738,2.874,2.4887,2.1744,0.0,0.0,0.0,0.0,0.0,0.0,0.0,0.0,0.0,0.0,0.0,0.0,0.0,0.0,0.0,0.0,0.0,0.0,0.0,0.0,0.0,2.6151,2.7821,0.0,2.8845,0.0,3.0316,3.0985,3.1753,3.316,3.4215,3.4613,3.5172,3.5521,3.5634,3.5539,3.5748,3.6102,3.6524,3.6375,3.6011,3.628,3.6098,3.5342,0.0,0.0,0.0,0.0,0.0,0.0,0.0,4.8444,4.8667,4.8249,4.8049,4.8414,4.9272,4.9045,4.8993,4.9604,4.9971,5.0499,5.0984,5.0833,5.0818,5.0715,4.9659,4.9109,4.9152,4.9696,4.8496,0.0,0.0,0.0,0.0,0.0,0.0,0.0,0.0,0.0,0.0,4.0849,4.1316,4.1639,4.1844,4.2049,4.2402,4.2902,4.2876,4.248,4.2441,4.1914,4.1172,4.0723,4.0425,4.0033,4.0464,4.0144,3.9677,3.9228,3.9537,3.9773,3.8345,3.7889,3.755,3.616,3.5297,3.4421,3.3547,3.3098,3.2657,3.204,3.0416,2.8335,2.5359,2.4467,2.2649,0.0,0.0,0.0,0.0,0.0,0.0,0.0,0.0,0.0,0.0,0.0,0.0,0.0,0.0,0.0,0.0,0.0,0.0,2.1723,0.0,2.5277,2.681,2.8092,0.0,2.9874,3.0856,3.1648,3.2025,3.3332,3.4357,3.4901,3.5048,3.5281,3.5574,3.5975,3.6074,3.6217,3.6936,3.6894,3.6493,3.687,3.6286,3.551,0.0,0.0,0.0,0.0,0.0,0.0,0.0,4.8634,4.8798,4.9435,4.9385,4.9232,4.9671,4.9688,4.9787,4.9787,5.0337,5.1066,5.1429,5.1383,5.0943,4.9845,4.968,4.9422,4.9065,4.9325,4.8634,0.0,0.0,0.0,0.0,0.0,0.0,0.0,0.0,3.9343,4.0918,4.0972,4.1152,4.1378,4.1378,4.1546,4.2049,4.2735,4.2712,4.212,4.2261,4.1894,4.1152,4.0976,4.0602,4.0275,4.0296,4.0217,4.0044,3.9836,3.9883,3.9836,3.8744,3.8013,3.7213,3.6163,3.5185,3.4279,3.3789,3.356,3.3289,3.2728,3.0665,2.8553,2.6606,2.4506,2.2585,0.0,0.0,0.0,0.0,0.0,0.0,0.0,0.0,0.0,0.0,0.0,0.0,0.0,0.0,0.0,0.0,0.0,0.0,2.0194,0.0,2.578,2.7177,2.8657,2.9789,3.0566,3.1167,3.1828,3.2449,3.3963,3.5185,3.6035,3.5612,3.5779,3.6368,3.6199,3.6483,3.6937,3.748,3.7197,3.6605,3.7183,3.6737,3.5553,4.4602,0.0,4.6347,0.0,4.6711,4.7474,4.8877,4.8873,4.9038,4.9908,5.0244,5.0297,5.0055,4.9871,4.9891,4.9913,5.0601,5.1248,5.1812,5.1626,5.0943,4.9659,4.968,0.0,4.906,4.8492,4.7901,4.718,4.3422,0.0,0.0,0.0,0.0,0.0,4.0026,4.0182,4.1886,4.1903,4.1748,4.1397,4.1229,4.1229,4.1546,4.2216,4.2201,4.1637,4.212,4.1736,4.0997,4.1016,4.0873,4.0563,4.0424,4.0197,3.9921,3.9898,3.9765,3.9604,3.8842,3.79,3.7043,3.6373,3.5417,3.4469,3.4303,3.4043,3.3663,3.2944,3.0965,2.907,2.7827,2.5125,2.3063,2.3185,0.0,0.0,0.0,0.0,0.0,0.0,0.0,1.0379,0.8456,0.0,0.0,0.0,0.0,0.0,0.0,0.0,0.0,0.0,0.0,0.0,0.0,2.9297,3.0531,3.121,3.1727,3.2393,3.3093,3.4455,3.565,3.6458,3.5981,3.6044,3.6633,3.6605,3.6898,3.7241,3.7899,3.7608,3.7042,3.7433,3.7064,3.6313,4.5574,4.6306,4.6347,4.6347,4.7341,4.8355,4.8976,4.9576,4.9763,4.9162,5.0673,5.1564,5.0943,4.9793,4.9183,4.9851,5.0538,5.1066,5.1812,5.1232,5.088,0.0,0.0,4.9153,4.9039,4.7313,4.6392,4.6252,0.0,0.0,4.26,0.0,4.1283,4.3652,4.3633,4.3594,4.3567,4.3608,4.3121,4.2235,4.1397,4.106,4.106,4.106,4.1045,4.1133,4.1637,4.124,4.0452,4.051,4.0813,4.1019,4.0583,3.985,3.9141,3.9109,3.8983,3.8917,3.8305,3.7508,3.6804,3.6784,3.5998,3.5218,3.5197,3.4719,3.3891,3.2487,3.1233,3.0016,2.8755,2.7117,2.5175,2.2668,0.0,0.0,0.0,0.0,0.0,0.0,1.0548,0.8364,0.7914,0.0,0.0,0.0,0.0,0.0,0.0,0.0,0.0,2.1039,2.4261,0.0,2.7159,2.9689,3.106,3.1457,3.2673,3.3348,3.3811,3.501,3.5492,3.5656,3.6048,3.6239,3.6254,3.7111,3.7203,3.6869,3.8114,3.8257,3.7859,3.7514,3.7895,3.798,4.6164,4.6347,4.6347,4.6347,4.6678,4.7424,4.8852,4.9224,4.9287,4.91,5.0673,5.1481,5.0653,5.0387,5.0175,0.0,5.0964,5.161,0.0,5.1315,5.0818,5.0301,4.9804,4.9417,4.9153,4.8503,4.794,4.7166,0.0,0.0,0.0,4.0324,4.0702,4.3738,4.367,4.3533,4.3408,4.2358,4.2461,4.3214,4.1714,4.106,4.106,4.106,4.1156,4.1235,4.1714,4.1419,4.0977,4.1016,4.0916,4.0602,4.0171,4.0068,3.9871,3.9273,3.9068,3.884,3.8385,3.7831,3.7281,3.752,3.6834,3.6223,3.6274,3.5211,3.3749,3.2406,3.0822,2.9201,2.7944,2.6672,2.5432,2.4214,2.3542,0.0,0.0,0.0,0.0,0.0,1.2877,1.1208,0.0,0.9087,0.0,0.0,0.0,0.0,0.0,0.0,0.0,0.0,2.4913,0.0,2.814,3.0737,3.2413,3.3067,3.361,3.4444,3.5287,3.5274,3.5784,3.6895,3.6739,3.6976,3.7427,3.7708,3.8024,3.8539,3.8624,3.8585,3.8417,3.8181,3.8276,3.8478,4.5481,4.6351,4.7314,4.7314,4.7396,4.7755,4.8893,4.9059,4.9059,4.9059,5.0052,5.0549,4.997,5.0073,0.0,5.0477,5.0977,5.1336,5.1439,5.0922,5.0404,4.9928,4.9638,4.9542,4.9401,0.0,0.0,4.7638,4.5938,4.4401,4.328,4.1443,4.1367,4.2826,4.3254,4.3261,4.2509,4.15,4.1714,4.255,4.1565,4.106,4.106,4.106,4.1046,4.1166,4.1456,4.1322,4.0997,4.1172,4.0996,4.0664,3.9926,3.9987,3.9997,3.9106,3.8769,3.8465,3.8295,3.777,3.7336,3.7858,3.7424,3.6664,3.6203,3.4997,3.3684,3.2076,3.0429,2.9045,2.799,2.6816,2.5841,2.5374,2.4181,2.2894,0.0,0.0,0.0,0.0,0.0,0.0,0.0,1.1982,0.0,0.0,0.0,0.0,0.0,0.0,0.0,2.1671,2.6024,0.0,2.941,3.1635,3.3143,3.3671,3.4374,3.5199,3.5874,3.5749,3.6188,3.7124,3.7009,3.7321,3.78,3.8101,3.85,3.8841,3.899,3.8962,3.879,3.881,3.8761,3.8743,4.405,4.6492,0.0,0.0,4.9001,0.0,4.9059,4.9059,4.9059,4.9059,4.9059,4.9059,4.9059,4.9059,4.9535,5.0694,0.0,0.0,0.0,5.0156,4.9763,4.9763,4.9307,4.938,4.9849,4.9359,4.8562,4.7631,4.5448,4.4205,4.3546,4.3546,4.255,4.106,4.2716,4.255,4.106,4.106,4.106,4.106,4.106,4.106,4.106,4.106,4.1083,4.1039,4.1105,4.0851,4.0666,4.1016,4.1172,4.1016,3.97,3.9581,3.9778,3.8754,3.8224,3.7947,3.8295,3.7677,3.7156,3.79,3.7593,3.6682,3.5086,3.4351,3.3464,3.158,3.028,2.9361,2.8603,2.7314,2.6342,2.6074,2.4427,2.2907,2.1856,0.0,0.0,0.0,0.0,0.0,0.0,1.4576,1.5045,0.0,0.0,0.0,0.0,0.0,2.0498,2.5509,2.7677,2.9509,3.0772,3.2394,3.3425,3.388,3.495,3.547,3.5489,3.6327,3.6735,3.6701,3.7306,3.7441,3.7549,3.8413,3.8456,3.8253,3.9376,3.9721,3.9353,3.9437,3.9114,3.8878,0.0,0.0,4.841,4.7153,4.8192,4.9059,4.9059,4.9059,4.9059,4.9059,4.9059,4.9059,4.9059,4.9059,4.9328,4.997,5.0487,5.0694,5.0529,5.0052,4.9763,4.9763,4.9307,4.9064,4.8711,4.8711,4.775,4.6163,4.4131,4.2863,4.2197,4.121,4.0367,4.0028,4.121,4.1565,4.106,4.106,4.106,4.106,4.106,4.106,4.106,4.106,4.1137,4.1083,4.1095,4.101,4.1016,4.1172,4.1172,4.1016,4.0004,4.0033,4.0057,3.8445,3.8422,3.8748,3.8377,3.8282,3.844,3.8882,3.8209,3.7233,3.5581,3.4448,3.3272,3.1781,3.047,2.9488,2.8484,2.7549,2.6792,2.6059,2.4663,2.3123,2.1443,2.0307,0.0,0.0,1.8279,1.823,1.7863,1.8093,1.79,0.0,0.0,0.0,0.0,2.2176,2.4038,2.6655,2.881,3.0296,3.115,3.2767,3.4242,3.5433,3.551,3.5606,3.5899,3.6445,3.6838,3.7134,3.8164,3.8561,3.8269,3.9116,3.9346,3.9426,3.9654,3.991,4.0259,4.02,3.9902,3.999,4.7312,4.8187,4.8432,4.667,4.7154,4.8107,4.8935,4.9059,4.9059,4.9059,4.9059,4.9059,4.9059,4.8314,4.8086,4.8748,4.9328,4.9783,5.0094,4.9307,4.8914,4.9121,4.8686,4.8314,4.8065,4.7897,4.6878,4.4837,4.3074,4.1732,4.0675,4.009,3.9706,3.9178,4.0028,4.0505,4.0529,4.0895,4.106,4.0987,4.0253,4.018,4.0621,4.0581,4.0596,4.0846,4.1062,4.1112,4.1152,4.0937,4.0879,4.0723,3.9712,3.972,3.984,3.8787,3.8803,3.9111,3.8905,3.8753,3.8553,3.8402,3.7821,3.6917,3.5251,3.4023,3.2853,3.1482,3.037,2.9448,2.8574,2.7789,2.6976,2.6245,2.5027,2.3637,2.1835,2.114,0.0,2.0446,2.0607,2.0854,2.1087,2.0989,2.0531,1.9379,0.0,0.0,2.3267,2.525,2.6824,2.7949,2.956,3.1006,3.211,3.3688,3.5084,3.6268,3.5879,3.6016,3.6578,3.7075,3.749,3.7828,3.8848,3.9229,3.9106,3.947,3.983,4.0144,4.0286,4.0551,4.0774,4.0957,4.0841,4.0663,4.8454,4.8689,4.8432,4.6993,4.6509,4.6865,4.8417,4.8666,4.8918,4.938,4.923,4.8955,4.8686,4.7196,4.6618,4.7548,4.7858,4.8417,4.939,4.8334,4.7691,4.8083,4.7732,4.7485,4.7423,4.6861,4.5449,4.3419,4.2218,4.0785,3.9533,3.9778,3.9448,3.8391,3.9225,3.9677,3.9887,4.0529,4.084,4.0749,3.9373,3.9153,3.9756,3.9945,4.0135,4.0509,4.1016,4.1172,4.1113,4.0664,4.0527,4.0371,3.9193,3.9367,3.9878,3.942,3.9309,3.9435,3.9657,3.9122,3.8221,3.7563,3.7006,3.6321,3.4705,3.3519,3.2455,3.1232,3.0276,2.9505,2.896,2.8122,2.7048,2.6263,2.5423,2.4217,2.2447,0.0,2.2281,2.2668,2.2592,2.2829,2.3748,2.3523,2.2983,2.2452,2.3909,2.5195,0.0,2.7748,2.9026,2.9397,3.0424,3.1596,3.3272,3.4716,3.5854,3.6519,3.6346,3.6658,3.7334,3.7848,3.8347,3.8586,3.9617,3.9818,3.9757,3.9838,4.0121,4.0585,4.1029,4.1243,4.1263,4.1862,4.1638,4.1172,4.6395,4.7772,4.8749,4.8569,4.7314,4.6451,4.672,4.6761,4.7815,5.0903,5.0082,4.8479,4.6927,4.6475,4.666,4.7299,4.6927,4.6946,4.7479,4.7315,4.7045,4.6791,4.7066,4.6841,4.5956,4.4415,4.3036,4.1956,4.106,4.0313,3.9564,3.8997,3.8653,3.853,3.853,3.917,3.9832,3.974,3.9813,4.0015,3.9758,3.9318,3.886,3.9831,4.0636,4.1016,4.1172,4.1172,4.1113,4.1124,4.0813,4.0523,4.0236,4.0231,4.0298,4.0144,4.0392,4.0554,4.0162,3.9675,3.8895,3.7299,3.6746,3.6017,3.4468,3.3233,3.2133,3.1358,3.0897,3.0363,2.9573,2.8737,2.7614,2.5973,2.5203,2.4207,2.2351,0.0,2.4334,2.3879,2.5055,2.5819,2.5774,2.5544,2.5367,2.5381,2.5738,2.6496,2.7597,2.881,3.0015,3.0946,3.1095,3.2091,3.4066,3.523,3.6103,3.6519,3.7188,3.7779,3.8187,3.8987,3.9491,3.944,4.063,4.0675,3.9759,4.0737,4.1172,4.0898,4.1325,4.1692,4.1867,4.2015,4.1638,4.1172,4.6002,4.7575,4.8907,4.8907,4.7453,4.6347,4.6347,4.6347,4.6983,4.8641,4.8107,4.6906,4.5084,4.4442,4.4501,4.5328,4.4906,4.4724,4.4905,4.5881,4.6247,4.5971,4.5936,4.5549,4.4667,4.2792,4.1714,4.1378,4.0536,3.9752,3.9387,3.921,3.8962,3.853,3.9027,3.9303,3.9504,3.954,3.9722,3.9832,3.9593,3.9461,3.9308,3.9963,4.0445,4.0802,4.0744,4.082,4.0723,4.019,3.9955,3.9857,3.9798,3.9891,4.0121,4.0227,4.0432,4.0406,3.9951,3.9488,3.8688,3.7339,3.6699,3.6053,3.4805,3.3585,3.253,3.2049,3.1295,3.0562,3.0176,2.9275,2.8214,2.6903,2.6064,0.0,0.0,2.5145,2.5901,2.6168,2.7226,2.7835,2.7709,2.7496,2.727,2.6918,2.7178,2.787,2.8874,2.98,3.0747,3.1847,3.2554,3.357,3.5039,3.587,3.6574,3.7421,3.7642,3.8275,3.9342,3.9749,4.0215,4.0604,4.1439,4.1467,4.0996,4.1509,4.1867,4.1897,4.2043,4.2497,4.2768,4.2902,4.2697,4.2544,4.5915,4.7204,4.8074,4.7761,4.6501,4.5865,4.6183,4.6183,4.6183,4.6183,4.5865,4.5167,4.376,4.2837,4.2526,4.3094,4.314,4.3081,4.2922,4.42,4.4885,4.4878,4.4514,4.3844,4.2905,4.1509,4.0691,4.0414,3.9928,3.9449,3.9146,3.9389,3.9174,3.8541,3.9105,3.9232,3.8924,3.9412,3.9557,3.9538,3.9226,3.9258,3.972,3.9877,4.0158,4.0317,4.0491,4.0469,4.0254,3.9622,3.9386,3.9347,3.9605,3.9734,4.0002,4.031,4.0206,3.9972,3.962,3.9069,3.8459,3.7334,3.6737,3.6017,3.4969,3.3993,3.3065,3.252,3.1798,3.108,3.086,3.003,2.9047,2.8015,0.0,0.0,0.0,2.6968,2.7734,2.8388,2.9105,2.9411,2.9192,2.9147,2.8818,2.8239,2.8797,2.9361,3.0204,3.0835,3.1701,3.3072,3.3854,3.477,3.5884,3.6435,3.728,3.8425,3.8275,3.8973,4.0531,4.0578,4.0906,4.1625,4.1988,4.2159,4.2159,4.2159,4.2458,4.2784,4.2623,4.2983,4.3615,4.3615,4.3919,4.4201,4.5653,4.6111,4.5771,4.4259,4.3801,4.4259,4.575,4.6071,4.6071,4.6071,4.4715,4.376,4.3615,4.2891,4.2162,4.1386,4.2447,4.2922,4.2602,4.266,4.2558,4.2114,4.2116,4.1461,4.0269,4.029,3.9811,3.8607,3.912,3.9267,3.9231,3.8852,3.8653,3.8599,3.8257,3.8094,3.8094,3.8572,3.8731,3.8731,3.8695,3.8993,3.931,3.9764,3.9968,3.9932,4.0374,4.0273,4.0014,4.0264,4.0077,3.984,4.0514,4.074,4.0882,4.0882,4.0261,3.9578,3.9537,3.8932,3.8187,3.7334,3.6469,3.5618,3.4547,3.3937,3.3501,3.2693,3.245,3.23,3.1834,3.1245,3.0272,2.8596,0.0,0.0,2.8028,2.918,3.0052,3.0319,3.0599,3.051,2.9976,3.0368,3.049,3.0257,3.0667,3.121,3.1664,3.2008,3.3107,3.4981,3.4818,3.5185,3.5865,3.6991,3.7975,3.8833,3.9268,4.0138,4.1731,4.1503,4.1834,4.2516,4.2559,4.2581,4.2581,4.2581,4.2806,4.3221,4.281,4.2983,4.3615,4.3615,4.4504,4.5853,4.5631,4.6002,4.5853,4.5256,4.4201,4.3767,4.4352,4.4504,4.4504,4.4504,4.3919,4.3615,4.3615,4.1907,4.0887,4.1065,4.1151,4.1074,4.0938,4.0875,4.1081,4.1456,4.1141,4.0652,3.985,3.9668,3.9339,3.8866,3.903,3.9359,3.9668,3.9266,3.8904,3.8886,3.8504,3.8322,3.8304,3.8207,3.8559,3.9096,3.8679,3.9056,3.9698,4.0101,4.0259,4.0296,4.0,4.0014,4.0215,3.9798,3.9745,3.9911,4.0658,4.074,4.0535,4.0409,4.0034,3.9537,3.9537,3.8705,3.7705,3.7254,3.6669,3.6012,3.4948,3.4604,3.428,3.3727,3.3406,3.3115,3.3155,3.2461,3.1879,3.1364,0.0,3.063,3.103,3.1216,3.143,3.1647,3.2275,3.2119,3.0888,3.1622,3.1781,3.0796,3.1443,3.1999,3.2401,3.3426,3.4684,3.6002,3.6042,3.6395,3.6951,3.74,3.8253,3.9678,3.9866,4.0742,4.2322,4.2214,4.2441,4.3023,4.3141,4.3141,4.3023,4.3302,4.3294,4.3252,4.3111,4.3107,4.3392,4.3392,4.4376,4.5653,4.4866,4.5107,4.4961,4.4521,4.3973,4.3767,4.4201,4.3419,4.2745,4.2745,4.2745,4.2745,4.2745,4.1171,4.0176,3.9949,3.9693,3.9395,3.9338,3.9236,3.97,4.0556,4.0061,3.9593,3.9141,3.9105,3.8942,3.8653,3.8834,3.9086,3.9263,3.897,3.8841,3.8841,3.8438,3.8328,3.842,3.7998,3.8154,3.8881,3.8583,3.8953,3.9778,3.9855,4.0028,4.0117,3.9857,3.981,3.984,3.9738,3.979,3.9795,4.076,4.0882,4.0657,4.0625,4.0132,3.9723,3.9578,3.8651,3.7733,3.7455,3.6773,3.6132,3.5333,3.5239,3.5124,3.472,3.4506,3.4336,3.4672,3.4097,3.376,3.394,3.312,3.2793,3.3809,3.3161,3.2743,3.3289,3.3612,3.3231,3.2036,3.2875,3.3032,3.1988,3.2786,3.3398,3.3902,3.4979,3.6051,3.6922,3.7349,3.7707,3.815,3.8161,3.8885,4.0498,4.0488,4.1252,4.2721,4.2721,4.3001,4.3441,4.3719,4.3858,4.3719,4.3858,4.3719,4.3441,4.3324,4.3184,4.3184,4.3184,4.4135,4.537,4.3184,4.3184,4.2743,4.1167,4.2373,4.418,4.5683,4.3064,4.0882,4.0882,4.0882,4.0882,4.0882,4.0862,3.9922,3.7504,3.8155,3.846,3.8027,3.8019,3.8356,3.9235,3.8846,3.824,3.7365,3.8222,3.8222,3.7365,3.8163,3.8438,3.8016,3.8016,3.8016,3.7979,3.7594,3.7649,3.7979,3.7594,3.7601,3.781,3.7908,3.8575,3.9432,3.9298,3.9198,3.9265,4.0196,3.9613,3.8818,4.0418,4.0358,3.9976,4.123,4.1615,4.153,4.1304,4.0759,4.0137,3.9661,3.8963,3.8286,3.7863,3.6876,3.5899,3.5626,3.5743,3.5898,3.5449,3.5618,3.601,3.6241,3.6177,3.6121,3.6227,3.5725,3.5528,3.5971,3.4893,3.4378,3.5176,3.4581,3.3834,3.3235,3.392,3.4318,3.4067,3.4754,3.5641,3.6289,3.6718,3.7357,3.7989,3.8429,3.8814,3.921,3.9277,4.0011,4.118,4.122,4.1968,4.3184,4.3163,4.328,4.3697,4.4135,4.4526,4.48,4.4135,4.4135,4.4273,4.3441,4.3184,4.3184,4.3184,4.4135,4.5347,4.3184,4.3184,4.3023,4.2603,4.2057,4.1835,4.2415,4.1501,4.0882,4.0882,4.0882,4.0882,4.0882,3.8908,3.7233,3.6426,3.6726,3.6929,3.7221,3.7472,3.7649,3.7933,3.8122,3.8112,3.7845,3.8112,3.8112,3.7845,3.8322,3.8585,3.8456,3.8456,3.8034,3.7319,3.7594,3.7668,3.7576,3.7173,3.7496,3.8347,3.8179,3.8536,3.9304,3.9382,3.9284,3.9219,3.9171,3.9357,3.975,4.0076,4.0349,4.0658,4.1756,4.2159,4.2214,4.1444,4.1156,4.0878,4.0473,3.9903,3.8999,3.8001,3.7332,3.6619,3.5761,3.6269,3.6759,3.6285,3.6636,3.7184,3.7411,3.7401,3.7488,3.7593,3.738,3.7125,3.716,3.6635,3.6034,3.5722,3.5767,3.55,3.4575,3.5224,3.5503,3.4946,3.5578,3.6282,3.7109,3.7514,3.8005,3.8866,3.9014,3.921,3.9494,3.9359,3.979,4.0684,4.1272,4.2158,4.3073,4.368,4.3997,4.4135,4.4526,4.4663,4.464,4.48,4.496,4.5074,4.48,4.4686,4.4686,4.4686,4.5347,4.6025,4.3184,4.3184,4.3184,4.3184,4.2462,4.1594,4.1025,4.0882,4.0882,4.0882,4.0882,4.0613,3.9889,3.8016,3.6694,3.6016,3.585,3.6036,3.6494,3.6971,3.7191,3.7191,3.7348,3.7607,3.777,3.7914,3.8004,3.8004,3.8322,3.8566,3.8383,3.8236,3.7869,3.7338,3.7246,3.7491,3.7847,3.7181,3.7202,3.7764,3.7914,3.8394,3.9023,3.923,3.9318,3.9239,3.9453,3.9785,4.0177,4.0677,4.1212,4.1877,4.2462,4.2581,4.2516,4.1936,4.1592,4.1313,4.1193,4.0423,3.9672,3.8804,3.8207,3.7588,3.6779,3.741,3.8081,3.7779,3.8068,3.8555,3.8929,3.8808,3.8766,3.9022,3.8594,3.8125,3.8204,3.7486,3.6897,3.6499,3.6604,3.6414,3.5619,3.6254,3.6773,3.6541,3.7047,3.7577,3.8371,3.8523,3.8912,3.9604,3.9625,3.9735,4.0127,3.9997,4.0235,4.0867,4.1924,4.268,4.3262,4.4026,4.4526,4.4526,4.5074,4.521,4.5187,4.5483,4.5642,4.5506,4.5754,4.5619,4.537,4.537,4.589,4.6405,4.3184,4.3184,4.3184,4.3184,4.3184,4.2743,4.1167,4.0882,4.082,4.0655,4.0634,4.0013,3.8357,3.8191,3.7636,3.6287,3.5946,3.5874,3.622,3.6549,3.6787,3.6787,3.6849,3.7076,3.7457,3.7733,3.795,3.795,3.8463,3.842,3.7998,3.7631,3.7539,3.7649,3.6659,3.707,3.8554,3.739,3.659,3.6384,3.7459,3.8213,3.873,3.907,3.9301,3.9485,4.0489,4.0575,4.0351,4.206,4.2935,4.3184,4.3184,4.2883,4.2721,4.2721,4.2159,4.1615,4.1615,4.1046,4.0371,4.0003,3.9292,3.8807,3.8586,3.9142,3.9716,3.9675,3.9867,4.0131,4.0511,4.0166,4.0017,4.028,3.9368,3.8786,3.8981,3.7824,3.7037,3.738,3.7124,3.6758,3.6521,3.7171,3.7847,3.8639,3.8681,3.9078,3.9625,3.9757,3.9888,4.0279,4.0453,4.0583,4.0973,4.1017,4.1217,4.1463,4.2862,4.3466,4.3466,4.4414,4.4937,4.4937,4.5619,4.589,4.589,4.6048,4.589,4.5483,4.6136,4.6025,4.5483,4.5506,4.589,4.654,4.3184,4.3184,4.3184,4.3184,4.3184,4.2743,4.1167,4.0882,4.0365,3.8957,3.8771,3.8626,3.8233,3.8191,3.8058,3.7791,3.7786,3.7402,3.6324,3.6663,3.7091,3.7258,3.7334,3.7444,3.7839,3.7641,3.7692,3.7988,3.8475,3.8383,3.7888,3.7796,3.7491,3.7166,3.6924,3.7091,3.7613,3.722,3.7274,3.7606,3.7568,3.8009,3.8613,3.9195,3.961,3.9878,3.9979,3.9919,4.0126,4.2308,4.3154,4.3184,4.3184,4.3163,4.3023,4.3023,4.2743,4.23,4.2018,4.1594,4.1251,4.1644,4.1209,4.0547,3.9245,3.9785,4.0507,4.0404,4.0665,4.1029,4.1412,4.1056,4.0856,4.0856,4.0501,3.9912,3.9299,3.8845,3.8523,3.7905,3.7733,3.7749,3.7707,3.8228,3.8576,3.8681,3.8946,3.921,3.9625,4.0018,4.0279,4.0647,4.1414,4.1745,4.1875,4.2388,4.2253,4.1343,4.2722,4.3394,4.3413,4.4999,4.5595,4.5708,4.6136,4.6271,4.6271,4.6271,4.6294,4.6136,4.6271,4.6271,4.6136,4.6025,4.6563,4.7364,4.4273,4.3719,4.3032,4.2551,4.2857,4.2883,4.218,4.2018,4.1397,3.9737,3.9382,3.9231,3.9231,3.857,3.7924,3.7233,3.7347,3.699,3.6255,3.6878,3.7421,3.7568,3.7462,3.7427,3.7724,3.7744,3.7865,3.8359,3.8476,3.8531,3.8564,3.8545,3.8061,3.7353,3.7427,3.7743,3.8374,3.7663,3.7977,3.8592,3.8233,3.8448,3.905,3.9465,3.9734,4.0166,4.0289,4.0576,4.1167,4.23,4.2883,4.3184,4.3184,4.3184,4.3184,4.3184,4.2743,4.23,4.2018,4.1756,4.172,4.2306,4.2529,4.2372,4.1299,4.1665,4.215,4.1934,4.2123,4.2333,4.182,4.1445,4.1022,4.0886,4.0635,4.0108,3.939,3.9151,3.8716,3.8145,3.8103,3.8187,3.8416,3.8681,3.8946,3.921,3.9363,3.9625,4.0127,4.0607,4.1,4.1391,4.2144,4.2523,4.2655,4.3035,4.3049,4.2426,4.3585,4.4015,4.3848,4.5402,4.6071,4.6183,4.6563,4.6697,4.6721,4.6831,4.6965,4.6965,4.6965,4.7136,4.7437,4.6917,4.7232,4.7894,4.5117,4.4276,4.3134,4.1874,4.2376,4.2988,4.3141,4.3184,4.2743,4.1452,4.0651,4.0279,4.0279,3.9099,3.7636,3.6152,3.6124,3.6218,3.6504,3.746,3.8009,3.8009,3.7696,3.7549,3.7549,3.7892,3.8122,3.8557,3.8667,3.899,3.9241,3.9222,3.8709,3.7934,3.797,3.8567,3.9258,3.8495,3.8662,3.9397,3.9023,3.903,3.9505,3.9878,4.0002,4.031,4.074,4.1452,4.218,4.2159,4.2603,4.3184,4.3184,4.3184,4.3184,4.3184,4.2743,4.218,4.2244,4.2004,4.201,4.2949,4.3751,4.4135,4.3937,4.4036,4.4025,4.3609,4.3617,4.3441,4.2354,4.1581,4.1122,4.0869,4.0456,4.0013,3.9553,3.9155,3.8656,3.8357,3.8233,3.8499,3.8912,3.9247,3.9623,3.9994,4.0126,4.0388,4.102,4.155,4.1904,4.2298,4.2925,4.3306,4.3549,4.3773,4.3831,4.3997,4.5014,4.5155,4.4557,4.5896,4.6523,4.65,4.6855,4.7122,4.7146,4.7521,4.763,4.763,4.763,4.8036,4.8491,4.7953,4.8026,4.8526,4.4199,4.4615,4.4346,4.2122,4.1808,4.218,4.3053,4.3184,4.3184,4.2883,4.1346,4.0279,4.0279,3.9099,3.7636,3.6152,3.5996,3.6677,3.8156,3.8932,3.9136,3.8574,3.8428,3.8428,3.8428,3.8175,3.7983,3.8103,3.8822,3.8993,3.8648,3.8648,3.8547,3.8545,3.8105,3.8399,3.9294,3.9215,3.934,3.965,3.959,3.9734,4.0022,4.0596,4.074,4.074,4.0882,4.1025,4.131,4.2603,4.3163,4.3184,4.3184,4.3184,4.3184,4.3184,4.2883,4.2667,4.3077,4.3042,4.34,4.4721,4.5046,4.5279,4.6321,4.5953,4.5475,4.4981,4.4627,4.4176,4.3262,4.2428,4.1826,4.1425,4.0717,4.0268,4.0096,3.9425,3.8856,3.8677,3.8666,3.8996,3.9815,4.0442,4.0778,4.0942,4.1524,4.1948,4.2082,4.2393,4.2815,4.3057,4.4222,4.4764,4.4897,4.5582,4.5826,4.5465,4.6383,4.6085,4.4851,4.6295,4.6941,4.6955,4.7316,4.763,4.7894,4.7894,4.8182,4.8445,4.8445,4.842,4.824,4.842,4.8837,4.9461,4.39,4.407,4.4233,4.3872,4.2591,4.1655,4.1568,4.1568,4.1568,4.1568,4.0804,4.0279,4.0279,3.9099,3.7904,3.7233,3.6423,3.6681,3.8485,3.9739,4.0146,3.9445,3.9281,3.9136,3.9136,3.8991,3.8944,3.8975,3.9277,3.9543,3.9662,3.9771,3.9801,3.9659,3.9366,3.9394,3.9321,3.9445,3.959,3.9714,3.9714,3.9714,4.0002,4.0596,4.0882,4.1025,4.1877,4.218,4.2321,4.3441,4.358,4.3324,4.3719,4.358,4.3184,4.3441,4.3001,4.2808,4.3447,4.3577,4.3937,4.5622,4.6145,4.6555,4.7508,4.7091,4.6352,4.5631,4.5345,4.487,4.3601,4.2576,4.1851,4.1276,4.0781,4.0167,3.9859,3.9613,3.9327,3.9562,3.9719,4.0032,4.0593,4.139,4.1749,4.1856,4.2259,4.2661,4.2794,4.3308,4.3734,4.4001,4.5018,4.5541,4.5541,4.6177,4.6304,4.5941,4.6693,4.6574,4.5704,4.6788,4.734,4.7293,4.7606,4.787,4.7977,4.8289,4.842,4.8632,4.8576,4.8576,4.8576,4.9227,4.9486,4.9719]},{"header":{"parameterUnit":"m.s-1","parameterCategory":1,"la1":30.6,"la2":28.766,"lo1":-90.7593,"lo2":-88.6598,"dy":0.0162,"dx":0.0183,"nx":116,"ny":114,"refTime":"2023-03-15T12:00:00:Z","depth":0,"parameterNumber":3,"parameterNumberName":"V-component_of_WINDS"},"data":[0.0,0.0,0.0,0.0,0.0,0.0,0.0,0.0,0.0,0.0,0.0,0.0,0.0,0.0,0.0,0.0,0.0,0.0,0.0,0.0,0.0,0.0,0.0,0.0,0.0,0.0,0.0,0.0,0.0,0.0,0.0,0.0,0.0,0.0,0.0,0.0,0.0,0.0,0.0,0.0,0.0,0.0,0.0,0.0,0.0,0.0,0.0,0.0,0.0,0.0,0.0,0.0,0.0,0.0,0.0,0.0,0.0,0.0,0.0,0.0,0.0,0.0,0.0,0.0,0.0,0.0,0.0,0.0,0.0,0.0,0.0,0.0,0.0,0.0,0.0,0.0,0.0,0.0,0.0,0.0,0.0,0.0,0.0,0.0,0.0,0.0,0.0,0.0,0.0,0.0,0.0,0.0,0.0,0.0,0.0,0.0,0.0,0.0,0.0,0.0,0.0,0.0,0.0,0.0,0.0,0.0,0.0,0.0,0.0,0.0,0.0,0.0,0.0,0.0,0.0,0.0,0.0,0.0,0.0,0.0,0.0,0.0,0.0,0.0,0.0,0.0,0.0,0.0,0.0,0.0,0.0,0.0,0.0,0.0,0.0,0.0,0.0,0.0,0.0,0.0,0.0,0.0,0.0,0.0,0.0,0.0,0.0,0.0,0.0,0.0,0.0,0.0,0.0,0.0,0.0,0.0,0.0,0.0,0.0,0.0,0.0,0.0,0.0,0.0,0.0,0.0,0.0,0.0,0.0,0.0,0.0,0.0,0.0,0.0,0.0,0.0,0.0,0.0,0.0,0.0,0.0,0.0,0.0,0.0,0.0,0.0,0.0,0.0,0.0,0.0,0.0,0.0,0.0,0.0,0.0,0.0,0.0,0.0,0.0,0.0,0.0,0.0,0.0,0.0,0.0,0.0,0.0,0.0,0.0,0.0,0.0,0.0,0.0,0.0,0.0,0.0,0.0,0.0,0.0,0.0,0.0,0.0,0.0,0.0,0.0,0.0,0.0,0.0,0.0,0.0,0.0,0.0,0.0,0.0,0.0,0.0,0.0,0.0,0.0,0.0,0.0,0.0,0.0,0.0,0.0,0.0,0.0,0.0,0.0,0.0,0.0,0.0,0.0,0.0,0.0,0.0,0.0,0.0,0.0,0.0,0.0,0.0,0.0,0.0,0.0,0.0,0.0,0.0,0.0,0.0,0.0,0.0,0.0,0.0,0.0,0.0,0.0,0.0,0.0,0.0,0.0,0.0,0.0,0.0,0.0,0.0,0.0,0.0,0.0,0.0,0.0,0.0,0.0,0.0,0.0,0.0,0.0,0.0,0.0,0.0,0.0,0.0,0.0,0.0,0.0,0.0,0.0,0.0,0.0,0.0,0.0,0.0,0.0,0.0,0.0,0.0,0.0,0.0,0.0,0.0,0.0,0.0,0.0,0.0,0.0,0.0,0.0,0.0,0.0,0.0,0.0,0.0,0.0,0.0,0.0,0.0,0.0,0.0,0.0,0.0,0.0,0.0,0.0,0.0,0.0,0.0,0.0,0.0,0.0,0.0,0.0,0.0,0.0,0.0,0.0,0.0,0.0,0.0,0.0,0.0,0.0,0.0,0.0,0.0,0.0,0.0,0.0,0.0,0.0,0.0,0.0,0.0,0.0,0.0,0.0,0.0,0.0,0.0,0.0,0.0,0.0,0.0,0.0,0.0,0.0,0.0,0.0,0.0,0.0,0.0,0.0,0.0,0.0,0.0,0.0,0.0,0.0,0.0,0.0,0.0,0.0,0.0,0.0,0.0,0.0,0.0,0.0,0.0,0.0,0.0,0.0,0.0,0.0,0.0,0.0,0.0,0.0,0.0,0.0,0.0,0.0,0.0,0.0,0.0,0.0,0.0,0.0,0.0,0.0,0.0,0.0,0.0,0.0,0.0,0.0,0.0,0.0,0.0,0.0,0.0,0.0,0.0,0.0,0.0,0.0,0.0,0.0,0.0,0.0,0.0,0.0,0.0,0.0,0.0,0.0,0.0,0.0,0.0,0.0,0.0,0.0,0.0,0.0,0.0,0.0,0.0,0.0,0.0,0.0,0.0,0.0,0.0,0.0,0.0,0.0,0.0,0.0,0.0,0.0,0.0,0.0,0.0,0.0,0.0,0.0,0.0,0.0,0.0,0.0,0.0,0.0,0.0,0.0,0.0,0.0,0.0,0.0,0.0,0.0,0.0,0.0,0.0,0.0,0.0,0.0,0.0,0.0,0.0,0.0,0.0,0.0,0.0,0.0,0.0,0.0,0.0,0.0,0.0,0.0,0.0,0.0,0.0,0.0,0.0,0.0,0.0,0.0,0.0,0.0,0.0,0.0,0.0,0.0,0.0,0.0,0.0,0.0,0.0,0.0,0.0,0.0,0.0,0.0,0.0,0.0,0.0,0.0,0.0,0.0,0.0,0.0,0.0,0.0,0.0,0.0,0.0,0.0,0.0,0.0,0.0,0.0,0.0,0.0,0.0,0.0,0.0,0.0,0.0,0.0,0.0,0.0,0.0,0.0,0.0,0.0,0.0,0.0,0.0,0.0,0.0,0.0,0.0,0.0,0.0,0.0,0.0,0.0,0.0,0.0,0.0,0.0,0.0,0.0,0.0,0.0,0.0,0.0,0.0,0.0,0.0,0.0,0.0,0.0,0.0,0.0,0.0,0.0,0.0,0.0,0.0,0.0,0.0,0.0,0.0,0.0,0.0,0.0,0.0,0.0,0.0,0.0,0.0,0.0,0.0,0.0,0.0,0.0,0.0,0.0,0.0,0.0,0.0,0.0,0.0,0.0,0.0,0.0,0.0,0.0,0.0,0.0,0.0,0.0,0.0,0.0,0.0,0.0,0.0,0.0,0.0,0.0,0.0,0.0,0.0,0.0,0.0,0.0,0.0,0.0,0.0,0.0,0.0,0.0,0.0,0.0,0.0,0.0,0.0,0.0,0.0,0.0,0.0,0.0,0.0,0.0,0.0,0.0,0.0,0.0,0.0,0.0,0.0,0.0,0.0,0.0,0.0,0.0,0.0,0.0,0.0,0.0,0.0,0.0,0.0,0.0,0.0,0.0,0.0,0.0,0.0,0.0,0.0,0.0,0.0,0.0,0.0,0.0,0.0,0.0,0.0,0.0,0.0,0.0,0.0,0.0,0.0,0.0,0.0,0.0,0.0,0.0,0.0,0.0,0.0,0.0,0.0,0.0,0.0,0.0,0.0,0.0,0.0,0.0,0.0,0.0,0.0,0.0,0.0,0.0,0.0,0.0,0.0,0.0,0.0,0.0,0.0,0.0,0.0,0.0,0.0,0.0,0.0,0.0,0.0,0.0,0.0,0.0,0.0,0.0,0.0,0.0,0.0,0.0,0.0,0.0,0.0,0.0,0.0,0.0,0.0,0.0,0.0,0.0,0.0,0.0,0.0,0.0,0.0,0.0,0.0,0.0,0.0,0.0,0.0,0.0,0.0,0.0,0.0,0.0,0.0,0.0,0.0,0.0,0.0,0.0,0.0,0.0,0.0,0.0,0.0,0.0,0.0,0.0,0.0,0.0,0.0,0.0,0.0,0.0,0.0,0.0,0.0,0.0,0.0,0.0,0.0,0.0,0.0,0.0,0.0,0.0,0.0,0.0,0.0,0.0,0.0,0.0,0.0,0.0,0.0,0.0,0.0,0.0,0.0,0.0,0.0,0.0,0.0,0.0,0.0,0.0,0.0,0.0,0.0,0.0,0.0,0.0,0.0,0.0,0.0,0.0,0.0,0.0,0.0,0.0,0.0,0.0,0.0,0.0,0.0,0.0,0.0,0.0,0.0,0.0,0.0,0.0,0.0,0.0,0.0,0.0,0.0,0.0,0.0,0.0,0.0,0.0,0.0,0.0,0.0,0.0,0.0,0.0,0.0,0.0,0.0,0.0,0.0,0.0,0.0,0.0,0.0,0.0,0.0,0.0,0.0,0.0,0.0,0.0,0.0,0.0,0.0,0.0,0.0,0.0,0.0,0.0,0.0,0.0,0.0,0.0,0.0,0.0,0.0,0.0,0.0,0.0,0.0,0.0,0.0,0.0,0.0,0.0,0.0,0.0,0.0,0.0,0.0,0.0,0.0,0.0,0.0,0.0,0.0,0.0,0.0,0.0,0.0,0.0,0.0,0.0,0.0,0.0,0.0,0.0,0.0,0.0,0.0,0.0,0.0,0.0,0.0,0.0,0.0,0.0,0.0,0.0,0.0,0.0,0.0,0.0,0.0,0.0,0.0,0.0,0.0,0.0,0.0,0.0,0.0,0.0,0.0,0.0,0.0,0.0,0.0,0.0,0.0,0.0,0.0,0.0,0.0,0.0,0.0,0.0,0.0,0.0,0.0,0.0,0.0,0.0,0.0,0.0,0.0,0.0,0.0,0.0,0.0,0.0,0.0,0.0,0.0,0.0,0.0,0.0,0.0,0.0,0.0,0.0,0.0,0.0,0.0,0.0,0.0,0.0,0.0,0.0,0.0,0.0,0.0,0.0,0.0,0.0,0.0,0.0,0.0,0.0,0.0,0.0,0.0,0.0,0.0,0.0,0.0,0.0,0.0,0.0,0.0,0.0,0.0,0.0,0.0,0.0,0.0,0.0,0.0,0.0,0.0,0.0,0.0,0.0,0.0,0.0,0.0,0.0,0.0,0.0,0.0,0.0,0.0,0.0,0.0,0.0,0.0,0.0,0.0,0.0,0.0,0.0,0.0,0.0,0.0,0.0,0.0,0.0,0.0,0.0,0.0,0.0,0.0,0.0,0.0,0.0,0.0,0.0,0.0,0.0,0.0,0.0,0.0,0.0,0.0,0.0,0.0,0.0,0.0,0.0,0.0,0.0,0.0,0.0,0.0,0.0,0.0,0.0,0.0,0.0,0.0,0.0,0.0,0.0,0.0,0.0,0.0,0.0,0.0,0.0,0.0,0.0,0.0,0.0,0.0,0.0,0.0,0.0,0.0,0.0,0.0,0.0,0.0,0.0,0.0,0.0,0.0,0.0,0.0,0.0,0.0,0.0,0.0,0.0,0.0,0.0,0.0,0.0,0.0,0.0,0.0,0.0,0.0,0.0,0.0,0.0,0.0,0.0,0.0,0.0,0.0,0.0,0.0,0.0,0.0,0.0,0.0,0.0,0.0,0.0,0.0,0.0,0.0,0.0,0.0,0.0,0.0,0.0,0.0,0.0,0.0,0.0,0.0,0.0,0.0,0.0,0.0,0.0,0.0,0.0,0.0,0.0,0.0,0.0,0.0,0.0,0.0,0.0,0.0,0.0,0.0,0.0,0.0,0.0,0.0,0.0,0.0,0.0,0.0,0.0,0.0,0.0,0.0,0.0,0.0,0.0,0.0,0.0,0.0,0.0,0.0,0.0,0.0,0.0,0.0,0.0,0.0,0.0,0.0,0.0,0.0,0.0,0.0,0.0,0.0,0.0,0.0,0.0,0.0,0.0,0.0,0.0,0.0,0.0,0.0,0.0,0.0,0.0,0.0,0.0,0.0,0.0,0.0,0.0,0.0,0.0,0.0,0.0,0.0,0.0,0.0,0.0,0.0,0.0,0.0,0.0,0.0,0.0,0.0,0.0,0.0,0.0,0.0,0.0,0.0,0.0,0.0,0.0,0.0,0.0,0.0,0.0,0.0,0.0,0.0,0.0,0.0,0.0,0.0,0.0,0.0,0.0,0.0,0.0,0.0,0.0,0.0,0.0,0.0,0.0,0.0,0.0,0.0,0.0,0.0,0.0,0.0,0.0,0.0,0.0,0.0,0.0,0.0,0.0,0.0,0.0,0.0,0.0,0.0,0.0,0.0,0.0,0.0,0.0,0.0,0.0,0.0,0.0,0.0,0.0,0.0,0.0,0.0,0.0,0.0,0.0,0.0,0.0,0.0,0.0,0.0,0.0,0.0,0.0,0.0,0.0,0.0,0.0,0.0,0.0,0.0,0.0,0.0,0.0,0.0,0.0,0.0,0.0,0.0,0.0,0.0,0.0,0.0,0.0,0.0,0.0,0.0,0.0,0.0,0.0,0.0,0.0,0.0,0.0,0.0,0.0,0.0,0.0,0.0,0.0,0.0,0.0,0.0,4.3457,0.0,0.0,0.0,0.0,0.0,0.0,0.0,0.0,0.0,0.0,0.0,0.0,0.0,0.0,0.0,0.0,0.0,0.0,0.0,0.0,0.0,0.0,0.0,0.0,0.0,0.0,0.0,0.0,0.0,0.0,0.0,0.0,0.0,0.0,0.0,0.0,0.0,0.0,0.0,0.0,0.0,0.0,0.0,0.0,0.0,0.0,0.0,0.0,0.0,0.0,0.0,0.0,0.0,0.0,0.0,0.0,0.0,0.0,0.0,0.0,0.0,0.0,0.0,0.0,0.0,0.0,0.0,0.0,0.0,0.0,0.0,0.0,0.0,0.0,0.0,0.0,0.0,0.0,0.0,0.0,0.0,0.0,0.0,0.0,0.0,0.0,0.0,0.0,0.0,0.0,0.0,0.0,0.0,0.0,0.0,0.0,0.0,0.0,0.0,0.0,0.0,0.0,0.0,0.0,0.0,0.0,0.0,0.0,0.0,0.0,0.0,0.0,0.0,0.0,0.0,0.0,4.747,0.0,0.0,0.0,0.0,0.0,0.0,0.0,0.0,0.0,0.0,0.0,0.0,0.0,0.0,0.0,0.0,0.0,0.0,0.0,0.0,0.0,0.0,0.0,0.0,0.0,0.0,0.0,0.0,0.0,0.0,0.0,0.0,0.0,0.0,0.0,0.0,0.0,0.0,0.0,0.0,0.0,0.0,0.0,0.0,0.0,0.0,0.0,0.0,0.0,0.0,0.0,0.0,0.0,0.0,0.0,0.0,0.0,0.0,0.0,0.0,0.0,0.0,0.0,0.0,0.0,0.0,0.0,0.0,0.0,0.0,0.0,0.0,0.0,0.0,0.0,0.0,0.0,0.0,0.0,0.0,0.0,0.0,0.0,0.0,0.0,0.0,0.0,0.0,0.0,0.0,0.0,0.0,0.0,0.0,0.0,0.0,0.0,0.0,0.0,0.0,0.0,0.0,0.0,0.0,0.0,0.0,0.0,0.0,0.0,0.0,3.9307,4.3337,4.9284,5.6246,5.4932,5.365,5.2303,0.0,0.0,0.0,0.0,0.0,0.0,0.0,0.0,0.0,0.0,0.0,0.0,0.0,0.0,0.0,0.0,0.0,0.0,0.0,0.0,0.0,0.0,0.0,0.7591,0.8674,0.8375,0.0,0.0,0.0,0.0,0.0,0.0,0.0,0.0,0.9953,0.0,0.0,0.0,1.7434,1.7543,1.7288,1.6053,1.3695,0.6342,0.0,0.0,0.0,0.0,0.0,0.0,0.0,0.0,0.0,0.0,0.0,0.0,0.0,0.0,0.0,0.0,0.0,0.0,0.0,0.0,0.0,0.0,0.0,0.0,0.0,0.0,0.0,0.0,0.0,0.0,0.0,0.0,0.0,0.0,0.0,0.0,0.0,0.0,0.0,0.0,0.0,0.0,0.0,2.0059,2.138,0.0,0.0,0.0,0.0,0.0,0.0,0.0,0.0,0.0,0.0,0.0,0.0,0.0,0.0,2.9603,2.9981,3.397,4.1528,4.519,4.7651,4.9088,5.5996,6.0438,6.2741,6.3997,0.0,5.5246,5.3381,0.0,0.0,0.0,0.0,0.0,0.0,0.0,0.0,0.0,0.0,0.0,0.0,0.0,0.0,0.0,0.0,0.0,0.0,0.0,0.0,0.0,0.0,1.0599,1.1771,1.2842,0.0,0.0,0.0,0.0,0.0,0.0,0.0,0.0,1.3998,1.6701,0.0,2.3575,2.5247,2.5372,2.4496,2.3578,2.232,1.7054,1.1766,0.6473,0.2777,0.0,0.0,0.0,0.0,0.0,0.0,0.0,0.0,0.0,0.0,0.0,0.0,0.0,0.0,0.0,0.0,0.0,0.0,0.0,0.0,0.0,0.0,0.0,0.0,0.0,0.0,0.0,0.0,0.0,0.0,0.0,0.0,0.0,0.0,0.0,0.0,0.0,0.0,0.0,2.2292,2.5208,2.5936,2.5135,2.3581,0.0,0.0,0.0,0.0,0.0,0.0,0.0,0.0,0.0,2.7841,2.9617,3.322,3.8839,4.2548,4.6803,5.1623,5.4007,5.6224,5.8436,6.5295,6.8533,6.8944,6.9701,6.776,6.3577,5.8991,5.5538,5.2739,0.0,0.0,0.0,0.0,0.0,4.3415,0.0,0.0,0.0,0.0,0.0,0.0,0.0,0.0,0.0,0.0,0.0,0.0,1.0829,1.2758,1.437,1.5605,1.7058,1.7068,0.0,0.0,0.0,0.0,0.0,1.4429,1.5749,1.9105,2.3339,2.8501,3.0949,3.2332,3.2611,3.1266,3.0266,2.9474,2.6788,2.0652,1.2321,0.861,0.5085,0.0,0.0,0.0,0.0,0.0,0.0,0.0,0.0,0.0,0.0,0.0,0.0,0.0,0.0,0.0,0.0,0.0,0.0,0.0,0.0,0.0,0.0,0.0,0.0,0.0,0.0,0.0,0.0,0.0,0.0,0.0,0.0,0.0,0.0,0.0,0.0,0.0,0.0,2.7955,3.0156,3.0516,3.0131,2.8591,0.0,0.0,0.0,0.0,0.0,0.0,2.5857,2.8549,3.158,3.5045,3.743,4.1322,4.6758,5.4815,5.9393,6.0511,6.1923,6.3743,6.6068,7.1488,7.3925,7.3916,7.3849,7.3003,7.1109,6.4585,6.092,5.9084,5.5816,5.3899,5.2981,5.4055,5.2752,5.0856,0.0,0.0,0.0,0.0,0.0,0.0,0.0,0.0,0.0,0.0,0.0,1.1882,1.4262,1.6863,1.9028,2.0422,1.9917,1.9694,0.0,1.7576,1.6146,1.6264,1.6266,1.6953,1.8472,2.5772,3.1416,3.5217,3.6972,3.8116,3.8412,3.7312,3.6303,3.5276,3.2883,2.7846,2.0757,1.5696,1.1691,0.8392,0.0,0.0,0.0,0.0,0.0,0.0,0.0,0.0,0.0,0.0,0.0,0.0,0.0,0.0,0.0,0.0,0.0,0.0,0.0,0.0,0.0,0.0,0.0,0.0,0.0,0.0,0.0,0.0,0.0,0.0,0.0,0.0,0.0,0.0,0.0,0.0,0.0,0.0,0.0,3.502,3.5809,0.0,0.0,0.0,0.0,3.0551,3.175,3.2824,3.3724,3.625,3.9201,4.2509,4.1906,4.501,5.241,6.3464,6.8148,6.6519,6.9677,7.0924,7.0657,7.3844,7.5923,7.6995,7.6792,7.6217,7.4999,6.9688,6.6559,6.479,6.3208,6.1488,5.9951,6.0521,5.9613,5.8181,0.0,0.0,0.0,0.0,0.0,0.0,0.0,0.0,0.0,0.7952,1.1415,1.4955,1.8249,2.1286,2.3738,2.5409,2.5656,2.5233,2.4119,2.1983,2.1198,2.2294,2.1766,2.4068,2.9591,3.4015,3.7849,4.1184,4.2777,4.3915,4.4507,4.3357,4.2187,4.1079,3.9058,3.5655,3.088,2.3072,1.7179,1.2738,0.8396,0.4044,0.0,0.0,0.0,0.0,0.0,0.0,0.0,0.0,0.0,0.0,0.0,0.0,0.0,0.0,0.0,0.0,0.0,0.0,0.0,0.0,0.0,0.0,0.0,0.0,0.0,0.0,0.0,0.0,0.0,0.0,0.0,0.0,0.0,0.0,0.0,0.0,0.0,4.041,4.1495,0.0,0.0,3.917,3.9794,3.9447,4.1139,4.2395,4.2934,4.5078,4.7369,4.969,5.1213,5.408,5.8373,6.4496,6.795,6.8644,7.2083,7.4067,7.4837,7.7058,7.8608,7.9586,7.9356,7.9152,7.8744,7.6877,7.4179,7.1188,6.9701,6.8345,6.7242,6.7389,6.6377,6.488,0.0,0.0,0.0,0.0,0.0,0.0,0.0,0.0,0.0,1.0256,1.4487,1.8612,2.2275,2.5493,2.779,2.8905,2.9296,2.9038,2.7831,2.5711,2.5101,2.6465,2.7305,3.089,3.7725,4.0897,4.3768,4.6403,4.8147,4.9291,4.9891,4.8615,4.7695,4.684,4.4785,4.2273,3.9056,3.2031,2.5078,1.8364,1.4102,0.9858,0.5505,0.0,0.0,0.0,0.0,0.0,0.0,0.0,0.0,0.0,0.0,0.0,0.0,0.0,0.0,0.0,0.0,0.0,0.0,0.0,0.0,0.0,0.0,0.0,0.0,0.0,0.0,0.0,0.0,0.0,0.0,0.0,0.0,0.0,0.0,0.0,4.4819,4.5079,4.6731,4.6916,4.4413,4.6191,4.7348,4.6904,4.9156,5.0555,5.0639,5.2432,5.4334,5.6286,5.8275,6.0868,6.3901,6.7418,7.0026,7.1815,7.4753,7.7126,7.8952,8.0406,8.1592,8.2474,8.2207,8.2207,8.2273,8.1934,8.0369,7.7726,7.5534,7.3958,7.2894,7.2894,7.1732,7.0113,0.0,0.0,0.0,0.0,0.0,0.0,0.0,0.0,0.9192,1.3483,1.8401,2.2807,2.6329,2.9383,3.114,3.1006,3.0628,3.0685,3.1299,2.8573,2.7441,2.8563,3.2623,3.7142,4.2216,4.6191,4.9181,5.0993,5.3001,5.408,5.4352,5.3219,5.27,5.2577,5.0201,4.7679,4.5108,4.26,3.5591,2.5728,2.1205,1.6881,1.2544,0.0,0.0,0.0,0.0,0.0,0.0,0.0,0.0,0.0,0.0,0.0,0.0,0.0,0.0,0.0,0.0,0.0,0.0,0.0,0.0,0.0,0.0,0.0,0.0,0.0,0.0,0.0,0.0,0.0,0.0,0.0,0.0,0.0,4.2284,4.5788,4.8475,4.9031,5.1547,5.2397,5.0065,5.2329,5.3597,5.2713,5.5387,5.6868,5.6525,5.8184,6.011,6.2315,6.2707,6.4833,6.8994,7.2879,7.5305,7.6274,7.8418,8.0613,8.3024,8.3738,8.4693,8.5583,8.5375,8.5375,8.548,8.4763,8.4455,8.4182,8.058,7.8215,7.6702,7.6669,7.5531,7.373,0.0,0.0,0.0,0.0,0.0,0.0,0.0,0.6934,1.0556,1.4261,2.006,2.5185,2.8703,3.1568,3.3657,3.4479,3.3184,3.2877,3.4199,3.0372,3.0248,3.5096,4.098,4.5935,4.9812,5.2144,5.4096,5.5778,5.7539,5.8391,5.8483,5.8018,5.7456,5.6707,5.4867,5.2745,5.0529,4.757,4.3239,3.7548,2.8557,2.2457,1.8024,0.0,0.0,0.0,0.0,0.0,0.0,0.0,0.0,0.0,0.0,0.0,0.0,0.0,0.0,0.0,0.0,0.0,0.0,0.0,0.0,0.0,0.0,0.0,0.0,0.0,0.0,0.0,0.0,0.0,0.0,0.0,0.0,4.7627,4.7874,5.0561,5.3219,5.5064,5.6511,5.715,5.7089,5.8824,5.9765,5.9482,6.0571,6.1645,6.2229,6.3178,6.4557,6.6806,6.8334,7.0435,7.3237,7.6174,7.8556,8.0441,8.3193,8.5136,8.6117,8.7803,8.8426,8.8257,8.8118,8.7914,8.74,8.7194,8.7022,8.6471,8.3565,8.1589,8.0505,7.996,7.7976,7.5337,0.0,0.0,0.0,0.0,0.0,0.0,0.0,0.7558,1.173,1.613,2.1843,2.703,3.1062,3.3331,3.4749,3.5468,3.4996,3.471,3.4825,3.3618,3.5677,4.1835,4.6467,5.0673,5.4518,5.624,5.782,5.9499,6.1037,6.1874,6.2163,6.207,6.1752,6.1177,5.9553,5.7788,5.5942,5.302,4.9832,4.61,3.8062,3.0987,2.4736,1.9026,1.5197,1.2491,0.9512,0.8095,0.7842,0.8912,0.0,0.0,0.0,0.0,0.0,0.0,0.0,0.0,0.0,0.0,0.0,0.0,0.0,0.0,0.0,0.0,0.0,0.0,0.0,0.0,0.0,0.0,0.0,0.0,4.9419,5.3539,5.4501,5.5906,5.7428,5.9191,6.0493,6.1556,6.2063,6.3443,6.4257,6.4011,6.5172,6.6107,6.6799,6.7733,6.9372,7.1825,7.3105,7.5136,7.787,7.9394,8.1524,8.4234,8.6193,8.7769,8.917,9.0349,9.0907,0.0,9.0804,9.0563,9.0222,8.9913,8.9498,0.0,0.0,0.0,0.0,0.0,8.0174,7.8119,0.0,0.0,0.0,0.0,0.0,0.0,0.0,0.8,1.2666,1.8434,2.3442,2.8368,3.3095,3.4466,3.5065,3.5153,3.6403,3.6476,3.4934,3.8119,4.2576,4.8022,5.0153,5.3207,5.7463,5.9217,6.0818,6.2418,6.3947,6.4893,6.5541,6.5703,6.5736,6.5573,6.4142,6.2685,6.1141,5.8406,5.5442,5.234,4.7964,4.0825,3.2139,2.6499,2.327,2.112,1.7019,1.4644,1.3549,1.4355,0.0,0.0,0.0,0.0,0.0,0.0,0.0,0.0,0.0,0.0,0.0,0.0,0.0,0.0,0.0,0.0,0.0,0.0,0.0,0.0,0.0,0.0,0.0,0.0,5.5023,5.9065,6.1141,6.1352,6.1565,6.2089,6.3839,6.5164,6.5576,6.6784,6.7471,6.7282,6.8786,6.9978,7.0454,0.0,0.0,0.0,0.0,7.8953,8.2191,8.2566,8.4263,8.7511,8.8107,8.9517,9.1829,9.1864,9.2316,9.3118,9.2935,9.2975,9.3054,9.2399,9.164,9.0603,8.788,8.6093,8.4927,8.3256,8.2137,0.0,0.0,0.0,0.0,0.0,0.0,0.0,0.0,0.8457,1.3346,1.8759,2.4064,2.8904,3.3123,3.4326,3.544,3.6882,3.775,3.8958,4.086,4.4691,4.8022,5.0533,5.4601,5.8141,6.0824,6.2891,6.4548,6.5552,6.7724,6.839,6.7994,6.9277,6.9508,6.8847,6.7427,6.6509,6.5706,6.2035,5.9275,5.7106,5.3038,4.6479,3.8582,3.4039,3.0659,2.8052,2.491,2.3366,2.2773,2.2447,2.1202,1.9866,2.0495,0.0,0.0,0.0,0.0,0.0,0.0,0.0,0.0,0.0,0.0,0.0,0.0,0.0,0.0,0.0,0.0,0.0,0.0,0.0,0.0,5.3959,5.7965,6.1302,6.3753,6.5053,6.571,6.5628,6.6512,6.7407,6.8298,6.9042,6.9817,7.0478,7.1051,7.2046,7.3534,7.4884,0.0,7.808,7.9953,8.185,8.3739,8.5776,8.7626,8.9143,0.0,0.0,9.3074,9.388,9.3992,9.3691,9.3945,9.3709,9.3089,9.2951,9.2326,9.1182,8.8774,8.6851,8.5343,8.4757,8.325,8.1476,0.0,0.0,0.0,0.0,0.0,0.0,0.0,0.8575,1.33,1.8353,2.3263,2.7646,3.1126,3.2221,3.3115,3.4084,3.6693,4.0337,4.5125,4.8386,5.1611,5.4888,5.8183,6.1197,6.3703,6.5647,6.7198,6.8602,6.9976,7.0803,7.0897,7.1632,7.1861,7.1613,7.054,6.9946,6.962,6.6013,6.3723,6.2141,5.8035,5.3272,4.7882,4.1388,3.7061,3.4083,3.1745,3.0045,2.8828,2.8369,2.717,2.5788,2.5535,2.3949,2.1805,0.0,0.0,0.0,0.0,0.0,0.0,0.0,0.0,0.0,0.0,0.0,0.0,0.0,0.0,4.0558,0.0,0.0,5.4324,5.8813,6.2063,6.457,6.6274,6.7778,6.8521,6.7715,6.8436,6.9574,7.0674,7.1413,7.2355,7.36,7.3875,7.4708,7.6611,7.7428,7.8974,8.1283,8.259,8.4359,8.662,8.81,8.9755,9.1476,9.3201,9.4351,9.4953,9.5934,9.6072,9.5693,9.5537,9.5158,9.4744,9.3985,9.3009,9.1932,9.0207,8.8487,8.684,8.5807,8.4742,8.3504,0.0,0.0,0.0,0.0,0.0,0.0,0.0,0.0,1.2793,1.7491,2.1744,2.5398,2.8237,2.9308,3.0391,3.187,3.6424,4.1997,4.8482,5.1264,5.4648,5.8958,6.1185,6.3484,6.5975,6.7748,6.9401,7.0916,7.1959,7.2759,7.3384,7.3823,7.4111,7.4126,7.3776,7.3413,7.3108,7.0013,6.8046,6.6455,6.2531,5.9292,5.6027,4.8619,4.339,3.9703,3.7514,3.5336,3.3367,3.2915,3.1871,3.0689,3.0364,2.9337,2.7827,2.5712,2.5894,0.0,0.0,0.0,0.0,0.0,0.0,0.0,0.0,0.0,3.564,3.862,4.2998,4.7503,5.1871,5.5845,5.9784,6.3161,6.5718,6.7651,6.8744,7.0076,7.0674,6.9913,7.0578,7.1692,7.2939,7.363,7.4743,7.634,7.6512,7.7523,7.9608,8.0125,8.1576,8.4345,8.5142,8.6636,8.9184,8.9882,9.1407,9.3724,9.4703,9.5684,9.6745,9.74,9.7676,9.7641,9.6848,9.64,9.6158,9.4675,9.3457,9.2475,9.122,8.9908,8.8354,8.6813,8.6027,8.5479,0.0,0.0,0.0,0.0,0.0,0.0,0.0,0.0,0.0,1.6401,1.96,2.2498,2.528,2.6285,2.9306,3.5565,4.0397,4.5511,5.1147,5.5004,5.8162,6.0687,6.371,6.5775,6.6762,6.9499,7.1198,7.181,7.3979,7.473,7.4218,7.6382,7.7148,7.6587,7.7353,7.725,7.6222,7.3822,7.1336,6.8761,6.5392,6.2098,5.8853,5.5746,5.0772,4.4935,4.1799,3.9085,3.6846,3.6075,3.5093,3.4331,3.5031,3.4574,3.3425,3.1723,0.0,2.9631,2.9137,3.0462,3.2472,3.4015,3.486,3.6409,0.0,0.0,4.3741,4.708,5.1121,5.4571,5.6653,6.0198,6.3626,6.565,6.7388,6.9157,7.1328,7.2036,7.2767,7.4258,7.375,7.3609,7.4681,7.5529,7.6683,7.8179,7.8702,7.9919,8.2167,8.3121,8.4143,8.5119,8.7439,8.8845,8.9551,9.1523,9.3327,9.485,9.5344,9.6212,9.7538,9.7414,9.7448,9.7641,9.6848,9.6124,9.54,9.3663,9.2646,9.2074,9.0308,8.944,8.8981,8.8057,8.6797,8.5363,0.0,0.0,0.0,0.0,0.0,0.0,0.0,0.0,0.0,0.0,1.6868,1.9285,2.0819,2.3331,2.7397,3.347,3.9516,4.5641,5.1682,5.6449,6.0076,6.2498,6.5478,6.7487,6.8354,7.0954,7.2662,7.3283,7.483,7.5914,7.6678,7.7879,7.8667,7.9074,7.9475,7.9529,7.9042,7.6659,7.4599,7.2705,6.8863,6.5517,6.2537,5.9119,5.4562,4.9436,4.553,4.2492,0.0,0.0,3.8337,3.7987,3.8666,3.7816,3.6451,3.5554,3.5228,0.0,3.6094,3.7296,0.0,0.0,4.1142,4.3428,4.6123,4.8227,5.0508,5.3814,5.7377,6.049,6.2594,6.4831,6.699,0.0,6.9945,7.1284,7.2714,7.3695,7.4636,7.5788,7.5733,7.5939,7.6801,7.7297,7.8425,8.0242,8.0555,8.1643,8.3746,8.4042,8.5026,8.7084,8.7955,8.9295,9.1032,9.1987,9.327,9.4919,9.5822,9.645,9.7021,9.7356,9.7207,9.676,9.6529,9.5943,9.504,9.3863,9.2844,9.2108,9.0717,8.9431,8.8361,8.7617,8.6865,8.608,0.0,0.0,0.0,0.0,0.0,0.0,0.0,0.0,0.0,0.0,0.0,1.6195,1.7448,2.0926,2.5344,3.0791,3.7767,4.4673,5.1145,5.6915,6.1201,6.3651,6.6542,6.8524,6.9527,7.1712,7.3426,7.4473,7.5406,7.6844,7.8632,7.9074,7.9949,8.1121,8.1418,8.1555,8.1289,7.9057,7.7228,7.5532,7.1468,6.799,6.4736,6.0523,5.6085,5.1463,4.7408,4.4205,0.0,0.0,3.9533,3.9838,4.0168,3.961,3.8857,3.8802,3.9121,3.9683,4.0881,0.0,0.0,4.4385,4.7318,5.0311,5.1444,5.3892,5.6838,5.9655,6.258,6.5353,6.7218,6.8892,0.0,7.1295,7.2573,7.364,7.428,7.5233,7.6145,7.6899,7.7289,7.766,7.8419,7.8949,7.9868,8.1766,8.2174,8.3268,8.5182,8.5236,8.629,8.8524,8.8608,8.9702,9.2065,9.2416,9.3382,9.5228,9.6115,9.6607,9.6848,9.74,9.7149,9.6165,9.6391,9.5831,9.4816,9.3778,9.2801,9.1997,9.0741,8.9465,8.8192,8.7482,8.7076,8.6738,0.0,0.0,0.0,0.0,0.0,0.0,0.0,0.0,0.0,0.0,0.0,0.0,0.0,0.0,2.3286,2.896,3.6045,4.3051,4.9766,5.6356,6.1365,6.4184,6.6829,6.8895,7.0065,7.1575,7.3258,7.5292,7.6054,7.7285,7.9111,8.0246,8.1329,8.2361,8.3529,8.3709,8.2856,8.1257,7.8948,7.6022,7.2696,6.8705,6.4358,6.021,5.5043,4.9678,4.6418,0.0,0.0,0.0,3.7557,3.8963,3.87,3.965,0.0,4.168,4.1558,0.0,0.0,0.0,4.752,4.956,5.3154,5.672,5.8529,6.0652,6.2733,6.4675,6.6922,6.8838,6.9752,7.1778,7.3523,7.3877,7.4743,7.5677,7.6397,7.6745,7.7223,7.7948,7.8263,7.8776,0.0,8.0108,8.1062,8.2569,8.3847,8.5215,8.6771,8.7516,8.826,8.9004,8.9748,9.064,9.1761,9.285,9.4316,9.6052,9.6391,9.6883,9.7641,9.7676,9.7262,9.6503,9.6165,9.5605,9.4782,9.2747,9.1795,9.1625,8.9794,8.9072,8.897,8.8226,8.7516,8.6805,0.0,0.0,0.0,0.0,0.0,0.0,0.0,0.0,0.0,0.0,0.0,0.0,0.0,0.0,0.0,0.0,3.4558,4.093,4.7323,5.3766,5.843,6.1065,6.5433,6.8309,6.9554,7.1235,7.2922,7.4817,7.5666,7.7069,7.8742,8.038,8.1825,8.3069,8.4217,8.4559,8.4362,8.275,8.0798,7.8335,7.4187,7.0359,6.6485,6.1569,5.5446,4.904,0.0,0.0,0.0,0.0,0.0,0.0,3.7741,0.0,0.0,4.0284,0.0,0.0,0.0,0.0,5.2983,5.5442,5.8817,6.2062,6.396,6.5761,6.7543,6.9178,7.0281,7.1176,7.195,7.2843,7.3653,7.3975,7.52,7.6407,7.6852,7.7528,7.8139,7.837,7.8403,0.0,0.0,0.0,0.0,8.2636,8.4136,8.5607,8.6839,8.7362,8.8216,8.9295,8.9929,9.0788,9.2099,9.2737,9.3851,9.5297,9.5633,9.5882,9.6158,9.6158,9.5874,9.5521,9.5521,9.5272,9.4477,9.2713,9.2099,9.185,8.9872,8.8879,8.8626,8.8388,8.815,8.7701,0.0,0.0,0.0,0.0,0.0,0.0,0.0,0.0,0.0,0.0,0.0,0.0,0.0,0.0,0.0,0.0,0.0,3.7992,4.4125,5.0189,5.4915,5.7792,6.1612,6.4547,6.6351,6.723,6.909,7.2011,7.3053,7.5008,7.7884,7.9281,8.0937,8.2735,8.3552,8.4181,8.448,8.2569,8.0652,7.8338,7.3292,6.8858,6.4706,5.8828,5.2317,0.0,0.0,0.0,0.0,0.0,0.0,0.0,0.0,0.0,0.0,0.0,0.0,0.0,0.0,5.4583,5.7915,6.0596,6.3762,6.6663,6.8344,6.9804,7.1059,7.2062,7.2426,7.267,7.3122,7.3653,7.417,7.4766,7.6276,7.7388,7.7495,7.8444,7.9015,7.8908,7.9015,0.0,0.0,0.0,0.0,8.2819,8.4665,8.6037,8.662,8.7598,8.8588,8.9668,9.0065,9.0923,9.2249,9.2645,9.3566,9.4885,9.5254,9.54,9.5254,9.5254,9.5143,9.4885,9.5031,9.4953,9.4477,9.2713,9.2099,9.204,8.9872,8.899,8.8803,8.8693,8.8524,8.8041,0.0,0.0,0.0,0.0,0.0,0.0,0.0,0.0,0.0,0.0,0.0,0.0,0.0,0.0,0.0,0.0,0.0,0.0,3.9977,4.5923,5.0806,5.4439,5.6014,5.8072,6.083,6.0352,6.243,6.7387,6.8374,7.1336,7.6085,7.6701,7.8369,8.0708,8.1417,8.2179,8.2794,8.044,7.8275,7.5941,6.9979,6.4534,5.9222,5.2601,0.0,0.0,0.0,0.0,0.0,0.0,0.0,0.0,0.0,0.0,0.0,0.0,0.0,5.2082,5.473,5.8428,6.2195,6.5187,6.8055,7.0423,7.1737,7.2712,7.3338,7.3128,7.3012,7.3089,0.0,0.0,7.489,7.6299,7.7651,7.8643,7.8643,7.9421,7.9994,0.0,0.0,0.0,0.0,0.0,0.0,8.3432,0.0,8.6466,8.6466,8.8182,8.941,9.0188,9.0256,9.0966,9.2421,9.2802,9.3634,9.4885,9.5143,9.5143,9.4885,9.4885,9.4885,9.4885,9.458,9.4693,9.4601,9.2713,9.1953,9.2006,8.9872,8.9295,8.9407,8.915,8.8598,8.7897,0.0,0.0,0.0,0.0,0.0,0.0,0.0,0.0,0.0,0.0,0.0,0.0,0.0,0.0,0.0,0.0,0.0,0.0,3.4929,4.0446,4.5081,4.8597,5.2875,5.6199,5.86,6.0254,6.2089,6.4217,6.5648,6.7085,6.8533,6.9985,7.1268,7.2543,7.414,7.506,7.537,7.4203,7.2171,6.9376,0.0,6.0812,5.6115,0.0,0.0,0.0,0.0,0.0,0.0,0.0,0.0,0.0,0.0,0.0,4.2339,0.0,0.0,5.5619,5.9627,6.3325,6.659,6.9236,7.1782,7.3696,7.3957,7.4363,7.4365,7.3366,7.238,7.169,0.0,0.0,0.0,7.5677,7.8037,0.0,8.0134,8.0409,0.0,0.0,0.0,8.1868,8.3049,8.3593,0.0,0.0,8.6059,8.7015,8.724,8.8228,8.9184,9.0188,9.0729,9.1474,9.2421,9.3311,9.3917,9.4236,9.4614,9.4727,9.4614,9.4614,9.4614,9.4614,9.4693,9.4351,9.3656,9.2844,9.2014,9.1288,8.9891,8.9407,8.9449,8.8795,8.8456,8.8082,0.0,0.0,0.0,0.0,0.0,0.0,0.0,0.0,0.0,0.0,0.0,0.0,0.0,0.0,0.0,0.0,0.0,0.0,0.0,3.566,3.9715,4.2851,4.6729,4.9801,5.2049,5.3788,5.5796,5.7985,5.9234,6.0621,6.2016,6.2877,6.4018,6.5533,6.6809,6.795,6.8811,6.768,6.5839,0.0,0.0,0.0,0.0,0.0,0.0,0.0,0.0,0.0,0.0,0.0,0.0,3.5515,3.7619,4.1284,4.5643,4.956,0.0,6.0253,6.3811,6.7535,7.07,7.2495,7.4214,7.5316,7.4555,7.4301,7.372,7.1585,7.063,0.0,0.0,0.0,0.0,0.0,0.0,0.0,8.1128,8.157,8.2034,0.0,8.2863,0.0,8.4374,8.4771,8.5136,0.0,8.6512,8.7203,8.7317,8.8216,8.9184,9.0188,9.0932,9.1812,9.2928,9.3345,9.3665,9.4005,9.3703,9.3566,9.3759,9.3418,9.3452,9.3759,0.0,9.3827,9.3494,9.2664,9.1911,9.1091,8.9559,8.9041,8.8939,8.8191,8.7607,8.7091,0.0,0.0,0.0,0.0,0.0,0.0,0.0,0.0,0.0,0.0,0.0,0.0,0.0,0.0,0.0,0.0,0.0,0.0,0.0,0.0,3.4682,3.7422,3.9752,4.1944,4.4041,4.5316,4.7408,5.0587,5.1396,5.3123,5.5529,5.5234,5.6199,5.8174,5.8957,6.021,6.1745,6.0331,5.8749,5.6918,0.0,0.0,0.0,0.0,0.0,0.0,0.0,0.0,0.0,0.0,3.7357,3.8122,4.0266,4.4989,5.0485,5.3743,5.9417,6.5085,6.7542,7.1035,7.4288,7.5166,7.5879,7.5924,7.4188,7.321,7.1842,6.8764,0.0,6.8177,6.7701,7.0707,7.3744,7.4563,0.0,8.105,8.1976,8.2797,8.3573,8.4208,8.4504,8.4803,8.5335,8.5964,8.6328,8.6328,8.6878,8.7223,8.7223,8.8283,8.9331,9.0074,9.0932,9.1947,9.3267,9.2822,9.3053,9.3583,9.26,9.2328,9.2713,9.2067,9.2135,9.2713,0.0,0.0,9.3332,9.2235,9.1451,9.0966,8.9158,8.8361,8.8048,8.7301,8.6548,8.5757,0.0,0.0,0.0,0.0,0.0,0.0,0.0,0.0,0.0,0.0,1.1381,1.0914,0.0,0.0,0.0,0.0,0.0,0.0,0.0,0.0,0.0,3.2993,3.6453,3.9036,4.0486,0.0,0.0,0.0,0.0,4.6714,4.6496,4.6118,4.617,4.6556,4.8271,4.9818,5.1175,5.0256,4.9536,0.0,0.0,0.0,0.0,0.0,0.0,0.0,0.0,0.0,0.0,0.0,3.9439,4.1592,4.5474,4.9675,5.4142,5.8047,6.2878,6.7466,7.0683,7.3327,7.5614,7.7361,7.7233,7.6272,7.4253,7.1804,0.0,0.0,0.0,6.5719,6.5792,7.0034,7.3988,7.5319,0.0,0.0,0.0,0.0,8.4044,0.0,0.0,0.0,0.0,0.0,0.0,0.0,0.0,0.0,8.7645,8.8127,8.876,8.9879,9.0818,9.1406,9.1677,9.1656,9.1656,9.1792,9.1521,9.1487,9.1589,9.1487,9.1487,9.1589,0.0,0.0,9.1604,9.1357,9.0502,8.9346,8.8606,8.7946,8.7118,8.6339,8.6,8.5689,0.0,0.0,0.0,0.0,0.0,0.0,0.0,0.0,1.1234,1.4849,1.5099,1.4888,1.483,1.5105,0.0,0.0,0.0,0.0,0.0,0.0,0.0,0.0,0.0,0.0,0.0,0.0,0.0,0.0,0.0,0.0,0.0,0.0,0.0,0.0,0.0,0.0,0.0,0.0,0.0,0.0,0.0,0.0,0.0,0.0,0.0,0.0,0.0,0.0,0.0,0.0,4.1394,4.5681,4.8894,5.2818,5.7169,6.1473,6.5973,7.0078,7.2958,7.5673,7.7924,7.8066,7.7403,7.5794,7.246,0.0,0.0,0.0,0.0,6.3526,6.3793,0.0,0.0,0.0,0.0,0.0,0.0,0.0,0.0,0.0,0.0,0.0,0.0,0.0,0.0,0.0,0.0,0.0,8.7728,8.7962,8.8645,8.9499,9.0216,9.0703,9.1074,9.0818,9.0932,9.1271,9.0527,9.0357,9.0729,9.0324,9.0357,9.0729,9.0844,0.0,9.1083,9.0342,8.9635,8.8794,8.7687,8.6854,8.623,8.5701,8.5289,8.5148,0.0,0.0,0.0,0.0,0.0,0.0,0.0,1.1696,1.4301,1.7465,1.8644,1.8783,1.7642,1.6536,1.6072,0.0,0.0,0.0,0.0,0.0,0.0,0.0,0.0,0.0,0.0,0.0,0.0,0.0,0.0,0.0,0.0,0.0,0.0,0.0,0.0,0.0,0.0,0.0,0.0,0.0,0.0,0.0,0.0,0.0,0.0,0.0,0.0,0.0,0.0,0.0,4.1904,4.7222,5.0401,5.492,5.9819,6.3872,6.8339,7.2432,7.4636,7.7557,7.9701,7.8427,7.7166,7.4998,7.0599,6.6963,0.0,0.0,6.1714,6.1947,6.2504,0.0,6.956,0.0,7.3523,0.0,0.0,0.0,0.0,0.0,0.0,0.0,0.0,0.0,0.0,0.0,0.0,0.0,8.7611,8.7962,8.8346,8.8914,8.9297,8.9716,9.0287,8.9947,8.996,9.0331,8.9297,8.8959,8.9365,8.8869,8.9038,8.9748,8.9748,0.0,0.0,8.9397,8.8727,8.8379,8.6729,8.5904,8.5452,8.509,8.4853,8.4747,0.0,0.0,0.0,0.0,0.0,0.0,0.0,1.3162,1.6223,2.1093,2.0447,1.9586,1.9624,1.8219,1.7031,0.0,0.0,0.0,0.0,0.0,0.0,0.0,0.0,0.0,0.0,0.0,0.0,0.0,0.0,0.0,0.0,0.0,0.0,0.0,0.0,0.0,0.0,0.0,0.0,0.0,0.0,0.0,0.0,0.0,0.0,0.0,0.0,0.0,0.0,0.0,0.0,4.2665,4.8895,5.5816,6.213,6.4938,0.0,0.0,7.5719,7.7915,7.9428,7.8665,7.6744,7.4012,6.9941,0.0,0.0,6.164,6.1103,6.1289,6.2762,0.0,0.0,0.0,0.0,7.6459,0.0,0.0,0.0,0.0,0.0,0.0,0.0,0.0,0.0,0.0,0.0,0.0,0.0,8.7611,8.7762,8.7828,8.8179,8.8328,8.8395,8.8444,8.8109,8.7505,8.7598,8.7307,8.6701,8.7,8.7516,8.8192,0.0,0.0,0.0,8.8506,8.7871,8.7341,8.6311,8.5351,8.4708,8.464,8.4853,8.5063,0.0,0.0,0.0,0.0,0.0,0.0,1.301,1.5842,1.8965,2.3155,2.3362,2.2631,2.1267,1.9986,1.8199,0.0,0.0,0.0,0.0,0.0,0.0,0.0,0.0,0.0,0.0,0.0,0.0,0.0,0.0,0.0,0.0,0.0,0.0,0.0,0.0,0.0,0.0,0.0,0.0,0.0,0.0,0.0,0.0,0.0,0.0,0.0,0.0,0.0,0.0,0.0,0.0,0.0,4.604,5.2581,0.0,0.0,6.9854,7.4331,7.7221,7.924,8.0203,7.9097,7.6801,7.353,6.9317,0.0,6.2333,6.0849,6.0175,6.0413,6.2043,6.3433,6.5429,6.8957,7.0096,7.2562,7.8159,0.0,0.0,0.0,0.0,0.0,0.0,0.0,0.0,0.0,0.0,0.0,0.0,8.7143,8.7493,8.7493,8.7728,8.7645,8.7294,8.741,8.7156,8.642,8.6724,8.6701,8.6398,8.6797,8.7076,8.7347,0.0,0.0,0.0,8.7084,8.6684,8.6559,8.5492,8.4911,8.4606,8.4853,8.4958,8.5168,0.0,0.0,0.0,0.0,0.0,0.9943,1.4513,1.7634,2.0617,2.3806,2.4458,2.3867,2.1695,2.0254,1.843,1.6126,0.0,0.0,0.0,0.0,0.0,0.0,0.0,0.0,0.0,0.0,0.0,0.0,0.0,0.0,0.0,0.0,0.0,0.0,0.0,0.0,0.0,0.0,0.0,0.0,0.0,0.0,0.0,0.0,0.0,0.0,0.0,0.0,0.0,0.0,0.0,0.0,0.0,0.0,0.0,0.0,6.9219,7.4058,7.7365,7.935,8.0174,7.8911,7.6463,7.3076,0.0,0.0,6.2001,6.0593,5.9743,5.9801,6.1489,6.2124,6.3589,6.7113,6.8055,7.0172,7.5319,7.6939,0.0,0.0,0.0,0.0,0.0,0.0,0.0,0.0,0.0,0.0,0.0,8.596,8.6608,8.6958,8.6962,8.6713,8.6181,8.6411,8.6159,8.5424,8.5616,8.5739,8.5648,8.6012,8.6257,8.6569,0.0,0.0,0.0,8.6203,8.5864,8.6011,8.5018,8.464,8.464,8.4958,8.5168,8.5273,0.0,0.0,0.0,0.0,0.0,0.0,0.0,1.7993,2.0548,2.2924,2.2941,2.2153,2.0603,1.8529,1.7364,1.7749,0.0,0.0,0.0,0.0,0.0,0.0,0.0,0.0,0.0,0.0,0.0,0.0,0.0,0.0,0.0,0.0,0.0,0.0,0.0,0.0,0.0,0.0,0.0,0.0,0.0,0.0,0.0,0.0,0.0,0.0,0.0,0.0,0.0,0.0,0.0,0.0,0.0,0.0,5.2551,0.0,6.73,7.2902,7.5734,7.7809,7.8817,7.7765,7.5461,7.2612,0.0,0.0,6.3018,6.1243,5.9982,5.9603,6.1475,6.1809,6.2879,6.6133,6.8044,7.0716,7.5196,0.0,0.0,0.0,0.0,0.0,0.0,0.0,0.0,0.0,0.0,0.0,0.0,8.3736,8.4814,8.6163,8.55,8.5136,8.5136,8.5136,8.4738,8.401,8.4318,8.4255,8.3808,8.4136,8.4865,0.0,0.0,0.0,0.0,8.6095,8.579,8.5689,8.4945,8.464,8.464,8.4958,8.5307,8.548,0.0,0.0,0.0,0.0,0.0,0.0,0.0,1.6218,1.8548,2.0256,2.0286,2.0064,1.9691,1.8186,1.7339,1.7749,0.0,0.0,0.0,0.0,0.0,0.0,0.0,0.0,0.0,0.0,2.3474,2.349,2.3761,0.0,0.0,0.0,0.0,0.0,0.0,0.0,0.0,0.0,0.0,0.0,0.0,0.0,0.0,0.0,0.0,0.0,0.0,0.0,0.0,0.0,0.0,0.0,0.0,0.0,0.0,5.4922,0.0,0.0,7.2739,7.4872,7.6022,7.4557,7.2642,7.0251,6.7211,0.0,6.2018,6.0036,5.9357,5.9525,6.0758,6.0913,6.2624,6.7981,6.9115,7.0791,0.0,0.0,0.0,0.0,0.0,0.0,0.0,0.0,0.0,0.0,0.0,0.0,0.0,8.3277,8.3972,8.505,8.4852,8.4606,8.4374,8.4341,8.3976,8.3248,8.3553,8.3532,8.3443,8.3993,0.0,0.0,0.0,0.0,0.0,8.508,8.4979,8.4911,8.4133,8.3862,8.3968,8.4385,8.4729,8.4899,0.0,0.0,0.0,0.0,0.0,0.0,0.0,1.4784,1.6637,1.8049,1.7903,1.793,1.8503,1.7168,1.6646,1.7724,0.0,0.0,0.0,0.0,0.0,0.0,0.0,0.0,0.0,2.1587,2.2854,2.4037,2.4476,2.433,2.3609,2.2955,0.0,0.0,0.0,0.0,0.0,0.0,0.0,0.0,0.0,0.0,1.6944,0.0,0.0,0.0,0.0,0.0,0.0,0.0,0.0,0.0,0.0,0.0,0.0,0.0,0.0,0.0,0.0,7.1352,7.2578,7.1865,7.0031,0.0,0.0,0.0,6.1088,5.9866,5.913,5.8981,6.0325,6.0409,6.1889,6.7007,0.0,0.0,0.0,0.0,0.0,0.0,0.0,0.0,0.0,0.0,0.0,0.0,0.0,0.0,0.0,0.0,8.2616,8.3395,8.3545,8.3581,8.335,8.335,8.3119,8.277,8.2883,8.3108,8.3332,8.3665,0.0,0.0,0.0,0.0,0.0,8.4229,8.4094,8.4133,8.3389,8.3084,8.3222,8.4046,8.4353,8.4523,0.0,0.0,0.0,0.0,0.0,0.0,0.0,0.0,1.4851,1.6276,1.5833,1.5816,1.6954,1.5612,1.5429,1.7457,0.0,0.0,0.0,0.0,0.0,0.0,0.0,0.0,0.0,2.0862,2.2635,2.5362,2.5082,2.4892,2.4822,2.4351,2.2204,0.0,0.0,0.0,0.0,0.0,0.0,0.0,0.0,0.0,0.0,0.0,0.0,0.0,0.0,0.0,0.0,0.0,0.0,0.0,0.0,0.0,0.0,0.0,0.0,0.0,0.0,0.0,0.0,0.0,0.0,0.0,0.0,0.0,0.0,6.0363,5.8938,5.832,6.0136,6.0306,6.1086,0.0,0.0,0.0,0.0,0.0,0.0,0.0,0.0,0.0,0.0,0.0,0.0,0.0,0.0,0.0,0.0,0.0,8.1047,8.1336,8.157,8.1951,8.2329,8.2067,8.2034,8.2263,8.2263,8.2605,8.3166,8.3166,0.0,0.0,0.0,0.0,0.0,8.3442,8.3245,8.3355,8.2611,8.234,8.2511,8.3807,8.4284,8.4386,0.0,0.0,0.0,0.0,0.0,0.0,0.0,0.0,0.0,0.0,1.393,1.4085,1.4987,1.4923,1.5108,0.0,0.0,0.0,0.0,0.0,0.0,0.0,0.0,0.0,0.0,1.9988,2.1988,2.4105,2.4987,2.551,2.582,2.4381,2.2323,1.9733,1.7878,0.0,0.0,0.0,0.0,0.0,0.0,0.0,0.0,0.0,0.0,0.0,1.7847,2.0844,0.0,0.0,0.0,0.0,0.0,0.0,0.0,0.0,4.8702,0.0,0.0,0.0,0.0,0.0,0.0,0.0,0.0,0.0,0.0,0.0,0.0,5.8102,6.0179,5.9917,6.1187,0.0,0.0,0.0,0.0,0.0,0.0,0.0,0.0,0.0,0.0,0.0,0.0,0.0,0.0,0.0,0.0,0.0,8.0074,7.9903,7.9755,8.0098,8.123,8.0818,8.0781,8.0781,8.0972,8.1194,8.1304,8.1524,0.0,0.0,0.0,0.0,8.3409,8.2773,8.2574,8.2611,8.1832,8.1562,8.1732,8.2786,8.3262,8.3668,0.0,0.0,0.0,0.0,0.0,0.0,0.0,0.0,0.0,0.0,0.0,0.0,0.0,0.0,0.0,0.0,0.0,0.0,0.0,0.0,0.0,0.0,0.0,0.0,1.7485,1.8955,2.1129,2.3897,2.452,2.5185,2.5794,2.4419,2.2116,1.9076,1.6146,0.0,0.0,0.0,0.0,0.0,0.0,0.0,0.0,0.0,0.0,0.0,1.7804,2.0901,0.0,2.7968,3.1519,3.4753,0.0,0.0,0.0,0.0,4.6038,4.8333,5.0549,5.5118,5.9275,5.9161,0.0,0.0,0.0,0.0,0.0,0.0,0.0,5.7848,5.9859,0.0,0.0,0.0,0.0,0.0,0.0,0.0,0.0,0.0,0.0,0.0,0.0,0.0,0.0,0.0,0.0,0.0,0.0,0.0,7.9425,7.9152,7.868,7.8989,8.0166,7.9888,7.9805,8.003,8.0254,8.0476,8.0697,8.0883,0.0,0.0,0.0,0.0,8.2348,8.1821,8.1589,8.1626,8.1088,8.0784,8.0919,8.2276,8.2989,8.3294,0.0,0.0,0.0,0.0,0.0,0.0,0.0,0.0,0.0,0.0,0.0,0.0,0.0,0.0,0.0,0.0,0.0,0.0,0.0,0.0,0.0,0.0,0.0,1.6409,1.7532,1.8189,2.026,2.3884,2.4008,2.4546,2.5369,2.4506,2.1799,1.7639,1.4134,1.211,0.0,0.0,0.0,0.0,0.0,0.0,0.0,0.0,0.0,0.0,0.0,0.0,0.0,2.8436,3.2016,3.4968,3.6589,0.0,0.0,0.0,0.0,0.0,4.8906,5.2944,5.6708,5.757,5.7794,0.0,0.0,0.0,0.0,0.0,0.0,0.0,0.0,0.0,0.0,0.0,0.0,0.0,0.0,0.0,0.0,0.0,0.0,0.0,0.0,0.0,0.0,0.0,0.0,0.0,0.0,0.0,0.0,7.8564,7.7981,7.8031,7.8893,7.8762,7.8909,7.9444,7.9557,7.9813,8.0366,8.0366,0.0,0.0,0.0,0.0,8.1364,8.0627,8.0536,8.0643,8.0344,8.0209,8.0344,8.2004,8.2887,8.3394,0.0,0.0,0.0,0.0,0.0,0.0,0.0,0.0,0.0,0.0,0.0,0.0,0.0,0.0,0.0,0.0,0.0,0.0,0.0,0.0,0.0,0.0,1.5406,1.6032,1.8061,1.846,2.0085,2.3026,2.3978,2.4715,2.5294,2.4746,2.1729,1.662,1.4171,1.2049,1.0324,0.0,0.0,0.0,0.0,0.0,0.0,0.0,0.0,0.0,0.0,0.0,0.0,2.7455,3.0703,3.3734,3.4762,0.0,0.0,0.0,0.0,0.0,4.9446,5.2675,5.443,5.3529,5.4394,5.5429,0.0,0.0,0.0,0.0,0.0,0.0,0.0,0.0,0.0,0.0,0.0,0.0,0.0,0.0,0.0,0.0,0.0,0.0,0.0,0.0,0.0,0.0,0.0,0.0,0.0,0.0,0.0,7.7139,7.701,7.6718,7.6312,7.7008,7.7637,7.7937,7.819,7.8518,7.8842,7.8842,7.9206,0.0,0.0,7.9602,8.0275,7.9961,7.997,7.9936,8.0141,8.0209,8.031,8.1224,8.2242,8.3326,0.0,0.0,0.0,0.0,0.0,0.0,0.0,0.0,0.0,0.0,0.0,0.0,0.0,0.0,0.0,0.0,0.0,0.0,0.0,0.0,0.0,1.8307,1.7573,1.7476,1.8157,1.9253,2.1129,2.4001,2.4927,2.5569,2.5897,2.3107,1.9609,1.5542,1.3537,1.1734,1.0101,0.0,0.0,0.0,0.0,0.0,0.0,0.0,0.0,0.0,0.0,0.0,0.0,0.0,3.056,3.331,3.439,0.0,0.0,0.0,0.0,0.0,4.7091,5.0319,5.265,5.3135,5.5588,5.7683,5.7326,0.0,0.0,0.0,0.0,0.0,0.0,0.0,0.0,0.0,0.0,0.0,0.0,0.0,0.0,0.0,0.0,0.0,0.0,0.0,0.0,0.0,0.0,0.0,0.0,0.0,0.0,0.0,7.6783,7.6459,7.5714,7.615,7.6502,7.6801,7.6943,7.7467,7.8296,7.8296,7.8602,7.9007,0.0,7.8923,7.9402,7.9522,7.9699,7.9801,8.0107,8.0209,8.0276,8.1224,8.2241,8.3223,0.0,0.0,0.0,0.0,0.0,0.0,0.0,0.0,0.0,0.0,0.0,0.0,0.0,0.0,0.0,0.0,0.0,0.0,0.0,0.0,1.6888,1.9877,1.9846,1.9949,2.021,2.1263,2.3171,2.5871,2.6614,2.686,2.6492,2.1947,1.817,1.5224,1.326,1.1572,1.0123,1.0187,1.0492,0.0,0.0,0.0,0.0,0.0,0.0,0.0,0.0,0.0,0.0,0.0,0.0,0.0,0.0,0.0,0.0,3.9277,4.0211,4.1874,4.5846,4.9061,5.1915,5.44,0.0,5.9679,5.999,0.0,0.0,0.0,0.0,0.0,0.0,0.0,0.0,0.0,0.0,0.0,0.0,0.0,0.0,0.0,0.0,0.0,0.0,0.0,0.0,0.0,0.0,0.0,0.0,0.0,0.0,0.0,7.6362,7.5941,7.5229,7.5229,7.5404,7.5864,7.5973,7.6485,7.7552,7.766,7.7866,7.8279,7.8279,7.8452,7.8936,7.9284,7.9596,7.9801,8.0107,8.0209,8.0276,8.1325,8.2137,8.261,0.0,0.0,0.0,0.0,0.0,0.0,0.0,0.0,0.0,0.0,0.0,0.0,0.0,0.0,0.0,0.0,0.0,0.0,0.0,0.0,1.6958,1.8507,2.0623,2.3162,2.6126,2.5427,2.6217,2.8548,2.9149,2.8487,2.6673,2.2783,1.9384,1.6359,1.4057,1.1958,1.0136,1.0254,1.0646,0.0,0.0,0.0,0.0,0.0,0.0,0.0,0.0,0.0,0.0,0.0,0.0,0.0,0.0,0.0,3.8167,3.9946,4.0905,4.272,4.8285,5.101,5.312,5.6737,5.7765,0.0,6.0456,6.0537,0.0,0.0,0.0,0.0,0.0,0.0,0.0,0.0,0.0,0.0,0.0,0.0,0.0,0.0,0.0,0.0,0.0,0.0,0.0,0.0,0.0,0.0,0.0,0.0,0.0,0.0,0.0,7.4419,7.3739,7.3739,7.4171,7.518,7.5471,7.5685,7.6037,7.6352,7.6854,7.7484,7.7484,7.7987,7.8936,7.9284,7.9596,7.9801,8.0107,8.0209,8.0276,8.1325,8.149,8.1244,0.0,0.0,0.0,0.0,0.0,0.0,0.0,0.0,0.0,0.0,0.0,0.0,0.0,0.0,0.0,0.0,0.0,0.0,0.0,0.0,1.8282,2.1053,2.3244,2.584,2.8983,2.8909,3.0023,3.2426,3.1126,2.9454,2.7262,2.2723,1.9371,1.7019,1.4441,1.3,1.2486,1.173,1.2375,1.3802,1.3178,0.0,0.0,0.0,0.0,0.0,0.0,0.0,0.0,0.0,2.7824,3.0314,3.2171,3.4654,3.7229,3.8929,3.9776,4.1069,4.5191,4.8805,5.2109,5.5353,5.8349,0.0,0.0,6.3105,6.4406,0.0,0.0,0.0,0.0,0.0,0.0,0.0,0.0,0.0,0.0,0.0,0.0,0.0,0.0,0.0,0.0,0.0,0.0,0.0,0.0,0.0,0.0,0.0,0.0,0.0,0.0,7.4257,7.3577,7.3577,7.3588,7.3747,7.431,7.4948,7.5693,7.5905,7.6385,7.6963,7.7462,7.8107,7.8822,7.9394,7.9801,8.0107,8.0209,8.0209,8.0242,8.0816,8.1047,8.1039,0.0,0.0,0.0,0.0,0.0,0.0,0.0,0.0,0.0,0.0,0.0,0.0,0.0,0.0,0.0,0.0,0.0,0.0,1.664,1.7375,1.9119,2.215,2.4523,2.7139,3.0129,3.1704,3.3057,3.4307,3.2213,2.9838,2.7147,2.2988,2.0138,1.849,1.5843,1.4948,1.5277,1.3836,1.421,1.566,1.4796,1.5119,0.0,0.0,0.0,0.0,0.0,0.0,0.0,0.0,2.7573,2.9934,3.1963,3.4438,3.6849,3.83,3.9414,4.0814,4.3332,4.7193,5.1204,0.0,0.0,0.0,6.4902,6.5941,6.7528,0.0,0.0,0.0,0.0,0.0,0.0,0.0,0.0,0.0,0.0,0.0,0.0,0.0,0.0,0.0,0.0,0.0,0.0,0.0,0.0,0.0,0.0,0.0,0.0,0.0,0.0,7.3609,7.2897,7.2897,7.2647,7.2248,7.2842,7.3803,7.4931,7.5246,7.5761,7.6404,7.6937,7.7714,7.8455,7.896,7.9364,7.9632,8.0106,8.014,7.9971,8.0408,8.0808,8.12,0.0,0.0,0.0,0.0,0.0,0.0,0.0,0.0,0.0,0.0,0.0,0.0,0.0,0.0,0.0,0.0,0.0,0.0,1.77,1.8224,1.9221,2.083,2.3987,2.6974,2.9725,3.3847,3.5135,3.3609,3.216,2.9687,2.615,2.3738,2.2091,2.1095,1.8635,1.7842,1.8231,1.649,1.5944,1.6256,1.6324,1.6779,0.0,0.0,0.0,0.0,0.0,0.0,0.0,0.0,2.7946,3.0052,3.2546,3.5194,3.7455,3.8215,4.0259,4.2532,4.3543,4.6895,0.0,0.0,0.0,0.0,6.7366,6.881,7.0043,0.0,0.0,0.0,0.0,0.0,0.0,0.0,0.0,0.0,0.0,0.0,0.0,0.0,0.0,0.0,0.0,0.0,0.0,0.0,0.0,0.0,0.0,0.0,0.0,0.0,0.0,0.0,7.1407,7.1407,7.1188,7.0815,7.1088,7.2145,7.3797,7.407,7.4738,7.5605,7.5638,7.6442,7.7908,7.7908,7.8104,7.8468,7.9998,8.0134,7.959,8.0338,8.0906,8.1393,0.0,0.0,0.0,0.0,0.0,0.0,0.0,0.0,0.0,0.0,0.0,0.0,0.0,0.0,0.0,0.0,0.0,0.0,1.7558,1.8653,1.9706,2.0654,2.4194,2.6312,2.6833,2.9186,3.1545,3.3967,3.2407,2.9822,2.6092,2.3903,2.2724,2.2326,2.1066,2.0584,2.0657,1.903,1.8772,1.9396,1.8993,1.9181,1.9852,0.0,0.0,0.0,0.0,0.0,0.0,0.0,0.0,0.0,3.1449,3.463,3.7313,3.7232,3.9005,4.1032,4.1708,4.506,0.0,0.0,0.0,0.0,0.0,6.9544,0.0,0.0,0.0,0.0,0.0,0.0,0.0,0.0,0.0,0.0,0.0,0.0,0.0,0.0,0.0,0.0,0.0,0.0,0.0,0.0,0.0,0.0,0.0,0.0,0.0,0.0,0.0,0.0,7.0695,7.118,7.1259,7.1088,7.1189,7.1882,7.3006,7.3509,7.4206,7.5204,7.5938,7.6669,7.7488,7.8224,7.8524,7.8654,7.9132,7.9473,7.978,8.0179,8.0817,8.1393,0.0,0.0,0.0,0.0,0.0,0.0,0.0,0.0,0.0,0.0,1.3392,0.0,0.0,0.0,0.0,0.0,0.0,0.0,0.0,1.9199,2.0322,2.1385,2.4464,2.6672,2.7764,2.8961,3.0119,3.1367,3.0514,2.8656,2.5827,2.5246,2.5217,2.5602,2.488,2.4563,2.4554,2.2942,2.231,2.2405,2.2217,2.2245,2.2451,0.0,0.0,0.0,0.0,0.0,0.0,0.0,0.0,0.0,3.0413,3.3135,3.571,3.6714,3.8592,4.0732,4.2675,0.0,0.0,0.0,0.0,0.0,0.0,0.0,0.0,0.0,0.0,0.0,0.0,0.0,0.0,0.0,0.0,0.0,0.0,0.0,0.0,0.0,0.0,0.0,0.0,0.0,0.0,0.0,0.0,0.0,0.0,0.0,0.0,0.0,0.0,0.0,6.9982,7.0474,7.062,7.0304,7.0403,7.0996,7.2052,7.3011,7.407,7.51,7.6024,7.6707,7.7025,7.8092,7.8289,7.799,7.8605,7.8913,7.9213,7.9891,8.0535,8.1173,0.0,0.0,0.0,0.0,0.0,0.0,0.0,0.0,0.0,0.0,1.2968,1.356,0.0,0.0,0.0,0.0,0.0,0.0,0.0,0.0,2.1109,2.2742,2.4941,2.7624,3.0799,3.1238,2.9997,2.7157,2.7506,2.6977,2.5689,2.7422,2.8857,2.9984,2.9369,2.9072,2.8916,2.7128,2.5904,2.5112,2.5575,2.5487,2.5081,2.5105,0.0,0.0,0.0,0.0,0.0,0.0,0.0,0.0,2.9607,3.1368,3.3342,3.625,3.8667,4.1206,4.506,0.0,0.0,0.0,0.0,0.0,0.0,0.0,0.0,0.0,0.0,0.0,0.0,0.0,0.0,0.0,0.0,0.0,0.0,0.0,0.0,0.0,0.0,0.0,0.0,0.0,0.0,0.0,0.0,0.0,0.0,0.0,0.0,0.0,0.0,0.0,6.9205,6.9477,6.9351,0.0,6.922,6.9808,7.0958,7.2577,7.3903,7.5064,7.6088,7.6495,7.6656,7.78,7.7663,7.6931,7.8372,7.8544,7.8225,7.9599,8.0243,8.0731,0.0,0.0,0.0,0.0,0.0,0.0,0.0,0.0,0.0,0.0,0.0,0.0,0.0,0.0,0.0,0.0,0.0,0.0,0.0,0.0,2.2539,2.3616,2.6444,2.8368,2.9094,2.8047,2.7199,2.6634,2.7691,2.7659,2.6637,2.9055,3.0694,3.1637,3.1485,3.06,2.9103,2.73,2.6434,2.6296,2.6781,2.6886,2.6725,2.6788,2.6062,0.0,0.0,0.0,0.0,0.0,0.0,0.0,2.9405,3.1408,3.3171,3.4339,3.738,4.094,0.0,4.7309,0.0,0.0,0.0,0.0,0.0,0.0,0.0,0.0,0.0,0.0,0.0,0.0,0.0,0.0,0.0,0.0,0.0,0.0,0.0,0.0,0.0,0.0,0.0,0.0,0.0,0.0,0.0,0.0,0.0,0.0,0.0,6.8687,6.9237,6.9173,6.8428,6.8661,6.8862,0.0,6.8726,6.9313,7.0924,7.1704,7.3144,7.5085,7.585,7.6368,7.6736,7.6999,7.7147,7.7168,7.7478,7.7982,7.8577,7.8888,7.9588,8.0483,0.0,0.0,0.0,0.0,0.0,0.0,0.0,0.0,0.0,0.0,0.0,0.0,0.0,0.0,0.0,0.0,0.0,0.0,0.0,0.0,2.3871,2.6149,2.8001,2.8788,2.8252,2.751,2.6771,2.6111,2.8011,2.8798,2.8561,3.0654,3.2481,3.4027,3.3604,3.2653,3.1243,3.002,2.9225,2.8879,2.9365,2.9139,2.8419,2.8417,2.7224,0.0,0.0,0.0,0.0,0.0,0.0,0.0,0.0,0.0,3.1572,3.4259,3.7196,0.0,0.0,0.0,0.0,6.1599,0.0,0.0,0.0,0.0,0.0,0.0,0.0,0.0,0.0,0.0,0.0,0.0,0.0,0.0,0.0,0.0,0.0,0.0,0.0,0.0,0.0,0.0,0.0,0.0,0.0,0.0,0.0,6.865,6.859,6.8201,6.8234,6.8204,6.7882,6.8111,6.8405,6.8663,6.8917,6.9599,7.0742,7.176,7.3171,7.4814,7.5501,7.6153,7.6645,7.6918,7.7099,7.7258,7.7637,7.8107,7.8646,7.9372,8.0039,8.0762,0.0,0.0,0.0,0.0,0.0,0.0,0.0,0.0,0.0,0.0,0.0,0.0,0.0,0.0,0.0,0.0,0.0,0.0,0.0,0.0,0.0,2.8737,2.9195,2.9062,2.8354,2.8057,2.7557,2.6839,2.9007,0.0,0.0,0.0,3.431,3.6169,3.5394,3.4416,3.3357,3.2523,3.1828,3.1243,3.148,3.0945,2.9883,2.949,0.0,0.0,0.0,0.0,0.0,0.0,0.0,0.0,0.0,0.0,2.9943,3.4499,3.7148,0.0,0.0,0.0,5.7689,6.5577,6.8477,0.0,0.0,0.0,0.0,0.0,0.0,0.0,0.0,0.0,0.0,0.0,0.0,0.0,0.0,0.0,0.0,0.0,0.0,0.0,0.0,0.0,0.0,0.0,0.0,0.0,6.7576,6.7745,6.7845,6.7845,6.7294,6.7069,6.733,6.7554,6.7841,6.813,6.914,6.9883,7.0381,7.1721,7.3205,7.4517,7.5116,7.5777,7.6587,7.6953,7.7133,7.7292,7.7948,7.8279,7.8452,7.9752,8.0385,8.0762,0.0,0.0,0.0,0.0,0.0,0.0,0.0,0.0,0.0,0.0,1.419,0.0,0.0,0.0,0.0,0.0,0.0,0.0,0.0,0.0,0.0,2.9053,2.9296,2.9592,3.0032,2.8508,2.8872,3.1426,3.2059,0.0,0.0,0.0,0.0,3.6342,0.0,3.4471,3.2835,3.1213,3.086,3.129,3.0316,3.0128,3.0257,0.0,0.0,0.0,0.0,0.0,0.0,0.0,0.0,0.0,0.0,0.0,0.0,0.0,0.0,0.0,0.0,0.0,5.8993,0.0,6.7371,6.8861,0.0,0.0,0.0,0.0,0.0,0.0,0.0,0.0,0.0,0.0,0.0,0.0,0.0,0.0,0.0,0.0,0.0,0.0,0.0,0.0,0.0,0.0,0.0,0.0,6.629,6.6388,6.6388,6.6388,6.629,6.6355,6.6613,6.6279,6.6499,6.7405,6.8599,6.9336,6.9645,7.0632,7.2144,7.4082,7.4694,7.5686,7.6793,7.6828,7.7009,7.7223,7.754,7.784,7.8015,7.8484,7.8726,7.9087,0.0,0.0,0.0,0.0,0.0,0.0,0.0,0.0,0.0,0.0,0.0,1.5311,0.0,0.0,0.0,0.0,0.0,0.0,0.0,0.0,0.0,2.9235,2.9008,2.9046,2.9373,2.9185,3.0275,3.2772,0.0,0.0,0.0,4.2129,4.1586,0.0,0.0,0.0,0.0,3.3552,3.2586,3.2742,3.1019,3.1321,0.0,0.0,0.0,0.0,0.0,0.0,0.0,0.0,0.0,0.0,0.0,0.0,0.0,0.0,0.0,0.0,4.7732,5.4051,5.9581,0.0,6.6847,6.7666,0.0,0.0,0.0,0.0,0.0,0.0,0.0,0.0,0.0,0.0,0.0,0.0,0.0,0.0,0.0,0.0,0.0,0.0,0.0,0.0,0.0,0.0,0.0,6.5705,6.5901,6.5999,6.6096,6.6096,6.5708,6.5705,6.6086,6.5947,6.633,6.746,6.8744,6.9386,6.9511,7.0613,7.1796,7.3118,7.4139,7.5162,7.6063,7.6747,7.7099,7.7258,7.7975,7.8291,7.8449,7.913,7.9443,7.9737,0.0,0.0,0.0,0.0,0.0,0.0,0.0,0.0,0.0,0.0,0.0,0.0,0.0,0.0,0.0,0.0,0.0,0.0,0.0,0.0,0.0,2.9138,2.8552,2.8323,2.8621,2.9564,3.1246,0.0,0.0,0.0,4.5622,4.7469,4.8025,0.0,4.3706,0.0,0.0,0.0,0.0,3.4924,0.0,0.0,0.0,0.0,0.0,0.0,0.0,0.0,0.0,0.0,0.0,0.0,0.0,0.0,0.0,0.0,0.0,0.0,0.0,0.0,5.7996,6.3539,6.5565,6.6543,0.0,0.0,0.0,0.0,0.0,0.0,0.0,0.0,0.0,0.0,0.0,0.0,0.0,0.0,0.0,0.0,0.0,0.0,0.0,0.0,0.0,0.0,0.0,6.49,6.4997,6.519,6.5287,6.5287,6.493,6.502,6.5521,6.5614,6.6153,6.7173,6.8359,6.9099,6.93,7.058,7.1503,7.2248,7.3651,7.4774,7.5583,7.6734,7.7223,7.7382,7.8202,7.8499,7.8657,7.9601,7.995,8.0123,0.0,0.0,0.0,0.0,0.0,0.0,0.0,0.0,0.0,0.0,0.0,0.0,0.0,0.0,0.0,2.0032,2.1111,2.2937,2.5604,2.6609,2.7595,2.8604,2.7984,0.0,2.8794,2.9353,3.1528,0.0,0.0,0.0,4.983,5.2972,5.5346,5.6679,4.9325,4.4952,4.2717,0.0,0.0,0.0,0.0,0.0,0.0,0.0,0.0,0.0,0.0,0.0,0.0,0.0,0.0,0.0,0.0,0.0,0.0,0.0,0.0,0.0,0.0,4.9718,0.0,5.8812,6.2738,0.0,0.0,0.0,0.0,0.0,0.0,0.0,0.0,0.0,0.0,0.0,0.0,0.0,0.0,0.0,0.0,0.0,0.0,0.0,0.0,0.0,0.0,0.0,0.0,6.2772,6.3052,6.3052,6.3052,6.3052,6.3854,6.4458,6.4735,6.5189,6.5581,6.5913,6.6878,6.7791,6.8762,6.9945,7.0954,7.1736,7.3536,7.4864,7.5763,7.6823,7.7313,7.7613,7.7876,7.8084,7.8342,7.8846,7.9011,7.9011,0.0,0.0,0.0,0.0,0.0,0.0,0.0,0.0,0.0,0.0,0.0,0.0,0.0,2.0004,2.0637,2.1183,2.2688,2.4298,2.5849,2.678,2.7952,2.9308,2.8779,2.8842,2.9832,3.0715,0.0,0.0,0.0,4.39,4.961,5.2697,5.5109,5.6713,5.1563,4.8928,4.7929,4.1332,0.0,0.0,0.0,0.0,0.0,0.0,0.0,0.0,0.0,0.0,0.0,0.0,0.0,0.0,0.0,0.0,0.0,0.0,0.0,0.0,0.0,0.0,0.0,5.5871,5.903,6.1346,0.0,0.0,0.0,0.0,0.0,0.0,0.0,0.0,0.0,0.0,0.0,0.0,0.0,0.0,0.0,0.0,0.0,0.0,0.0,0.0,0.0,0.0,0.0,0.0,6.221,6.2178,6.2301,6.2425,6.2744,6.3375,6.4195,6.4586,6.505,6.5514,6.7191,6.816,6.8551,7.0385,7.145,7.1932,7.3254,7.3959,7.4356,7.5552,7.6314,7.6851,7.7283,7.7767,7.8357,7.8741,7.887,7.8987,0.0,0.0,0.0,0.0,0.0,0.0,0.0,0.0,0.0,0.0,0.0,0.0,0.0,0.0,2.2312,2.292,2.4476,2.5727,2.6382,2.7257,2.8294,2.9418,2.9391,2.9674,3.0417,3.1787,0.0,0.0,0.0,0.0,0.0,5.2323,5.4907,5.693,5.3045,5.1999,0.0,0.0,0.0,4.3552,0.0,0.0,4.3383,0.0,0.0,0.0,0.0,0.0,0.0,0.0,0.0,0.0,0.0,0.0,0.0,0.0,0.0,0.0,4.0527,0.0,0.0,0.0,0.0,5.7121,0.0,0.0,0.0,0.0,0.0,0.0,0.0,0.0,0.0,0.0,0.0,0.0,0.0,0.0,0.0,0.0,0.0,0.0,0.0,0.0,0.0,0.0,0.0,0.0,6.1019,6.1245,6.1775,6.2305,6.2216,6.2713,6.3738,6.4057,6.4597,6.5238,6.6823,6.8047,6.8816,7.0323,7.142,7.2106,7.288,7.343,7.3792,7.5172,7.6071,7.6694,7.7229,7.7902,7.8525,7.8906,7.9069,7.9186,0.0,0.0,0.0,0.0,0.0,0.0,0.0,0.0,0.0,0.0,0.0,0.0,0.0,0.0,0.0,2.5408,2.6381,2.7061,2.7238,2.8168,2.8731,2.8888,2.9769,3.0355,3.0637,3.2476,0.0,0.0,0.0,0.0,0.0,0.0,5.5213,5.7865,5.3957,5.3841,5.6349,0.0,4.918,4.8949,0.0,4.6635,4.5784,0.0,0.0,0.0,4.5347,4.343,0.0,0.0,0.0,0.0,0.0,0.0,0.0,0.0,0.0,0.0,0.0,0.0,0.0,0.0,0.0,0.0,0.0,0.0,0.0,0.0,0.0,0.0,0.0,0.0,0.0,0.0,0.0,0.0,0.0,0.0,0.0,0.0,0.0,0.0,0.0,0.0,0.0,0.0,0.0,5.9331,5.9331,6.0275,6.1312,6.2474,6.2297,6.2474,6.3239,6.376,6.4299,6.5024,6.5761,6.73,6.9356,6.968,7.0754,7.2296,7.2586,7.3253,7.4183,7.5708,7.6624,7.7153,7.7922,7.8455,7.887,7.915,7.9347,7.9764,0.0,0.0,0.0,0.0,0.0,0.0,0.0,0.0,0.0,0.0,0.0,0.0,0.0,0.0,2.781,2.8758,2.9684,2.9735,2.8556,2.9558,3.0479,3.1162,3.1292,3.1662,3.2321,3.3233,3.4584,0.0,0.0,0.0,0.0,0.0,0.0,0.0,5.2733,5.3385,5.4759,4.8155,0.0,0.0,4.9093,4.8985,0.0,0.0,0.0,0.0,0.0,4.6587,0.0,0.0,3.9448,3.6959,0.0,0.0,0.0,0.0,0.0,0.0,3.63,0.0,0.0,0.0,0.0,0.0,0.0,0.0,0.0,0.0,0.0,0.0,0.0,0.0,0.0,0.0,0.0,0.0,0.0,0.0,0.0,0.0,0.0,0.0,0.0,0.0,0.0,0.0,5.7904,5.8076,5.8076,5.9015,5.9761,6.0214,6.0791,6.1574,6.2477,6.3292,6.4062,6.4767,6.6556,6.7708,6.8319,7.0038,7.1045,7.1541,7.2513,7.3109,7.3565,7.4017,7.5018,7.6314,7.6689,7.7673,7.887,7.915,7.9666,8.0439,0.0,0.0,0.0,0.0,0.0,0.0,0.0,0.0,0.0,0.0,0.0,0.0,0.0,0.0,0.0,3.1457,3.1767,3.142,3.032,3.0627,3.1181,3.1792,3.2382,3.3016,3.3649,3.4706,3.5889,0.0,0.0,0.0,0.0,0.0,0.0,0.0,0.0,0.0,0.0,0.0,0.0,0.0,5.2168,0.0,0.0,5.4328,5.3678,0.0,0.0,0.0,4.7441,4.5367,4.2106,0.0,0.0,0.0,0.0,0.0,0.0,0.0,0.0,0.0,0.0,0.0,0.0,0.0,4.8753,4.9549,5.0437,0.0,0.0,0.0,0.0,0.0,0.0,0.0,0.0,0.0,0.0,0.0,0.0,0.0,0.0,0.0,0.0,0.0,0.0,5.5834,5.626,5.6848,5.7547,5.8138,5.8535,5.8838,5.9264,6.0157,6.1418,6.2448,6.3515,6.4589,6.6491,6.7675,6.8268,6.9917,7.1007,7.1518,7.2576,7.317,7.3496,7.3496,7.4485,7.6199,7.6912,7.7931,7.9069,7.915,7.9968,8.1034,0.0,0.0,0.0,0.0,0.0,0.0,0.0,0.0,0.0,0.0,0.0,0.0,0.0,0.0,0.0,0.0,3.345,3.2811,3.2226,3.1601,3.1444,3.1755,3.3416,3.4493,3.4988,3.6705,3.7937,3.8706,3.98,0.0,0.0,0.0,0.0,0.0,0.0,0.0,0.0,0.0,0.0,5.4697,5.5589,5.5752,0.0,0.0,5.6659,0.0,5.4389,5.2881,5.084,4.8776,4.4589,0.0,0.0,0.0,0.0,0.0,3.7152,0.0,0.0,0.0,0.0,0.0,0.0,0.0,4.7598,4.7497,4.7079,0.0,0.0,0.0,0.0,0.0,0.0,0.0,0.0,0.0,0.0,0.0,0.0,0.0,0.0,0.0,0.0,5.3432,5.3547,5.3922,5.4583,5.5633,5.7242,5.7372,5.7604,5.8084,5.8017,5.8741,6.0284,6.16,6.2866,6.4285,6.5951,6.7335,6.85,6.9502,7.0622,7.1792,7.2555,7.3183,7.3692,7.3762,7.4763,7.6292,7.7767,7.8694,7.9125,7.9196,8.0199,8.164,0.0,0.0,0.0,0.0,0.0,0.0,0.0,0.0,0.0,0.0,0.0,0.0,0.0,0.0,0.0,0.0,3.7308,3.5712,3.4006,3.3347,3.3328,3.411,3.5467,3.658,3.736,3.8705,3.9412,3.9476,4.11,4.226,4.3059,0.0,0.0,0.0,0.0,0.0,0.0,0.0,0.0,5.653,5.5229,0.0,5.9318,6.0066,5.9601,5.8539,5.7159,5.5849,5.4029,0.0,4.7167,4.4294,0.0,0.0,0.0,0.0,0.0,0.0,0.0,0.0,0.0,0.0,0.0,0.0,4.1085,4.2028,4.3396,0.0,0.0,0.0,0.0,0.0,0.0,0.0,0.0,0.0,0.0,0.0,0.0,0.0,0.0,0.0,0.0,5.3134,5.3452,5.3656,5.3974,5.4587,5.5436,5.6057,5.6774,5.7606,5.8327,5.9231,6.0284,6.1475,6.2825,6.4368,6.5773,6.6916,6.7715,6.891,6.9911,7.0752,7.1839,7.2777,7.345,7.4482,7.5063,7.5414,7.6604,7.7505,7.8381,7.9214,8.0748,8.2392,0.0,0.0,0.0,0.0,0.0,0.0,0.0,0.0,0.0,0.0,0.0,0.0,0.0,0.0,0.0,0.0,0.0,0.0,0.0,3.5149,3.5208,3.5508,3.6992,3.8447,3.9785,4.0194,4.0721,4.1318,4.1903,4.2366,4.2798,0.0,0.0,0.0,0.0,0.0,0.0,0.0,5.2667,5.7388,5.7628,0.0,6.1972,6.2568,6.2167,6.1224,5.9827,5.7948,5.5567,5.1485,4.946,0.0,0.0,4.4555,4.5187,0.0,4.355,4.4517,0.0,0.0,0.0,4.027,0.0,0.0,0.0,3.9667,4.002,4.247,0.0,0.0,0.0,0.0,0.0,0.0,0.0,0.0,0.0,0.0,0.0,0.0,0.0,0.0,0.0,5.1186,5.2009,5.2953,5.3574,5.4088,5.4448,5.5169,5.5883,5.6525,5.733,5.854,6.0035,6.1043,6.2392,6.4038,6.5676,6.6667,6.7124,6.8613,6.9751,7.0591,7.1631,7.2638,7.3531,7.4157,7.4667,7.5204,7.664,7.7585,7.8319,7.9807,8.1377,8.2799,0.0,0.0,0.0,0.0,0.0,0.0,0.0,0.0,0.0,0.0,0.0,0.0,0.0,0.0,0.0,0.0,0.0,0.0,0.0,0.0,3.7006,3.7189,3.8494,4.0051,4.2009,4.1643,4.1921,4.2902,4.2579,4.2478,4.2734,4.3713,0.0,0.0,0.0,0.0,0.0,0.0,0.0,5.8896,0.0,6.2429,6.3563,6.4355,6.4222,6.3287,6.1996,5.9793,5.6927,5.3469,0.0,5.1533,4.8149,4.8491,0.0,0.0,0.0,0.0,0.0,0.0,0.0,0.0,0.0,3.8819,0.0,0.0,0.0,3.9849,0.0,0.0,0.0,0.0,0.0,0.0,0.0,0.0,0.0,0.0,0.0,0.0,0.0,0.0,0.0,4.8853,4.9977,5.1867,5.2589,5.309,5.3574,5.447,5.5226,5.5662,5.6469,5.784,5.9852,6.0526,6.1873,6.3893,6.5278,6.6268,6.6735,6.8211,6.9474,7.0672,7.1376,7.2418,7.3577,7.3772,7.4167,7.5028,7.6931,7.7797,7.8355,8.0249,8.1747,8.303,2.5755,2.8847,0.0,0.0,0.0,0.0,0.0,0.0,0.0,0.0,0.0,0.0,0.0,0.0,0.0,0.0,0.0,0.0,4.2623,0.0,0.0,4.0394,4.0282,4.1153,4.3185,4.3531,4.3404,4.2699,4.3215,4.3514,4.3639,4.3388,0.0,0.0,4.6093,0.0,0.0,0.0,5.6923,0.0,6.3989,6.3862,0.0,6.5025,6.5344,6.4789,6.3253,6.1469,5.9728,0.0,5.6821,5.5279,0.0,5.3133,0.0,0.0,0.0,0.0,0.0,0.0,0.0,0.0,4.1401,0.0,0.0,0.0,3.5563,3.4468,0.0,0.0,0.0,0.0,0.0,0.0,0.0,0.0,0.0,0.0,0.0,0.0,0.0,0.0,0.0,0.0,4.7901,5.0039,4.9593,5.0193,5.2473,5.4189,5.5295,5.5813,5.6921,5.8294,6.008,6.0333,6.1639,6.405,6.4453,6.5396,6.6701,6.7109,6.8394,7.0476,7.1017,7.2011,7.3415,7.3737,7.4045,7.437,7.6278,7.7461,7.8284,7.9798,8.1435,8.2958,2.5914,2.9053,0.0,0.0,0.0,0.0,0.0,0.0,0.0,0.0,0.0,0.0,0.0,0.0,0.0,0.0,0.0,0.0,0.0,0.0,0.0,0.0,4.2881,4.3754,4.5578,4.4497,4.3956,4.4031,4.3406,4.3164,4.3416,4.4183,4.6061,0.0,4.9518,0.0,5.6901,0.0,0.0,0.0,0.0,0.0,0.0,6.7036,6.7325,6.6254,6.532,6.3774,6.198,0.0,5.8696,0.0,0.0,0.0,0.0,0.0,0.0,0.0,0.0,0.0,0.0,0.0,0.0,0.0,0.0,0.0,3.3006,0.0,0.0,0.0,0.0,0.0,0.0,0.0,0.0,0.0,0.0,0.0,0.0,0.0,0.0,0.0,0.0,0.0,0.0,0.0,0.0,4.912,5.1894,5.3061,5.42,5.5587,5.6578,5.7983,5.9621,6.0285,6.1354,6.3015,6.4393,6.5508,6.6316,6.7256,6.8473,7.0015,7.0625,7.1583,7.2868,7.3562,7.4501,7.5618,7.6568,7.715,7.7951,8.0744,8.2306,8.3218,0.0,0.0,0.0,0.0,0.0,0.0,0.0,0.0,0.0,0.0,0.0,0.0,5.2941,5.2555,0.0,0.0,0.0,5.0197,0.0,0.0,4.681,0.0,0.0,0.0,0.0,4.5573,4.4511,4.4843,4.3628,4.3383,4.403,4.5436,4.78,5.0928,0.0,5.6422,6.0886,0.0,0.0,6.463,6.5725,6.6666,6.7652,6.9091,6.9059,6.8079,6.7166,6.5996,6.4477,6.1999,6.0715,0.0,5.8061,0.0,0.0,0.0,0.0,0.0,5.0817,0.0,0.0,0.0,0.0,0.0,0.0,0.0,0.0,0.0,0.0,0.0,0.0,0.0,0.0,0.0,0.0,0.0,0.0,0.0,0.0,0.0,0.0,0.0,0.0,0.0,0.0,4.8294,4.716,4.7619,5.076,5.2167,5.3511,5.4797,5.619,5.7624,5.9166,6.0027,6.1063,6.2312,6.3961,6.5138,6.5911,6.7014,6.831,6.9644,7.0486,7.1489,7.2573,7.3457,7.4642,7.5979,7.6639,7.7092,7.7754,8.1291,8.2818,8.3365,2.478,2.7961,0.0,0.0,0.0,0.0,0.0,0.0,0.0,0.0,0.0,0.0,0.0,0.0,0.0,0.0,0.0,5.6417,5.6195,0.0,5.0528,0.0,0.0,0.0,0.0,0.0,4.523,4.4537,4.4131,4.4754,4.6225,4.7044,4.8944,5.1786,0.0,5.8349,6.1302,6.3648,6.7191,7.1319,7.0649,7.1687,7.3332,0.0,7.0004,7.0497,6.863,0.0,0.0,6.5324,6.3897,0.0,0.0,0.0,0.0,0.0,0.0,0.0,0.0,0.0,0.0,0.0,0.0,0.0,0.0,0.0,3.3756,0.0,0.0,0.0,0.0,0.0,0.0,0.0,0.0,0.0,0.0,0.0,0.0,0.0,0.0,0.0,0.0,0.0,0.0,4.4406,4.3889,4.4966,4.8601,5.1925,5.3584,5.3484,5.5788,5.7668,5.8805,5.956,6.0765,6.2496,6.2565,6.3738,6.5876,6.5945,6.7307,6.9644,7.0645,7.1568,7.2573,7.3615,7.4167,7.4498,7.6215,7.7245,7.8093,8.0721,8.2198,8.3066,0.0,0.0,0.0,0.0,0.0,0.0,0.0,4.7645,0.0,0.0,0.0,0.0,0.0,0.0,6.2966,0.0,0.0,6.1841,5.9548,5.7456,0.0,0.0,0.0,5.1938,0.0,0.0,0.0,0.0,0.0,4.6781,4.7798,4.9181,5.1427,5.451,0.0,6.2332,0.0,0.0,0.0,0.0,0.0,7.2565,7.4916,0.0,0.0,7.108,7.0232,6.9151,0.0,6.7004,6.5305,6.34,6.2558,6.0847,5.9112,5.8626,5.8044,0.0,0.0,0.0,5.3018,4.6375,0.0,0.0,0.0,0.0,0.0,0.0,0.0,0.0,0.0,0.0,0.0,0.0,0.0,0.0,0.0,0.0,0.0,0.0,0.0,0.0,0.0,0.0,0.0,4.322,4.2771,4.4405,0.0,5.0657,5.2153,5.3749,5.5244,5.661,5.7981,5.8875,6.0115,6.1703,6.2737,6.3876,6.5117,6.6305,6.7323,6.835,6.9903,7.1035,7.2072,7.2886,7.4033,7.5401,7.647,7.7489,7.8731,8.1511,8.2857,8.366,2.9235,0.0,0.0,0.0,0.0,0.0,0.0,0.0,0.0,0.0,6.0435,0.0,6.5914,0.0,6.7235,0.0,6.806,6.6641,6.3099,6.2405,0.0,6.1583,5.8535,0.0,0.0,0.0,0.0,0.0,0.0,4.9398,5.0451,5.1691,5.3791,5.6734,0.0,6.4724,6.7468,0.0,7.1907,0.0,0.0,7.3925,0.0,0.0,7.3135,7.1737,0.0,7.0001,6.8748,6.785,6.6502,6.4877,6.3735,6.195,6.0239,5.9686,5.8657,5.7339,5.5633,5.5159,0.0,4.8051,4.5619,0.0,3.7928,0.0,0.0,0.0,0.0,0.0,0.0,0.0,0.0,0.0,0.0,0.0,0.0,0.0,0.0,0.0,0.0,0.0,0.0,0.0,3.7586,4.173,4.1209,4.2978,0.0,0.0,5.1322,5.3225,5.4655,5.599,5.7294,5.8186,5.953,6.1323,6.2324,6.3462,6.4813,6.6242,6.7197,6.7695,6.9456,7.0727,7.1686,7.25,7.3787,7.5478,7.647,7.7489,7.8695,8.1475,8.3113,8.439,0.0,0.0,0.0,0.0,3.9029,0.0,0.0,0.0,5.7119,0.0,6.2804,6.5841,6.9379,6.9467,7.0258,7.2978,7.2909,0.0,6.7148,6.6916,0.0,0.0,6.2676,6.1612,6.2068,0.0,0.0,0.0,0.0,0.0,5.4066,5.451,5.597,5.833,6.2475,0.0,6.7218,7.1616,7.4356,7.5709,7.5709,7.5709,7.5709,7.5422,0.0,7.2692,7.1383,7.0461,6.9633,6.8142,6.7612,6.7023,6.4002,6.2958,6.2409,5.9912,5.86,5.7688,5.5977,5.4695,5.2861,4.8743,0.0,0.0,0.0,0.0,4.0908,0.0,0.0,0.0,0.0,0.0,0.0,0.0,0.0,0.0,0.0,0.0,0.0,0.0,0.0,0.0,0.0,3.2295,3.3574,3.9652,3.9049,0.0,0.0,0.0,5.1073,5.2035,5.4136,5.5813,5.6771,5.7495,5.9012,6.1289,6.1289,6.264,6.5001,6.5798,6.6711,6.7661,6.9386,7.0616,7.1455,7.2388,7.347,7.477,7.6293,7.7317,7.8275,8.0868,8.3041,8.5151,3.2736,3.5644,3.8527,0.0,4.2076,4.4966,0.0,0.0,0.0,0.0,6.7479,7.0648,7.3807,7.4672,7.5072,7.4972,7.5938,0.0,0.0,0.0,0.0,7.0924,6.8055,6.6219,6.5548,6.1306,0.0,5.7131,0.0,0.0,5.4743,5.6415,5.7706,5.8858,0.0,0.0,6.922,7.245,7.4728,7.6309,7.5899,7.5805,0.0,0.0,7.4321,7.2915,7.2237,7.1416,7.0295,6.8307,6.7612,6.7222,6.5222,6.3781,6.2706,6.1917,6.0663,5.9186,5.7637,5.6699,5.5249,5.1688,4.9146,4.6866,0.0,0.0,0.0,0.0,0.0,0.0,0.0,0.0,0.0,0.0,0.0,0.0,0.0,0.0,0.0,0.0,0.0,0.0,0.0,3.0305,3.2951,3.5732,3.7721,0.0,0.0,0.0,0.0,5.2448,5.3541,5.4966,5.6932,5.714,5.8663,6.1501,6.1641,6.2648,6.4456,6.5959,6.669,6.6895,6.8768,7.0313,7.142,7.1827,7.3012,7.477,7.6293,7.7993,7.9888,8.2061,8.3946,8.584,3.4698,0.0,0.0,4.6271,0.0,0.0,5.4727,0.0,0.0,6.6575,7.0315,0.0,7.5506,7.7312,7.8319,7.8244,7.915,0.0,0.0,0.0,0.0,7.3177,7.1821,7.0568,6.9321,6.5306,0.0,6.0583,0.0,0.0,5.6573,5.782,5.8547,5.9085,0.0,6.6991,0.0,7.3118,7.5263,7.5832,7.5764,0.0,0.0,7.5614,7.4916,7.3884,7.3055,7.1804,7.0386,6.8792,6.7969,6.7288,6.5709,6.4487,6.3342,6.2541,6.1295,5.9912,5.8274,5.7236,5.591,5.3117,5.1197,4.9387,4.7157,4.5885,4.4769,0.0,0.0,0.0,0.0,0.0,0.0,0.0,0.0,0.0,0.0,0.0,0.0,0.0,0.0,0.0,2.4934,2.7977,3.0857,3.29,0.0,0.0,0.0,0.0,0.0,5.2161,5.3192,5.4834,5.7126,5.7161,5.8689,6.171,6.1883,6.2753,6.4357,6.5927,6.6551,6.6547,6.8488,7.0027,7.1307,7.1539,7.2759,7.4659,7.637,7.8319,8.035,8.191,8.3362,8.4929,0.0,0.0,0.0,0.0,0.0,0.0,0.0,6.2035,0.0,6.8649,0.0,7.5102,7.6173,7.8656,8.0505,0.0,0.0,8.0536,7.6706,7.817,7.7633,7.3972,7.4592,7.4215,7.2597,6.9119,0.0,0.0,0.0,0.0,5.8115,5.8662,5.895,5.9201,0.0,0.0,0.0,7.3753,7.5637,0.0,7.5628,7.5899,7.6122,7.5805,7.5479,7.4854,7.3575,7.2016,7.0437,6.9503,6.8519,6.7472,6.6078,6.5116,6.41,6.2537,6.1357,6.0181,5.8391,5.721,5.5789,5.3616,5.2909,5.2076,4.9683,4.7974,4.6786,4.6318,4.2842,3.9968,0.0,0.0,0.0,0.0,0.0,0.0,0.0,0.0,0.0,0.0,0.0,0.0,0.0,0.0,0.0,0.0,0.0,0.0,0.0,0.0,0.0,5.1668,5.3055,0.0,5.7254,0.0,5.8851,6.1812,6.1917,6.2753,6.4323,6.5784,6.6477,6.6438,6.8304,6.9875,7.115,7.1539,7.283,7.4682,7.6483,7.836,8.0059,8.0882,8.1978,8.3332,0.0,0.0,0.0,0.0,0.0,5.854,6.7022,6.8416,6.9419,7.2241,7.6373,0.0,7.9589,8.1013,8.1929,8.1989,8.2348,0.0,0.0,0.0,0.0,7.7649,7.6721,7.562,7.4071,7.0095,6.677,0.0,0.0,0.0,5.5444,5.8623,5.9756,5.9309,0.0,0.0,7.2083,7.3843,0.0,7.6439,7.6148,7.6216,7.6402,7.5899,7.4931,7.3756,7.3485,7.2935,7.1961,7.0021,6.8851,6.7992,6.7124,6.5834,6.4428,6.3563,6.2372,6.0836,5.8805,5.7651,5.6453,5.3873,5.3068,5.2538,5.1059,4.975,4.8497,4.7163,4.4821,4.1873,3.8529,0.0,0.0,0.0,0.0,0.0,0.0,0.0,0.0,0.0,0.0,0.0,0.0,0.0,0.0,0.0,0.0,0.0,0.0,0.0,0.0,0.0,5.2818,0.0,0.0,0.0,5.8736,6.1145,6.194,6.2746,6.3589,6.5685,6.6516,6.6289,6.8229,6.9875,7.115,7.1539,7.3146,7.538,7.6498,7.7696,7.8853,7.9828,8.0923,8.2277,0.0,0.0,0.0,0.0,0.0,0.0,0.0,7.2667,0.0,7.4703,7.7178,7.9162,8.0068,8.1862,8.3047,8.31,8.3363,8.2979,8.1892,8.15,8.0518,7.8577,7.7858,0.0,7.5242,0.0,6.829,6.4964,0.0,0.0,0.0,5.8178,5.914,5.9478,0.0,6.8504,0.0,0.0,0.0,7.6278,7.6139,7.6216,7.6402,7.5899,7.5033,7.4018,7.3612,7.3055,7.233,7.0791,6.9367,6.8272,6.7725,6.6535,6.5047,6.3776,6.2748,6.1491,5.8969,5.7916,5.695,5.4143,5.3539,5.3225,5.1941,5.087,4.9763,4.8152,4.5927,4.2778,3.7828,3.2976,0.0,0.0,0.0,0.0,0.0,0.0,0.0,0.0,0.0,0.0,0.0,0.0,0.0,0.0,0.0,0.0,0.0,0.0,0.0,0.0,0.0,0.0,0.0,0.0,0.0,6.1134,6.152,6.2223,6.3379,6.5053,6.5912,6.6214,6.8002,6.9401,7.0593,7.1785,7.3569,7.5556,7.6376,7.739,7.8484,7.938,8.0477,8.1798,0.0,5.0545,0.0,0.0,6.3279,0.0,7.3274,7.6069,7.7579,7.6844,7.7716,7.8994,8.034,8.2368,8.3858,8.4143,8.4211,8.3549,8.2309,8.2076,8.1058,7.9206,7.8742,7.7726,7.6093,7.3458,6.9944,0.0,0.0,0.0,0.0,0.0,0.0,0.0,0.0,0.0,0.0,0.0,7.5481,7.5969,7.6129,7.6402,7.6402,7.5994,7.5134,7.4289,7.3713,7.2935,7.2056,7.1041,6.9715,6.8428,6.8249,6.7157,6.548,6.3876,6.3012,6.2071,5.9315,5.8264,5.7347,5.4848,5.423,5.3898,5.2686,5.1625,5.0429,4.8813,4.622,4.281,3.7959,3.4131,0.0,0.0,0.0,0.0,0.0,0.0,0.0,0.0,0.0,0.0,0.0,0.0,0.0,0.0,0.0,0.0,0.0,0.0,0.0,0.0,0.0,5.4521,5.7359,0.0,5.8815,0.0,6.1138,6.1809,6.2997,6.4384,6.5377,6.6138,6.7565,6.8968,7.0314,7.2065,7.3702,7.5266,7.6146,7.7126,7.8114,7.9151,8.0135,8.1281,0.0,0.0,0.0,0.0,0.0,0.0,0.0,7.9441,7.9808,7.8736,8.0364,8.1783,8.2409,8.3678,8.4432,8.4211,8.3993,8.3631,8.3199,8.2145,8.1326,8.1161,7.9471,7.7833,7.6416,7.5082,7.1561,0.0,0.0,0.0,0.0,0.0,0.0,0.0,0.0,0.0,0.0,7.3693,7.5309,7.669,7.6668,7.6645,7.6495,7.6216,7.5018,7.3578,7.351,7.2597,7.1312,7.0534,6.9667,6.8992,6.8695,6.7477,6.5708,6.4014,6.3272,6.2431,6.019,5.8905,5.7822,5.6488,5.5139,5.403,5.3427,5.1954,5.0287,4.8637,4.5307,4.1811,3.9237,3.9156,3.8069,0.0,0.0,0.0,0.0,0.0,0.0,0.0,0.0,0.0,0.0,0.0,0.0,0.0,0.0,0.0,0.0,0.0,0.0,4.8224,0.0,5.3596,5.5895,5.6965,0.0,5.9919,6.1218,6.1779,6.1849,6.4031,6.5302,6.5987,6.6969,6.8872,7.135,7.2154,7.3151,7.4256,7.573,7.6489,7.694,7.862,7.9621,8.0227,0.0,0.0,0.0,0.0,0.0,0.0,0.0,7.8591,7.8857,7.9886,8.1383,8.2751,8.349,8.3934,8.4102,8.4102,8.3775,8.3332,8.3108,8.2631,8.1525,7.9769,7.9504,7.8329,7.5915,7.5233,7.2786,0.0,0.0,0.0,0.0,0.0,0.0,0.0,0.0,6.8488,7.1592,7.3536,7.5399,7.7009,7.7009,7.6918,7.6645,7.6309,7.5111,7.3695,7.3569,7.2563,7.1278,7.0973,6.9972,6.8715,6.8068,6.6933,6.5667,6.4374,6.3517,6.2529,6.0816,5.9383,5.8133,5.6764,5.5765,5.4858,5.3552,5.2679,5.1507,4.9213,4.5893,4.2935,4.1964,4.0188,3.8922,0.0,0.0,0.0,0.0,0.0,0.0,0.0,0.0,0.0,0.0,0.0,0.0,0.0,0.0,0.0,0.0,0.0,0.0,4.6721,0.0,5.3746,5.5413,5.7164,5.8781,6.0314,6.0841,6.1467,6.2333,6.3876,6.5482,6.7065,6.7688,6.9099,7.0992,7.1429,7.238,7.3682,7.4764,7.5428,7.5891,7.752,7.8337,7.8924,6.083,0.0,7.4171,0.0,7.297,7.3454,7.7841,7.8212,7.8477,7.9869,8.1591,8.2886,8.3306,8.3826,8.3859,8.3482,8.3387,8.322,8.2916,8.2618,8.1525,7.9471,7.9504,0.0,7.5546,7.5029,7.341,7.061,6.8489,0.0,0.0,0.0,0.0,0.0,6.8634,7.0304,7.4412,7.5208,7.6097,7.7043,7.7133,7.7133,7.6918,7.6553,7.5355,7.3969,7.3695,7.2655,7.1367,7.1041,7.0085,6.8863,6.7947,6.6899,6.5788,6.4474,6.3637,6.2769,6.1264,5.9779,5.8426,5.7371,5.6404,5.543,5.4105,5.3437,5.2335,4.9772,4.7006,4.4978,4.4749,4.2232,4.0764,4.2261,0.0,0.0,0.0,0.0,0.0,0.0,0.0,2.931,2.7233,0.0,0.0,0.0,0.0,0.0,0.0,0.0,0.0,0.0,0.0,0.0,0.0,5.7498,5.9279,6.0599,6.0947,6.1569,6.2568,6.3789,6.5319,6.7147,6.7669,6.8873,7.0372,7.0694,7.1642,7.309,7.3982,7.4612,7.5113,7.6748,7.7707,7.8319,7.1194,7.4105,7.4171,7.4171,7.5761,7.7384,7.8378,7.9339,7.9637,7.8676,8.1094,8.2519,8.1525,8.3281,8.3914,8.2151,8.2876,8.3332,8.2916,8.1989,8.1426,0.0,0.0,7.7528,7.5513,7.4625,7.3173,7.1221,0.0,0.0,6.8175,0.0,6.939,7.5608,7.5574,7.7843,8.1509,7.9487,7.7793,7.6587,7.7043,7.7223,7.7223,7.7223,7.5991,7.4206,7.3969,7.2892,7.1498,7.0521,6.9984,6.9637,6.8897,6.7651,6.6119,6.4133,6.3615,6.3197,6.16,6.0026,5.8899,5.8866,5.7053,5.5282,5.5249,5.3977,5.2187,5.0025,4.8557,4.7572,4.7387,4.6499,4.4954,4.2408,0.0,0.0,0.0,0.0,0.0,0.0,2.9582,2.7792,2.7151,0.0,0.0,0.0,0.0,0.0,0.0,0.0,0.0,4.81,5.1441,0.0,5.5378,5.7955,5.9665,6.0427,6.1774,6.2389,6.2272,6.3486,6.4693,6.5671,6.6392,6.7798,6.9644,7.0165,7.1088,7.2359,7.3608,7.4281,7.4704,7.6491,7.7696,7.8741,7.2115,7.4171,7.4171,7.4171,7.4701,7.5894,7.8179,7.8776,7.8875,7.8577,8.1094,8.2386,8.1061,8.1823,8.2686,0.0,8.3166,8.2996,0.0,8.2121,8.1326,8.0498,7.9703,7.8701,7.7528,7.7245,7.5614,7.263,0.0,0.0,0.0,6.7779,6.9098,7.3884,7.7979,8.0596,8.1638,7.8833,7.6998,7.5994,7.6828,7.7223,7.7223,7.7223,7.6197,7.4774,7.4105,7.2836,7.1334,7.1041,7.0512,6.9972,6.9228,6.8021,6.6685,6.5039,6.4067,6.3382,6.2332,6.0837,5.9661,5.9465,5.8096,5.6586,5.5857,5.3705,5.1721,5.0867,4.9326,4.8122,4.7916,4.7384,4.6597,4.5302,4.4509,0.0,0.0,0.0,0.0,0.0,3.1872,3.0381,0.0,2.9491,0.0,0.0,0.0,0.0,0.0,0.0,0.0,0.0,5.1649,0.0,5.493,5.8114,6.0009,6.0587,6.1581,6.246,6.3333,6.3965,6.4889,6.588,6.628,6.7398,6.8932,6.909,7.0031,7.1351,7.1882,7.2567,7.3406,7.4935,7.5938,7.6755,7.1392,7.3107,7.3558,7.3558,7.4757,7.6424,7.8246,7.8511,7.8511,7.8511,8.0101,8.0896,7.9968,8.0134,0.0,8.2776,8.2378,8.2154,8.232,8.1492,8.0664,7.9902,7.9438,7.89,7.8296,0.0,0.0,7.4418,7.3874,7.3532,7.311,7.1064,7.165,7.4551,7.8032,7.9677,7.9948,7.8051,7.6828,7.6368,7.6953,7.7223,7.7223,7.7223,7.639,7.5035,7.4026,7.2666,7.1367,7.1312,7.1007,7.0432,6.9504,6.8567,6.7564,6.5731,6.4522,6.3701,6.2799,6.1334,6.0041,5.9713,5.8462,5.7,5.5483,5.3891,5.2368,5.1582,5.0393,4.9308,4.8972,4.8377,4.7842,4.7472,4.5718,4.3746,0.0,0.0,0.0,0.0,0.0,0.0,0.0,3.2261,0.0,0.0,0.0,0.0,0.0,0.0,0.0,4.8675,5.3063,0.0,5.5899,5.8875,6.0412,6.0745,6.1695,6.2532,6.3407,6.3835,6.4619,6.5617,6.6085,6.6984,6.8193,6.8383,6.91,7.0072,7.0704,7.1388,7.2192,7.3376,7.4064,7.4822,6.9478,7.1251,0.0,0.0,7.5817,0.0,7.8511,7.8511,7.8511,7.8511,7.8511,7.8511,7.8511,7.8511,7.9272,8.1128,0.0,0.0,0.0,8.0266,7.9637,7.9637,7.8908,7.8263,7.7872,7.823,7.7715,7.6225,7.5638,7.5422,7.5805,7.5805,7.6368,7.7223,7.6275,7.6368,7.7223,7.7223,7.7223,7.7223,7.7223,7.7223,7.7223,7.7223,7.6458,7.5194,7.3775,7.2573,7.1512,7.1401,7.1312,7.1041,6.9814,6.9252,6.8553,6.612,6.4891,6.4102,6.2799,6.1483,6.0336,5.9779,5.8446,5.6756,5.481,5.4444,5.4077,5.2299,5.1663,5.1112,5.0555,4.953,4.877,4.8781,4.6427,4.4004,4.2437,0.0,0.0,0.0,0.0,0.0,0.0,3.4975,3.5879,0.0,0.0,0.0,0.0,0.0,4.7143,5.3183,5.5209,5.6685,5.7874,5.9974,6.0926,6.0808,6.2089,6.2693,6.2727,6.3238,6.395,6.4869,6.5603,6.6514,6.7394,6.7894,6.8318,6.8656,6.9952,7.0565,7.0994,7.1885,7.2416,7.3119,0.0,0.0,7.2794,7.3661,7.638,7.8511,7.8511,7.8511,7.8511,7.8511,7.8511,7.8511,7.8511,7.8511,7.8941,7.9968,8.0796,8.1128,8.0863,8.0101,7.9637,7.9637,7.8908,7.8139,7.7576,7.7576,7.7163,7.6074,7.6053,7.6148,7.6519,7.7099,7.7544,7.7719,7.7099,7.6953,7.7223,7.7223,7.7223,7.7223,7.7223,7.7223,7.7223,7.7223,7.6961,7.6458,7.4138,7.2484,7.1401,7.1312,7.1312,7.1041,6.964,6.8992,6.8345,6.6255,6.5228,6.4488,6.2933,6.2166,6.1516,6.045,5.9118,5.7609,5.6393,5.5397,5.4562,5.3953,5.3043,5.2119,5.1651,5.1004,5.0125,4.901,4.6877,4.442,4.1858,4.0289,0.0,0.0,3.8108,3.8435,3.7874,3.8801,3.9278,0.0,0.0,0.0,0.0,4.8103,5.0682,5.3754,5.564,5.6978,5.7672,5.9727,6.1143,6.1995,6.2445,6.2615,6.2493,6.3125,6.3485,6.3674,6.479,6.5463,6.5951,6.6406,6.7131,6.7944,6.903,6.9829,7.0439,7.1416,7.1985,7.2517,6.9814,7.144,7.2827,7.3968,7.5463,7.6987,7.8312,7.8511,7.8511,7.8511,7.8511,7.8511,7.8511,7.7318,7.6954,7.8014,7.8941,7.967,8.0167,7.8908,7.8279,7.861,7.7914,7.7318,7.692,7.7025,7.6873,7.65,7.6522,7.6462,7.6499,7.7424,7.7928,7.8151,7.7719,7.6987,7.6223,7.6913,7.7223,7.7085,7.5706,7.5568,7.5997,7.5131,7.4768,7.4453,7.2948,7.1931,7.1278,7.0906,7.0804,7.0534,6.9132,6.8451,6.7974,6.6508,6.5547,6.4771,6.38,6.2931,6.1998,6.0571,5.9367,5.8228,5.7243,5.6345,5.5497,5.4804,5.3954,5.3126,5.2626,5.1718,5.0735,4.962,4.7568,4.5165,4.2623,4.1267,0.0,3.9911,4.0662,4.115,4.0943,4.1869,4.2096,4.1089,0.0,0.0,4.8237,5.1485,5.3801,5.4852,5.6482,5.7705,5.8528,6.0154,6.1384,6.2189,6.2459,6.2381,6.2098,6.3256,6.3646,6.3583,6.4975,6.5612,6.5731,6.6014,6.6618,6.7477,6.8392,6.9187,6.9917,7.0939,7.1457,7.1872,7.1164,7.2184,7.2827,7.3764,7.407,7.4999,7.7484,7.7881,7.7907,7.8263,7.8403,7.8345,7.7914,7.5897,7.4968,7.6092,7.6589,7.7484,7.9041,7.7351,7.6693,7.7324,7.676,7.6362,7.6262,7.6471,7.6774,7.7135,7.6953,7.6706,7.6348,7.7233,7.784,7.828,7.7822,7.6626,7.5016,7.6223,7.6809,7.6637,7.405,7.3636,7.4377,7.2809,7.2034,7.16,7.1401,7.1312,7.121,7.0432,7.0195,6.9925,6.8574,6.7843,6.7362,6.6589,6.5746,6.4987,6.4714,6.353,6.2066,6.0406,5.951,5.8694,5.7758,5.719,5.6498,5.5485,5.4901,5.4342,5.3616,5.2337,5.1139,5.0184,4.8066,4.5787,4.3583,0.0,4.1684,4.2186,4.2714,4.3162,4.3511,4.4475,4.4624,4.336,4.7178,4.9986,0.0,5.4166,5.6056,5.6171,5.7219,5.8497,5.9716,6.074,6.1481,6.1997,6.2324,6.2232,6.1829,6.3616,6.4137,6.3902,6.5287,6.5942,6.5841,6.5975,6.6443,6.7212,6.7948,6.864,6.9357,7.0364,7.1041,7.1312,6.8784,7.0824,7.2615,7.2688,7.3558,7.4337,7.4767,7.4833,7.5417,7.6906,7.7862,7.7583,7.5098,7.5471,7.577,7.5695,7.5834,7.6236,7.71,7.6834,7.6771,7.7109,7.6804,7.6438,7.6107,7.6159,7.6454,7.6874,7.7223,7.744,7.765,7.7368,7.7104,7.6859,7.6859,7.6052,7.4912,7.474,7.4878,7.5257,7.4774,7.3947,7.3084,7.336,7.256,7.1401,7.1312,7.1312,7.121,7.0164,6.9984,6.9836,6.7967,6.7288,6.7066,6.6155,6.5592,6.5216,6.4586,6.3186,6.1645,6.0569,5.9671,5.9064,5.8807,5.7853,5.7085,5.7158,5.6609,5.5921,5.5327,5.4046,5.2209,4.963,4.7651,4.5527,4.2708,0.0,4.4126,4.3751,4.52,4.634,4.6498,4.6803,4.721,4.7734,4.918,5.0899,5.3013,5.4758,5.6153,5.7294,5.7569,5.8494,6.0211,6.0714,6.129,6.1997,6.2508,6.2564,6.2316,6.3933,6.4128,6.3425,6.4708,6.5094,6.488,6.5194,6.5889,6.7068,6.7768,6.8369,6.8994,7.0272,7.1041,7.1312,6.8201,7.0533,7.2508,7.2508,7.3422,7.4171,7.4171,7.4171,7.4464,7.5259,7.5878,7.5065,7.215,7.3599,7.443,7.3608,7.4003,7.4433,7.4734,7.5239,7.5839,7.6509,7.6074,7.5806,7.583,7.6411,7.6828,7.7009,7.7456,7.7598,7.7302,7.6954,7.6466,7.6028,7.5775,7.55,7.5085,7.4757,7.4705,7.4912,7.4464,7.3826,7.3155,7.2843,7.2219,7.1389,7.0927,7.0703,7.0534,6.9262,6.8857,6.8688,6.7228,6.6718,6.6443,6.5968,6.5337,6.4664,6.3935,6.2888,6.1914,6.1232,6.0478,6.0002,6.0283,5.9361,5.8385,5.8116,5.7638,5.6879,5.5578,5.42,5.2509,5.0331,4.8254,0.0,0.0,4.5597,4.6249,4.6726,4.7878,4.87,4.8727,4.8848,4.9197,4.9835,5.1114,5.2693,5.4592,5.6046,5.7223,5.8049,5.8729,5.9638,6.0689,6.12,6.1782,6.2278,6.2647,6.2766,6.2656,6.3922,6.4046,6.3429,6.4425,6.4778,6.4662,6.4844,6.5403,6.6403,6.6957,6.8009,6.945,7.001,7.0363,7.0456,6.8072,6.9982,7.1609,7.1818,7.2641,7.3044,7.2843,7.2843,7.2843,7.2843,7.3044,7.2283,7.003,7.1647,7.2557,7.1721,7.2512,7.3137,7.3231,7.3927,7.4701,7.5433,7.5194,7.5181,7.5451,7.645,7.6933,7.6814,7.7112,7.7007,7.6416,7.6071,7.5655,7.5234,7.4722,7.4567,7.4772,7.4516,7.4395,7.4361,7.3774,7.3447,7.3154,7.2311,7.1708,7.126,7.0487,7.0094,6.9722,6.8282,6.7877,6.7809,6.657,6.6129,6.5922,6.578,6.4972,6.3968,6.3405,6.2828,6.2149,6.1829,6.114,6.0841,6.1495,6.07,5.9652,5.8971,5.8565,5.7843,5.5961,5.4456,5.2946,5.1329,0.0,0.0,0.0,4.7665,4.8037,4.9419,4.9907,5.018,5.0308,5.074,5.1196,5.1473,5.3038,5.4643,5.5919,5.7087,5.8084,5.8753,5.9837,6.0528,6.092,6.1547,6.2044,6.2399,6.2766,6.2979,6.3012,6.4002,6.421,6.3792,6.4348,6.461,6.461,6.461,6.5068,6.5881,6.6265,6.7796,6.9798,6.9798,6.9607,6.9382,6.7683,6.8363,6.8826,6.9808,7.0096,6.9808,6.8793,6.8626,6.8626,6.8626,6.9517,7.003,6.9798,7.0336,7.0867,7.1323,7.2422,7.3231,7.3418,7.3519,7.3713,7.4058,7.482,7.5185,7.4944,7.5775,7.6071,7.577,7.5551,7.543,7.5361,7.4633,7.4252,7.4148,7.349,7.3178,7.3178,7.2927,7.2843,7.2843,7.2774,7.257,7.2399,7.2106,7.1367,7.058,7.0284,6.9755,6.8958,6.7678,6.7699,6.7974,6.6113,6.5514,6.5425,6.5425,6.4432,6.3338,6.3272,6.2913,6.2316,6.1829,6.13,6.1076,6.1688,6.1223,6.0437,5.9901,5.9766,5.9181,5.7431,5.5792,5.4054,5.2124,0.0,0.0,4.904,4.9046,4.9525,5.0459,5.0426,5.0526,5.089,5.2335,5.3347,5.3479,5.5041,5.6304,5.7123,5.7155,5.7925,5.9684,6.0005,6.0333,6.0886,6.126,6.1667,6.2146,6.2842,6.3309,6.3349,6.4523,6.4728,6.4235,6.43,6.4333,6.4333,6.4333,6.498,6.5923,6.6237,6.7796,6.9798,6.9798,6.9188,6.8301,6.7651,6.8201,6.8301,6.8699,6.9382,6.9703,6.9285,6.9188,6.9188,6.9188,6.9607,6.9798,6.9798,6.9745,6.976,7.0063,7.0918,7.1503,7.1626,7.2246,7.2982,7.4026,7.4603,7.4871,7.4947,7.5397,7.5569,7.5462,7.5377,7.5206,7.4999,7.4239,7.3945,7.391,7.3184,7.2838,7.2804,7.2237,7.2138,7.2382,7.1985,7.1559,7.125,7.1606,7.1158,7.0148,6.9282,6.8958,6.8614,6.7228,6.6805,6.6752,6.5703,6.5514,6.5504,6.4984,6.4067,6.3272,6.3272,6.2547,6.1832,6.1695,6.1635,6.1751,6.2404,6.179,6.1211,6.116,6.0267,5.9132,5.7717,5.6224,5.4664,5.3246,0.0,5.1229,5.19,5.1697,5.1796,5.2669,5.2927,5.2931,5.2438,5.3683,5.4496,5.4431,5.586,5.6847,5.6978,5.7606,5.8589,6.0214,6.0281,6.0571,6.1193,6.1332,6.1816,6.2583,6.288,6.3341,6.3942,6.4387,6.4426,6.4085,6.3959,6.3959,6.4085,6.3897,6.4185,6.4731,6.4825,6.5437,6.6184,6.6184,6.5481,6.4597,6.6517,6.6873,6.6972,6.7264,6.8693,6.9703,6.9382,6.8814,6.8407,6.8407,6.8407,6.8407,6.8407,6.8182,6.7867,6.7819,6.9098,6.9986,6.9884,7.1148,7.2364,7.3543,7.4169,7.4464,7.4394,7.4722,7.4807,7.4649,7.4599,7.429,7.3843,7.3291,7.305,7.305,7.2291,7.2084,7.2257,7.1463,7.138,7.161,7.106,7.0635,7.0308,7.0803,7.0391,6.9485,6.8688,6.8263,6.7974,6.7127,6.6551,6.6229,6.5548,6.5425,6.5382,6.4387,6.3914,6.357,6.3338,6.2765,6.2181,6.2029,6.2119,6.2268,6.277,6.2285,6.1766,6.1681,6.068,5.9471,5.8278,5.7029,5.591,5.5114,5.3784,5.3252,5.4369,5.385,5.3695,5.4322,5.4582,5.4495,5.3847,5.4984,5.5799,5.5685,5.7074,5.7848,5.7554,5.8504,5.941,6.0251,6.0355,6.0638,6.1053,6.1368,6.1929,6.2661,6.2946,6.3523,6.424,6.424,6.4053,6.3802,6.3612,6.3517,6.3612,6.3517,6.3612,6.3802,6.3929,6.4024,6.4024,6.4024,6.3325,6.2446,6.4024,6.4024,6.4272,6.5246,6.7811,6.9349,6.8369,6.6631,6.5425,6.5425,6.5425,6.5425,6.5425,6.5392,6.5147,6.4633,6.7097,6.8675,6.8603,7.0388,7.1759,7.2262,7.3445,7.3851,7.3334,7.3816,7.3816,7.3334,7.2922,7.2291,7.1498,7.1498,7.1498,7.1429,7.0705,7.0808,7.1429,7.0705,7.0347,7.0368,7.0182,6.9951,6.9696,6.9458,6.8931,6.8353,6.858,6.7926,6.6897,6.7267,6.7167,6.6531,6.5346,6.5008,6.4877,6.3908,6.3979,6.4233,6.3471,6.3581,6.3718,6.3015,6.2603,6.2493,6.2649,6.2537,6.2178,6.14,6.1076,6.0528,5.9431,5.8462,5.7806,5.7694,5.6348,5.5501,5.6192,5.5303,5.475,5.5216,5.4807,5.4675,5.5041,5.6452,5.7398,5.7547,5.9001,5.9611,5.9218,5.9918,6.0074,5.963,6.0322,6.0633,6.0378,6.1357,6.1906,6.2216,6.3171,6.3708,6.4024,6.3991,6.3865,6.358,6.3325,6.3002,6.2808,6.3325,6.3325,6.3228,6.3802,6.4024,6.4024,6.4024,6.3325,6.2414,6.4024,6.4024,6.4085,6.4365,6.5699,6.6626,6.6259,6.5775,6.5425,6.5425,6.5425,6.5425,6.5425,6.4118,6.3208,6.3091,6.4585,6.6621,6.891,7.0106,7.0808,7.0967,7.2458,7.3213,7.3088,7.3213,7.3213,7.3088,7.2838,7.2567,7.2326,7.2326,7.1532,7.0187,7.0705,7.0843,7.067,6.9911,6.9783,6.9898,6.9233,6.8811,6.8421,6.8556,6.8387,6.7929,6.7505,6.7487,6.7483,6.6698,6.6168,6.5703,6.4918,6.461,6.4387,6.3817,6.3678,6.3857,6.3837,6.355,6.333,6.2932,6.3377,6.3746,6.2887,6.2821,6.2717,6.1908,6.0973,6.0089,5.958,5.8708,5.8002,5.7888,5.756,5.7167,5.6678,5.6414,5.629,5.6072,5.6414,5.6536,5.6421,5.7763,5.8508,5.816,5.892,5.9498,5.9676,5.9745,5.9944,6.0135,6.0365,6.0378,6.0239,6.0607,6.0979,6.1466,6.2061,6.2502,6.2966,6.3259,6.3421,6.3325,6.3002,6.2905,6.2873,6.2808,6.2741,6.2612,6.2808,6.2937,6.2937,6.2937,6.2414,6.1916,6.4024,6.4024,6.4024,6.4024,6.4458,6.4976,6.5336,6.5425,6.5425,6.5425,6.5425,6.4995,6.3835,6.2649,6.1984,6.2381,6.3689,6.5686,6.8635,6.9532,6.9946,6.9946,7.1364,7.2243,7.2555,7.2832,7.3005,7.3005,7.2838,7.2533,7.2188,7.1912,7.1222,7.0222,7.0049,7.014,7.0437,6.9198,6.8876,6.9193,6.8398,6.786,6.759,6.7606,6.742,6.7285,6.6978,6.6872,6.6866,6.6379,6.5634,6.4793,6.4458,6.4333,6.4235,6.3963,6.4047,6.4228,6.4351,6.4377,6.4108,6.3633,6.3902,6.4132,6.3383,6.3194,6.3066,6.2564,6.1518,6.052,6.0233,5.9474,5.8847,5.8678,5.8587,5.8427,5.772,5.7724,5.7639,5.7291,5.7734,5.7992,5.7842,5.8873,5.9425,5.9339,5.9577,5.9845,5.9942,5.9891,5.9919,6.012,6.0152,6.0033,5.9772,5.9859,6.0216,6.0874,6.1574,6.2099,6.2362,6.2876,6.3002,6.3002,6.2612,6.2513,6.2481,6.2315,6.2247,6.2347,6.2116,6.2216,6.2446,6.2446,6.2016,6.1582,6.4024,6.4024,6.4024,6.4024,6.4024,6.4272,6.5246,6.5425,6.5326,6.5061,6.5028,6.4034,6.1384,6.1119,6.1417,6.2223,6.3859,6.573,6.7763,6.8739,6.9187,6.9187,7.0038,7.0845,7.1572,7.2485,7.2901,7.2901,7.272,7.2257,7.1463,7.0774,7.0601,7.0808,6.8946,6.8991,7.0275,6.8507,6.8097,6.8428,6.7578,6.7199,6.7083,6.666,6.6388,6.6369,6.6723,6.6213,6.5525,6.6022,6.5176,6.4024,6.4024,6.4179,6.424,6.424,6.461,6.5008,6.5008,6.5369,6.5559,6.496,6.4433,6.3951,6.3902,6.3563,6.3252,6.3186,6.2278,6.1502,6.1206,6.0685,6.0174,5.9999,5.9761,5.9441,5.9174,5.9087,5.8984,5.8675,5.8837,5.9112,5.9305,5.9776,6.0275,6.0652,6.0717,6.0463,6.0152,6.0066,5.9979,5.9716,5.9693,5.9605,5.9338,5.9402,5.9691,6.0328,6.1498,6.2076,6.2076,6.2555,6.271,6.271,6.2216,6.2016,6.2016,6.1947,6.2016,6.2315,6.1784,6.1916,6.2315,6.2347,6.2016,6.1481,6.4024,6.4024,6.4024,6.4024,6.4024,6.4272,6.5246,6.5425,6.4597,6.2345,6.2047,6.1815,6.1185,6.1119,6.1202,6.1368,6.4469,6.6446,6.6553,6.7525,6.7959,6.7912,6.876,6.9323,6.933,7.1166,7.2022,7.1822,7.236,7.2188,7.1256,7.1084,7.014,6.8451,6.8005,6.7959,6.8207,6.7843,6.7591,6.7496,6.7428,6.718,6.688,6.6541,6.6249,6.6042,6.6209,6.6109,6.5801,6.4839,6.428,6.4024,6.4024,6.3991,6.4085,6.4085,6.4272,6.4518,6.4702,6.4976,6.5379,6.5684,6.5312,6.4575,6.3729,6.367,6.3584,6.2815,6.232,6.1988,6.1685,6.1735,6.1727,6.1727,6.1774,6.1459,6.0226,6.0102,5.9891,5.9498,5.9515,5.9828,6.0638,6.0588,6.0553,6.0717,6.0548,6.0378,6.0152,5.9892,5.9716,5.9419,5.9698,5.9896,5.9804,6.0256,6.0064,5.9319,6.045,6.0836,6.0582,6.1653,6.2184,6.2053,6.1784,6.1683,6.1683,6.1683,6.1714,6.1784,6.1683,6.1683,6.1784,6.1916,6.1512,6.0897,6.3228,6.3612,6.3797,6.3084,6.3538,6.4179,6.4643,6.4702,6.4359,6.3285,6.1521,6.041,6.041,6.0835,6.1285,6.1662,6.4363,6.6051,6.5744,6.6873,6.751,6.7428,6.7933,6.822,6.8056,6.9516,7.0471,7.0648,7.1607,7.171,7.1026,7.0992,7.0099,6.8439,6.822,6.809,6.7826,6.7598,6.7467,6.7523,6.7233,6.693,6.6626,6.6335,6.6129,6.5867,6.5746,6.557,6.5246,6.4518,6.4179,6.4024,6.4024,6.4024,6.4024,6.4024,6.4272,6.4518,6.4702,6.4918,6.5173,6.5772,6.5488,6.4937,6.4515,6.4465,6.4289,6.3356,6.3042,6.2761,6.2587,6.2321,6.2273,6.2362,6.2573,6.2355,6.1238,6.1159,6.1066,6.0456,6.039,6.0522,6.0886,6.0717,6.0548,6.0378,6.0325,6.0152,5.9772,5.9919,5.9935,5.9666,6.0188,6.0448,6.0355,6.0612,6.0074,5.8934,6.0266,6.0581,6.0075,6.1357,6.1979,6.1847,6.1512,6.141,6.1441,6.1308,6.1206,6.1206,6.1206,6.0877,6.0444,6.1144,6.1,6.0481,6.2098,6.294,6.335,6.2081,6.2825,6.3732,6.3959,6.4024,6.4272,6.5066,6.2003,5.9716,5.9716,6.0496,6.1417,6.2302,6.3849,6.5005,6.5517,6.6548,6.718,6.718,6.7312,6.7394,6.7394,6.8008,6.8774,6.9559,7.048,7.0704,7.0431,7.0396,6.9833,6.8788,6.85,6.8166,6.7996,6.7353,6.7303,6.7554,6.6913,6.6592,6.6402,6.6042,6.5922,6.578,6.5514,6.5066,6.4643,6.461,6.4365,6.4024,6.4024,6.4024,6.4024,6.4024,6.4272,6.4643,6.4741,6.499,6.5312,6.5821,6.5478,6.5126,6.5447,6.5287,6.4964,6.435,6.4061,6.3802,6.3687,6.3121,6.2721,6.2933,6.3199,6.3111,6.2385,6.2359,6.2164,6.1384,6.1185,6.1018,6.108,6.0725,6.0435,6.0424,6.0337,6.0161,5.9685,6.0174,6.0404,6.0128,6.0738,6.0994,6.0773,6.0805,6.0329,5.9188,6.0282,6.0469,5.9941,6.1183,6.1738,6.1707,6.1339,6.1134,6.1165,6.0824,6.069,6.069,6.069,6.0119,5.935,6.0285,6.0377,5.9925,6.0834,6.169,6.2459,6.1865,6.1983,6.2534,6.3829,6.4024,6.4024,6.4179,6.1588,5.9716,5.9716,6.0496,6.1417,6.2302,6.2662,6.3848,6.6422,6.6424,6.644,6.6812,6.6896,6.6896,6.6896,6.7131,6.7823,6.8739,6.9322,6.9272,6.8659,6.8659,6.8132,6.71,6.735,6.7184,6.6709,6.6574,6.6455,6.6316,6.6215,6.6129,6.5955,6.5603,6.5514,6.5514,6.5425,6.5336,6.5156,6.4365,6.3991,6.4024,6.4024,6.4024,6.4024,6.4024,6.4179,6.4463,6.5082,6.5339,6.5571,6.6615,6.6159,6.5574,6.5847,6.5628,6.5247,6.5447,6.4932,6.4578,6.5053,6.4714,6.4407,6.4712,6.516,6.5072,6.4167,6.371,6.3097,6.2197,6.1282,6.1212,6.2496,6.1392,6.1028,6.1857,6.1562,6.1322,6.123,6.111,6.0863,6.0644,6.0866,6.105,6.0952,6.132,6.109,6.0334,6.0175,6.0059,6.0063,6.0882,6.1175,6.0918,6.0835,6.069,6.0481,6.0481,6.0302,6.0092,6.0092,6.0061,6.0106,6.0061,5.9773,5.9207,6.0423,6.1217,6.2013,6.2077,6.197,6.1757,6.1627,6.1627,6.1627,6.1627,6.0494,5.9716,5.9716,6.0496,6.1252,6.1662,6.2144,6.3214,6.5009,6.5487,6.5834,6.6302,6.6354,6.644,6.644,6.6525,6.6778,6.7167,6.803,6.8147,6.7671,6.8196,6.7906,6.6993,6.7165,6.6877,6.6421,6.6302,6.6215,6.6095,6.6095,6.6095,6.5922,6.5603,6.5425,6.5336,6.4793,6.4643,6.4551,6.3802,6.3707,6.3929,6.3612,6.3707,6.4024,6.3802,6.4053,6.437,6.5023,6.5218,6.5447,6.6381,6.6209,6.5873,6.6298,6.602,6.5586,6.5472,6.567,6.5901,6.6187,6.5876,6.5692,6.6055,6.5902,6.5547,6.4727,6.4328,6.3862,6.2703,6.2048,6.1939,6.2507,6.1653,6.1316,6.1763,6.1487,6.1209,6.1116,6.128,6.1313,6.1122,6.1397,6.1545,6.1545,6.1558,6.1169,6.0415,6.0577,6.0423,6.0104,6.0701,6.0866,6.0805,6.0659,6.0451,6.0316,6.0167,6.0061,5.9789,5.9986,5.9986,5.9986,5.9452,5.9237,5.8991]}]]